[[{"header":{"parameterUnit":"m.s-1","parameterCategory":1,"la1":30.6,"la2":29.2853,"lo1":-89.7004,"lo2":-87.6739,"dy":0.0162,"dx":0.0183,"nx":112,"ny":82,"refTime":"2026-05-03T00:00:00:Z","depth":0,"parameterNumber":2,"parameterNumberName":"U-component_of_WINDS"},"data":[0.0,0.0,0.0,0.0,0.0,0.0,0.0,0.0,0.0,0.0,0.0,0.0,0.0,0.0,0.0,0.0,0.0,0.0,0.0,0.0,0.0,0.0,0.0,0.0,0.0,0.0,0.0,0.0,0.0,0.0,0.0,0.0,0.0,0.0,0.0,0.0,0.0,0.0,0.0,0.0,0.0,0.0,0.0,0.0,0.0,0.0,0.0,0.0,0.0,0.0,0.0,0.0,0.0,0.0,0.0,0.0,0.0,0.0,0.0,0.0,0.0,0.0,0.0,0.0,0.0,0.0,0.0,0.0,0.0,0.0,0.0,0.0,0.0,0.0,0.0,0.0,0.0,0.0,0.0,0.0,0.0,0.0,0.0,0.0,0.0,0.0,0.0,0.0,0.0,0.0,0.0,-8.6175,-9.8266,-10.3598,-9.8492,-9.6314,-9.0756,-8.0355,0.0,0.0,0.0,0.0,0.0,0.0,0.0,0.0,0.0,0.0,0.0,0.0,0.0,0.0,0.0,0.0,0.0,0.0,0.0,0.0,0.0,0.0,0.0,0.0,0.0,0.0,0.0,0.0,0.0,0.0,0.0,0.0,0.0,0.0,0.0,0.0,0.0,0.0,0.0,0.0,0.0,0.0,0.0,0.0,0.0,0.0,0.0,0.0,0.0,0.0,0.0,0.0,0.0,0.0,0.0,0.0,0.0,0.0,0.0,0.0,0.0,0.0,0.0,0.0,0.0,0.0,0.0,0.0,0.0,0.0,0.0,0.0,0.0,0.0,0.0,0.0,0.0,0.0,0.0,0.0,0.0,0.0,0.0,0.0,0.0,0.0,0.0,0.0,0.0,0.0,0.0,0.0,0.0,0.0,0.0,0.0,0.0,0.0,0.0,0.0,0.0,0.0,0.0,0.0,-7.9667,-9.3272,-9.9768,-10.2209,-9.9918,-9.6952,-9.1507,-8.277,0.0,0.0,0.0,0.0,0.0,0.0,0.0,0.0,0.0,0.0,0.0,0.0,0.0,0.0,0.0,0.0,0.0,0.0,0.0,0.0,0.0,0.0,0.0,0.0,0.0,0.0,0.0,0.0,0.0,0.0,0.0,0.0,0.0,0.0,0.0,0.0,0.0,0.0,0.0,0.0,0.0,0.0,0.0,0.0,0.0,0.0,0.0,0.0,0.0,0.0,0.0,0.0,0.0,0.0,0.0,0.0,0.0,0.0,0.0,0.0,0.0,0.0,0.0,0.0,0.0,0.0,0.0,0.0,0.0,0.0,0.0,0.0,0.0,0.0,0.0,0.0,0.0,0.0,0.0,0.0,0.0,0.0,0.0,0.0,0.0,0.0,0.0,0.0,0.0,0.0,0.0,0.0,0.0,0.0,0.0,0.0,0.0,0.0,0.0,0.0,0.0,0.0,0.0,-7.7663,-8.6175,-9.4849,-9.9843,-10.1383,-9.8341,-9.5901,-9.0606,-8.1407,-7.2733,0.0,0.0,0.0,0.0,0.0,0.0,0.0,0.0,0.0,0.0,0.0,0.0,0.0,0.0,0.0,0.0,0.0,0.0,0.0,0.0,0.0,0.0,0.0,0.0,0.0,0.0,0.0,0.0,0.0,0.0,0.0,0.0,0.0,0.0,0.0,0.0,0.0,0.0,0.0,0.0,0.0,0.0,0.0,0.0,0.0,0.0,0.0,0.0,0.0,0.0,0.0,0.0,0.0,0.0,0.0,0.0,0.0,0.0,0.0,0.0,0.0,0.0,0.0,0.0,0.0,0.0,0.0,0.0,0.0,0.0,0.0,0.0,0.0,0.0,0.0,0.0,0.0,0.0,0.0,0.0,0.0,0.0,0.0,0.0,0.0,0.0,0.0,0.0,0.0,0.0,0.0,0.0,0.0,0.0,0.0,0.0,0.0,0.0,0.0,0.0,0.0,0.0,-8.4335,-9.1432,-9.4586,-9.8642,-9.9543,-9.56,-9.3235,-8.794,-7.8553,-7.078,0.0,0.0,0.0,0.0,0.0,0.0,0.0,0.0,0.0,0.0,0.0,0.0,0.0,0.0,0.0,0.0,0.0,0.0,0.0,0.0,0.0,0.0,0.0,0.0,0.0,0.0,0.0,0.0,0.0,0.0,0.0,0.0,0.0,0.0,0.0,0.0,0.0,0.0,0.0,0.0,0.0,0.0,0.0,0.0,0.0,0.0,0.0,0.0,0.0,0.0,0.0,0.0,0.0,0.0,0.0,0.0,0.0,0.0,0.0,0.0,0.0,0.0,0.0,0.0,0.0,0.0,0.0,0.0,0.0,0.0,0.0,0.0,0.0,0.0,0.0,0.0,0.0,0.0,0.0,0.0,0.0,0.0,0.0,0.0,0.0,0.0,0.0,0.0,0.0,0.0,0.0,0.0,0.0,0.0,0.0,0.0,0.0,0.0,0.0,0.0,0.0,0.0,-8.5086,-9.1282,-9.3798,-9.575,-9.5488,-9.2108,-8.8203,-8.2683,-7.5023,-6.68,0.0,0.0,0.0,0.0,0.0,0.0,0.0,0.0,0.0,0.0,0.0,0.0,0.0,0.0,0.0,0.0,0.0,0.0,0.0,0.0,0.0,0.0,0.0,0.0,0.0,0.0,0.0,0.0,0.0,0.0,0.0,0.0,0.0,0.0,0.0,0.0,0.0,0.0,0.0,0.0,0.0,0.0,0.0,0.0,0.0,0.0,0.0,0.0,0.0,0.0,0.0,0.0,0.0,0.0,0.0,0.0,0.0,0.0,0.0,0.0,0.0,0.0,0.0,0.0,0.0,0.0,0.0,0.0,0.0,0.0,0.0,0.0,0.0,0.0,0.0,0.0,0.0,0.0,0.0,0.0,0.0,0.0,0.0,0.0,0.0,0.0,0.0,0.0,0.0,0.0,0.0,0.0,0.0,0.0,0.0,0.0,0.0,0.0,0.0,0.0,0.0,0.0,-8.4786,-9.1019,0.0,-9.4662,-9.4098,-9.0268,-8.6138,-8.0581,-7.3108,0.0,0.0,0.0,0.0,0.0,0.0,0.0,0.0,0.0,0.0,0.0,0.0,0.0,0.0,0.0,0.0,0.0,0.0,0.0,0.0,0.0,0.0,0.0,0.0,0.0,0.0,0.0,0.0,0.0,0.0,0.0,0.0,0.0,0.0,0.0,0.0,0.0,0.0,0.0,0.0,0.0,0.0,0.0,0.0,0.0,0.0,0.0,0.0,0.0,0.0,0.0,0.0,0.0,0.0,0.0,0.0,0.0,0.0,0.0,0.0,0.0,0.0,0.0,0.0,0.0,0.0,0.0,0.0,0.0,0.0,0.0,0.0,0.0,0.0,0.0,0.0,0.0,0.0,0.0,0.0,0.0,0.0,0.0,0.0,0.0,0.0,0.0,0.0,0.0,0.0,0.0,0.0,0.0,0.0,0.0,0.0,0.0,0.0,0.0,0.0,0.0,0.0,-7.5511,-8.411,-9.0081,0.0,-9.3197,-9.2446,-8.8541,-8.4411,-7.8853,-7.1381,0.0,0.0,0.0,0.0,0.0,0.0,0.0,0.0,0.0,0.0,0.0,0.0,0.0,0.0,0.0,0.0,0.0,0.0,0.0,0.0,0.0,0.0,0.0,0.0,0.0,0.0,0.0,0.0,0.0,0.0,0.0,0.0,0.0,0.0,0.0,0.0,0.0,0.0,0.0,0.0,0.0,0.0,0.0,0.0,0.0,0.0,0.0,0.0,0.0,0.0,0.0,0.0,0.0,0.0,0.0,0.0,0.0,0.0,0.0,0.0,0.0,0.0,0.0,0.0,0.0,0.0,0.0,0.0,0.0,0.0,0.0,0.0,0.0,0.0,0.0,0.0,0.0,0.0,0.0,0.0,0.0,0.0,0.0,0.0,0.0,0.0,0.0,0.0,0.0,0.0,0.0,0.0,0.0,0.0,0.0,0.0,0.0,0.0,0.0,0.0,0.0,0.0,-7.5399,-8.3134,-8.8391,-9.0005,-9.0944,-9.0118,-8.6776,-8.2721,-7.7164,0.0,0.0,0.0,0.0,0.0,0.0,0.0,0.0,0.0,0.0,0.0,0.0,0.0,0.0,0.0,0.0,0.0,0.0,0.0,0.0,0.0,0.0,0.0,0.0,0.0,0.0,0.0,0.0,0.0,0.0,0.0,0.0,0.0,0.0,0.0,0.0,0.0,0.0,0.0,0.0,0.0,0.0,0.0,0.0,0.0,0.0,0.0,0.0,0.0,0.0,0.0,0.0,0.0,0.0,0.0,0.0,0.0,0.0,0.0,0.0,0.0,0.0,0.0,0.0,0.0,0.0,0.0,0.0,0.0,0.0,0.0,0.0,0.0,0.0,0.0,0.0,0.0,0.0,0.0,0.0,0.0,0.0,0.0,0.0,0.0,0.0,0.0,0.0,0.0,0.0,0.0,0.0,0.0,0.0,0.0,0.0,0.0,0.0,0.0,0.0,0.0,0.0,0.0,-7.2958,-8.1557,-8.7302,-8.8391,-8.9254,-8.8391,-8.5086,-8.0505,-7.4836,-6.7926,0.0,0.0,0.0,0.0,0.0,0.0,0.0,0.0,0.0,0.0,0.0,0.0,0.0,0.0,0.0,0.0,0.0,0.0,0.0,0.0,0.0,0.0,0.0,0.0,0.0,0.0,0.0,0.0,0.0,0.0,0.0,0.0,0.0,0.0,0.0,0.0,0.0,0.0,0.0,0.0,0.0,0.0,0.0,0.0,0.0,0.0,0.0,0.0,0.0,0.0,0.0,0.0,0.0,0.0,0.0,0.0,0.0,0.0,0.0,0.0,0.0,0.0,0.0,0.0,0.0,0.0,0.0,0.0,0.0,0.0,0.0,0.0,0.0,0.0,0.0,0.0,0.0,0.0,0.0,0.0,0.0,0.0,0.0,0.0,0.0,0.0,0.0,0.0,0.0,0.0,0.0,0.0,0.0,0.0,0.0,0.0,0.0,0.0,0.0,0.0,0.0,0.0,-7.232,-8.0505,-8.5875,-8.6701,-8.7527,-8.6664,-8.3359,-7.9754,-7.4685,-6.7701,0.0,0.0,0.0,0.0,0.0,0.0,0.0,0.0,0.0,0.0,0.0,0.0,0.0,0.0,0.0,0.0,0.0,0.0,0.0,0.0,0.0,0.0,0.0,0.0,0.0,0.0,0.0,0.0,0.0,0.0,0.0,0.0,0.0,0.0,0.0,0.0,0.0,0.0,0.0,0.0,0.0,0.0,0.0,0.0,0.0,0.0,0.0,0.0,0.0,0.0,0.0,0.0,0.0,0.0,0.0,0.0,0.0,0.0,0.0,0.0,0.0,0.0,0.0,0.0,0.0,0.0,0.0,0.0,0.0,0.0,0.0,0.0,0.0,0.0,0.0,0.0,0.0,0.0,0.0,0.0,0.0,0.0,0.0,0.0,0.0,0.0,0.0,0.0,0.0,0.0,0.0,0.0,0.0,0.0,0.0,0.0,0.0,0.0,0.0,0.0,0.0,0.0,-7.2395,-7.9567,-8.4035,-8.4786,-8.5575,-8.4824,-8.1745,-7.9754,-7.5587,-6.834,0.0,0.0,0.0,0.0,0.0,0.0,0.0,0.0,0.0,0.0,0.0,0.0,0.0,0.0,0.0,0.0,0.0,0.0,0.0,0.0,0.0,0.0,0.0,0.0,0.0,0.0,0.0,0.0,0.0,0.0,0.0,0.0,0.0,0.0,0.0,0.0,0.0,0.0,0.0,0.0,0.0,0.0,0.0,0.0,0.0,0.0,0.0,0.0,0.0,0.0,0.0,0.0,0.0,0.0,0.0,0.0,0.0,0.0,0.0,0.0,-6.8189,0.0,0.0,0.0,0.0,0.0,0.0,0.0,0.0,0.0,0.0,0.0,0.0,0.0,0.0,0.0,0.0,0.0,0.0,0.0,0.0,0.0,0.0,0.0,0.0,0.0,0.0,0.0,0.0,0.0,0.0,0.0,0.0,0.0,0.0,0.0,0.0,0.0,0.0,0.0,0.0,0.0,-6.8377,-7.6262,-8.1256,-8.1407,-8.2158,-8.212,-8.0768,-7.7314,-7.2883,-6.7401,-6.083,0.0,0.0,0.0,0.0,0.0,0.0,0.0,0.0,0.0,0.0,0.0,0.0,0.0,0.0,0.0,0.0,0.0,0.0,0.0,0.0,0.0,0.0,0.0,0.0,0.0,0.0,0.0,0.0,0.0,0.0,0.0,0.0,0.0,0.0,0.0,0.0,0.0,0.0,0.0,0.0,0.0,0.0,0.0,0.0,0.0,0.0,0.0,0.0,0.0,0.0,0.0,0.0,0.0,0.0,0.0,0.0,0.0,0.0,0.0,0.0,-7.1944,0.0,0.0,0.0,0.0,0.0,0.0,0.0,0.0,0.0,0.0,0.0,0.0,0.0,0.0,0.0,0.0,0.0,0.0,0.0,0.0,0.0,0.0,0.0,0.0,0.0,0.0,0.0,0.0,0.0,0.0,0.0,0.0,0.0,0.0,0.0,0.0,0.0,0.0,0.0,0.0,-6.7589,-7.4798,-7.9216,-7.9216,-8.028,-8.0205,-7.8177,-7.5286,-7.1644,-6.7084,-6.128,0.0,0.0,0.0,0.0,0.0,0.0,0.0,0.0,0.0,0.0,0.0,0.0,0.0,0.0,0.0,0.0,0.0,0.0,0.0,0.0,0.0,0.0,0.0,0.0,0.0,0.0,0.0,0.0,0.0,0.0,0.0,0.0,0.0,0.0,0.0,0.0,0.0,0.0,0.0,0.0,0.0,0.0,0.0,0.0,0.0,0.0,0.0,0.0,0.0,0.0,0.0,0.0,0.0,-7.7214,-7.7777,-7.8204,-7.9589,-8.1503,-8.3483,-8.0243,-7.8102,-7.6788,0.0,0.0,0.0,0.0,0.0,0.0,0.0,0.0,0.0,0.0,0.0,0.0,0.0,0.0,0.0,0.0,0.0,0.0,0.0,0.0,0.0,0.0,0.0,0.0,0.0,-6.9853,-6.6875,0.0,0.0,0.0,0.0,0.0,0.0,0.0,0.0,0.0,0.0,0.0,0.0,-6.7868,-7.3822,-7.7314,-7.7426,-7.8553,-7.8177,-7.5436,-7.3521,-7.093,-6.7234,-6.2595,-5.7863,0.0,0.0,0.0,0.0,0.0,0.0,0.0,0.0,0.0,0.0,0.0,0.0,0.0,0.0,0.0,0.0,0.0,0.0,0.0,0.0,0.0,0.0,0.0,0.0,0.0,0.0,0.0,0.0,0.0,0.0,0.0,0.0,-5.476,-5.6617,0.0,0.0,0.0,0.0,0.0,0.0,0.0,0.0,0.0,0.0,0.0,0.0,0.0,0.0,-7.7737,-7.9523,-8.1147,-8.2644,-8.2928,-8.3795,-8.5172,-8.5398,-8.6111,-8.7152,-8.7302,0.0,-8.2758,-8.0393,0.0,0.0,0.0,0.0,0.0,0.0,0.0,0.0,0.0,0.0,0.0,0.0,0.0,0.0,0.0,0.0,0.0,0.0,0.0,0.0,0.0,0.0,-7.5173,-7.4033,-7.4033,-7.3672,0.0,-6.7664,-6.3759,-6.0586,0.0,0.0,0.0,0.0,0.0,0.0,0.0,0.0,-6.7251,-7.1982,-7.4948,-7.5662,-7.5286,-7.4836,-7.4423,-7.217,-6.9954,-6.7964,-6.4547,-6.1017,-5.745,-5.3395,0.0,0.0,0.0,0.0,0.0,0.0,0.0,0.0,0.0,0.0,0.0,0.0,0.0,0.0,0.0,0.0,0.0,0.0,0.0,0.0,0.0,0.0,0.0,0.0,0.0,0.0,0.0,0.0,0.0,-5.4648,-5.8921,-6.011,-6.0258,-5.9887,0.0,0.0,0.0,0.0,0.0,0.0,0.0,0.0,0.0,-7.5371,-7.817,-8.0868,-8.3499,-8.5142,-8.659,-8.7836,-8.8409,-8.9065,-8.9863,-9.0351,-9.0821,-9.1282,-9.1658,-9.0982,-8.933,-8.4936,-8.0994,-7.7314,0.0,0.0,0.0,0.0,-7.1193,-7.1681,-7.2921,-7.3409,0.0,0.0,0.0,0.0,0.0,0.0,0.0,0.0,0.0,0.0,0.0,0.0,0.0,-7.6023,-7.5723,-7.5061,-7.3897,-7.1531,-6.8715,0.0,-6.1768,-5.8201,-5.5348,0.0,0.0,0.0,0.0,0.0,-6.6575,-7.093,-7.3446,-7.3334,-7.3859,-7.3822,-7.2883,-7.1381,-6.9992,-6.8753,-6.6011,-6.3158,-6.0304,-5.6662,-5.2944,0.0,0.0,0.0,0.0,0.0,0.0,0.0,0.0,0.0,0.0,0.0,0.0,0.0,0.0,0.0,0.0,0.0,0.0,0.0,0.0,0.0,0.0,0.0,0.0,0.0,0.0,0.0,0.0,-5.8364,-6.2524,-6.3527,-6.401,-6.3713,0.0,0.0,0.0,0.0,0.0,0.0,-7.1714,-7.4449,-7.7211,-8.003,-8.2444,-8.5044,-8.7847,-8.9204,-9.0496,-9.1694,-9.2353,-9.2937,-9.3507,-9.4145,-9.4467,-9.4586,-9.4586,-9.4248,-9.3272,-8.8316,-8.4673,-8.1932,-7.8365,-7.6638,-7.6112,-7.6112,-7.6225,-7.6638,-7.8253,-7.8741,-7.8666,-7.9079,0.0,-7.3221,-6.9782,0.0,0.0,0.0,0.0,-6.9729,-7.1824,-7.4174,-7.6324,-7.7362,-7.6812,-7.5812,-7.4986,-7.3972,-7.2245,0.0,-6.5486,-6.2294,-5.9816,0.0,0.0,0.0,0.0,-6.1994,-6.68,-7.0255,-7.2132,-7.1757,-7.262,-7.277,-7.1494,-7.0442,-6.9579,-6.8919,-6.6762,-6.451,-6.2219,-5.914,-5.5648,-5.1705,0.0,0.0,0.0,0.0,0.0,0.0,0.0,0.0,0.0,0.0,0.0,0.0,0.0,0.0,0.0,0.0,0.0,0.0,0.0,0.0,0.0,0.0,0.0,0.0,0.0,0.0,0.0,0.0,0.0,-6.6871,-6.8407,0.0,0.0,0.0,0.0,-6.91,-7.1715,-7.4323,-7.6819,-8.0057,-8.2594,-8.4241,-8.6699,-8.8442,-8.9373,-9.0384,-9.1837,-9.356,-9.3784,-9.4707,-9.6208,-9.6246,-9.6246,-9.6276,-9.6276,-9.4962,-9.2559,-8.9893,-8.8278,-8.7039,-8.2909,-8.1256,-8.1219,-8.1219,-8.1707,-8.2582,-8.4298,-8.4373,-8.396,-8.55,-8.167,-7.5713,-7.1906,-6.9266,0.0,0.0,-7.0698,-7.2883,-7.3822,-7.5924,-7.7764,-7.7864,-7.7826,-7.7539,-7.6675,-7.5249,-7.3146,0.0,-6.7739,-6.5749,-6.327,0.0,-5.9741,-6.2407,-6.2857,-6.4397,-6.8543,-6.9992,-7.0893,-7.1644,-7.1081,-7.063,-7.0555,-6.9053,-6.8114,-6.8077,-6.6462,-6.4772,-6.312,-6.0567,-5.76,-5.4296,-5.0128,0.0,0.0,0.0,0.0,0.0,0.0,0.0,0.0,0.0,0.0,0.0,0.0,0.0,0.0,0.0,0.0,0.0,0.0,0.0,0.0,0.0,0.0,0.0,0.0,0.0,0.0,0.0,0.0,-7.1738,-7.3447,0.0,-7.3298,-7.2221,-7.2592,-7.5044,-7.7588,-8.007,-8.2524,-8.4785,-8.6757,-8.8332,-8.9745,-9.0987,-9.2063,-9.1864,-9.2496,-9.3889,-9.3393,-9.376,-9.4849,-9.4286,-9.4023,-9.3986,-9.346,-9.3347,-9.3347,-9.0794,-8.8992,-8.764,-8.6175,-8.4936,-8.3998,-8.3998,-8.4185,-8.4598,-8.5687,-8.5537,-8.4786,-8.4298,-8.182,-7.8553,-7.5952,-7.4001,-7.2733,-7.2477,-7.3438,-7.4972,-7.6874,-7.7625,-7.7877,-7.7877,-7.7502,-7.6901,-7.6037,-7.4986,-7.3672,-7.1907,-6.9842,-6.8077,-6.7176,-6.496,-6.3796,-6.5261,-6.5486,-6.6199,-6.8189,-6.9654,-7.0405,-7.012,-6.9842,-6.9466,-6.894,-6.7851,-6.7213,-6.7213,-6.5636,-6.4472,-6.3909,-6.1468,-5.9102,-5.6849,-5.377,-5.0278,0.0,0.0,0.0,0.0,0.0,0.0,0.0,0.0,0.0,0.0,0.0,0.0,0.0,0.0,0.0,0.0,0.0,0.0,0.0,0.0,0.0,0.0,0.0,0.0,0.0,0.0,-7.2666,-7.5156,-7.7412,-7.8388,-7.7533,-7.7236,-7.7868,-7.9799,-8.1954,-8.4035,-8.5892,-8.7601,-8.8976,-9.0053,-9.113,-9.1998,-9.2642,-9.2343,-9.2645,-9.3535,-9.2972,-9.316,-9.3986,-9.3385,-9.3272,-9.3498,-9.2671,-9.2784,-9.3422,-9.1733,-8.993,-8.8203,-8.8203,-8.7527,-8.6551,-8.6551,-8.6551,-8.6551,-8.6513,-8.6138,-8.5424,-8.3772,-8.2308,-8.1031,-8.0042,-7.8502,-7.6901,-7.6078,-7.6252,-7.7037,-7.8677,-7.869,-7.8215,-7.7952,-7.7276,-7.645,-7.5587,-7.476,-7.3934,-7.3071,-7.1343,-6.9932,-6.9691,-6.7814,-6.6612,-6.7476,-6.7363,-6.7476,-6.8302,-6.9128,-6.9428,-6.8865,-6.8806,-6.849,-6.7664,-6.7121,-6.6558,-6.5995,-6.4379,-6.3195,-6.2632,-6.1017,-5.9253,-5.7282,-5.4296,-5.1104,-4.7763,0.0,0.0,0.0,0.0,0.0,0.0,0.0,0.0,0.0,0.0,0.0,0.0,0.0,0.0,0.0,0.0,0.0,0.0,0.0,0.0,0.0,0.0,0.0,-6.3393,-6.9397,-7.4476,-7.6966,-8.0125,-8.1731,-8.0914,-8.162,-8.2474,-8.3254,-8.4778,-8.6004,-8.6784,-8.8381,-8.931,-8.931,-9.0833,-9.1439,-9.0998,-9.1783,-9.2346,-9.2709,-9.2709,-9.3122,-9.3948,-9.3911,-9.4324,-9.4999,-9.4173,-9.3385,-9.2634,-9.2596,-9.1169,-8.9029,-8.9029,-8.9029,-8.8992,-8.8954,-8.8954,-8.8691,-8.7039,-8.6476,-8.6213,-8.4598,-8.3547,-8.2984,-8.3787,-8.2397,-8.0318,-7.9342,-7.9104,-7.9154,-7.9116,-7.9079,-7.8853,-7.8065,-7.7201,-7.6375,-7.5549,-7.476,-7.3972,-7.3108,-7.2282,-7.1494,-7.063,-6.9166,-6.834,-6.9069,-6.8565,0.0,-6.9069,-6.849,-6.8039,-6.8002,-6.7964,-6.7626,-6.6858,-6.6708,-6.5957,-6.4322,-6.2632,-6.0942,-5.9328,-5.9253,-5.8126,-5.5706,-5.1705,-4.8814,-4.7087,0.0,0.0,0.0,0.0,0.0,0.0,0.0,0.0,0.0,0.0,0.0,0.0,0.0,0.0,0.0,0.0,0.0,0.0,0.0,0.0,0.0,-6.011,-6.4322,-6.6773,-7.2295,-7.7226,-8.0282,-8.2474,-8.3886,-8.422,-8.5,-8.5558,-8.5781,-8.6821,-8.749,-8.7712,-8.8716,-8.931,-8.931,-9.0313,-9.0881,-9.0998,-9.1222,-9.1785,-9.2709,-9.2709,-9.2822,-9.3047,-9.2446,-9.1958,-9.1545,-9.0719,-9.0569,-9.0832,-9.0268,-8.9968,-8.9893,-8.9893,-8.9517,-8.8917,-8.8353,-8.7715,-8.7039,-8.5988,-8.565,-8.5462,-8.4448,-8.3922,-8.3622,-8.3035,-8.2986,-8.2547,-7.9867,-7.9567,-7.9905,-7.9266,-7.8666,-7.8177,-7.7952,-7.6788,-7.5662,-7.5436,-7.476,-7.4122,-7.3897,-7.3146,-7.2132,-7.0743,-7.0104,-6.9654,-6.9257,-6.8994,0.0,-6.8377,-6.8677,-6.8677,-6.8077,-6.6913,-6.6349,-6.6783,-6.4547,-6.297,-6.2519,-6.0379,-5.8915,-5.8464,-5.7863,-5.7525,-5.7395,-5.4559,-5.163,0.0,0.0,0.0,0.0,0.0,0.0,0.0,0.0,0.0,0.0,0.0,0.0,0.0,0.0,0.0,0.0,0.0,0.0,0.0,0.0,0.0,0.0,-6.4679,-6.8989,-7.2146,-7.549,-7.8713,-8.162,-8.37,-8.5075,-8.5558,-8.6672,-8.7341,-8.7341,-8.7787,-8.8084,-8.8084,-8.8864,-8.931,-8.931,-9.0424,-9.0844,-9.0513,-9.0849,-9.1036,-9.1132,-9.1132,-9.1132,-9.1132,-9.0681,-9.0343,0.0,-8.9367,-8.9442,-9.0156,-8.933,-8.9292,0.0,0.0,0.0,0.0,0.0,-8.6926,-8.6363,-8.5575,-8.5312,-8.5162,-8.4373,-8.3847,-8.3359,-8.2383,-8.2296,-8.2096,-7.973,-7.9204,-7.9304,-7.9154,-7.8515,-7.7802,-7.7426,-7.66,-7.5737,-7.5023,-7.4235,-7.3672,-7.3672,0.0,0.0,-7.078,-7.048,-7.0217,-6.9332,-6.8903,-6.8677,-6.8527,-6.834,-6.8152,-6.8002,-6.6838,-6.5974,-6.5769,-6.4284,0.0,0.0,0.0,-5.899,-5.8614,-5.7525,0.0,0.0,0.0,0.0,0.0,0.0,0.0,0.0,-4.6073,-4.7425,0.0,0.0,0.0,0.0,0.0,0.0,0.0,0.0,0.0,0.0,0.0,0.0,0.0,0.0,0.0,0.0,-6.9211,-7.377,-7.783,-7.8499,-7.9465,-8.1954,-8.422,-8.5632,-8.5743,-8.7155,-8.8084,-8.8084,-8.8084,-8.8084,-8.8084,0.0,0.0,0.0,0.0,-9.0769,-8.9661,-9.0475,-9.0288,-8.9142,-8.9217,-8.9217,-8.9142,-8.9142,-8.948,-9.0043,-8.9292,-8.9405,-9.0005,-8.9292,-8.8954,-8.8841,-8.8841,-8.8316,-8.7415,-8.6664,-8.6326,0.0,0.0,0.0,0.0,-8.4223,-8.3397,-8.2545,-8.1818,-8.1055,-8.028,-7.9479,-7.8678,-7.8177,-7.8928,-7.844,-7.7614,-7.7013,-7.6675,-7.6112,-7.476,-7.3672,-7.2921,-7.3033,-7.2958,-7.2432,-7.0893,-7.0555,-7.0179,-6.9181,-6.8452,-6.8227,-6.8865,-6.7851,-6.7288,-6.7926,0.0,0.0,-6.4717,-6.4885,-6.3834,-6.0942,-6.0567,-6.0116,-5.9328,-5.8014,-5.8314,-6.0417,-5.7507,-5.6361,-5.7037,-5.5723,-5.5197,-5.531,-5.1893,-5.2006,0.0,0.0,0.0,0.0,0.0,0.0,0.0,0.0,0.0,0.0,0.0,0.0,0.0,0.0,0.0,-6.6959,-7.0809,-7.4625,-7.8685,-7.9837,-8.1137,-8.3626,-8.4926,-8.5855,-8.6486,-8.749,-8.8084,-8.8084,-8.8084,-8.8084,-8.8084,-8.8233,0.0,-8.8307,-8.8641,-8.876,-8.8727,-8.9616,-8.9989,-8.9968,0.0,0.0,-8.9968,-8.9968,-8.9705,-8.9217,-8.9067,-8.9104,-8.9217,-8.9067,-8.8616,-8.8053,-8.8053,-8.7114,-8.5762,-8.5612,-8.5124,-8.4523,-8.4373,-8.4335,-8.4185,-8.3322,-8.2481,-8.1818,-8.1644,-8.1193,0.0,-8.028,-7.9529,-7.8891,-7.9079,-7.799,-7.7164,-7.8328,-7.7089,-7.5737,-7.615,-7.446,-7.3108,-7.3822,-7.3371,-7.2583,-7.1644,-7.093,-6.9992,-6.8452,-6.8114,-6.7814,-6.7326,-6.8114,-6.8565,-6.8039,-6.7288,-6.6671,-6.6333,-6.3984,-6.2257,-6.1618,-6.0304,-5.9478,-5.929,-5.9666,-5.9778,-5.9553,-5.8915,-5.8351,-5.7863,-5.8915,-6.0116,-6.1318,-5.7338,-5.6512,0.0,0.0,0.0,0.0,0.0,0.0,0.0,0.0,0.0,0.0,0.0,-5.5912,-5.8772,0.0,-6.6202,-7.0289,-7.3001,-7.575,-7.9019,-7.9837,-8.1025,-8.3477,-8.4518,-8.5149,-8.5558,-8.6338,-8.7007,-8.7415,-8.7452,-8.7638,-8.8084,-8.8493,-8.8678,-8.8678,-8.9181,-8.9336,-8.9138,-8.9668,-8.9814,-8.9592,-9.0043,-9.0005,-8.9592,-8.9592,-8.9367,-8.8992,-8.8579,-8.8616,-8.8954,-8.8579,-8.7903,-8.7114,-8.6701,-8.6063,-8.5274,-8.4861,-8.4448,-8.411,-8.411,-8.411,-8.3885,-8.2594,-8.1918,-8.1543,-8.1306,-8.063,-7.9992,-8.0318,-7.9191,-7.8065,-7.8891,-7.7877,-7.6938,-7.8215,-7.7539,-7.6413,-7.5624,-7.4122,-7.3033,-7.3446,-7.2883,-7.232,-7.232,-7.1306,-6.9917,-6.8264,-6.8002,-6.7851,-6.7438,-6.8114,-6.8602,-6.8602,-6.7889,-6.7213,-6.6821,-6.3721,-6.1806,-6.1806,-6.0229,-5.9515,-5.9929,-6.0379,-6.0567,-6.0529,-6.098,-6.1205,-6.1205,-6.2444,-6.3496,-6.4247,-6.2181,-6.143,0.0,0.0,0.0,0.0,0.0,0.0,0.0,0.0,-5.3311,-5.5094,-5.8364,-6.1611,-6.4085,-6.6982,-6.9992,-7.3112,-7.4821,-7.6679,-7.9131,-7.9502,-8.0282,-8.2437,-8.3552,-8.422,-8.4369,-8.5112,-8.5855,-8.6524,-8.6709,-8.7044,-8.7601,-8.8381,-8.8858,-8.889,-8.9647,-8.9913,-8.9608,-8.9689,-8.9526,-8.8992,-8.8992,-8.8992,-8.8992,-8.8992,-8.8992,-8.8954,-8.8316,-8.8316,-8.8729,-8.809,-8.7189,-8.6213,-8.5612,-8.5274,-8.5011,-8.4335,-8.411,-8.411,-8.411,-8.3885,-8.3408,-8.2043,-8.1543,-8.1381,-8.1055,-8.0217,-7.9492,-8.0205,-7.859,-7.7013,-7.8478,-7.7727,-7.6863,-7.7877,-7.7877,-7.7051,-7.4911,-7.3521,-7.2695,-7.2883,-7.2245,-7.1982,-7.277,-7.1681,-7.0104,-6.8264,-6.7851,-6.7776,-6.7776,-6.7889,-6.8302,-6.9106,-6.864,-6.7851,-6.6896,-6.4172,-6.2369,-6.2069,-6.1093,-6.0755,-6.1318,-6.1618,-6.2031,-6.2519,-6.3195,-6.3871,-6.4547,-6.5336,-6.5749,-6.5749,-6.5899,-6.5448,-4.9187,-5.1231,-5.4463,-5.6246,-5.7212,-5.7732,0.0,0.0,-5.8549,-6.0964,-6.2911,-6.499,-6.7479,-6.941,-7.1478,-7.4041,-7.5193,-7.6679,-7.9131,-7.9502,-7.9874,-8.084,-8.2363,-8.3589,-8.4332,-8.5112,-8.5632,-8.5743,-8.6412,-8.6524,-8.5892,-8.6635,-8.7142,-8.7362,-8.7436,-8.7959,-8.8887,-8.8953,-8.8964,-8.8992,-8.8992,-8.8992,-8.8992,-8.8992,-8.8992,-8.8992,-8.8879,-8.8503,-8.794,-8.7828,-8.6889,-8.5462,-8.5575,-8.5049,-8.4223,-8.411,-8.411,-8.411,-8.411,-8.3145,-8.1855,-8.1681,-8.1269,-8.098,-8.1381,-8.0919,-8.0243,-8.038,-7.8553,-7.6826,-7.7764,-7.7314,-7.7013,-7.859,-7.7877,-7.6563,-7.5474,-7.3446,-7.2057,-7.277,-7.2245,-7.1982,-7.277,-7.217,-7.0743,-6.8377,-6.7401,-6.6934,-6.6934,-6.7551,-6.8302,-6.9106,-6.9106,-6.8452,-6.6934,-6.5749,-6.4472,-6.3045,-6.4134,-6.4547,-6.3909,-6.5318,-6.5786,-6.511,-6.5185,-6.5298,-6.5373,-6.6237,-6.6671,-6.6671,-6.7401,-6.6875,-5.3497,-5.5837,-5.9107,-6.1224,-6.2376,-6.3156,-6.3602,-6.3713,-6.4122,-6.5645,-6.7614,-6.9397,-7.0437,-7.1589,-7.3001,0.0,-7.5564,-7.6493,-7.8499,-7.8388,-7.8573,-7.9837,-8.0208,-8.1025,-8.2809,-8.3292,-8.3886,-8.4815,-8.5223,-8.5446,-8.5595,-8.6466,-8.7004,-8.7131,-8.7271,-8.7827,-8.8803,-8.8401,-8.8485,-8.8992,-8.8992,-8.8992,-8.8992,-8.8992,-8.8729,-8.8316,-8.8316,-8.7828,-8.7001,-8.6551,-8.6025,-8.5462,-8.4974,-8.4486,-8.411,-8.411,-8.411,-8.3998,-8.3333,-8.277,-8.2181,-8.1393,-8.1193,-8.1306,-8.1519,-8.1031,-8.028,-7.9792,-7.8177,-7.6826,-7.7652,-7.7239,-7.7013,-7.8703,-7.8215,-7.6901,-7.5098,-7.3484,-7.2357,-7.2245,-7.1944,-7.1982,-7.277,-7.2245,-7.0855,-6.8377,-6.7701,-6.7326,-6.6858,-6.7476,-6.8114,-6.849,-6.8919,-6.8565,-6.6934,-6.6483,-6.5561,-6.3909,-6.4434,-6.4434,-6.3608,-6.5185,-6.5861,-6.5523,-6.6462,-6.695,-6.695,-6.7776,-6.7964,-6.7476,-6.7363,-6.6913,-5.7398,-5.9887,-6.2784,-6.5213,-6.6462,-6.7317,-6.8134,-6.8134,-6.8184,-6.9001,-7.04,-7.1589,-7.1775,-7.2146,-7.2964,-7.4821,-7.5304,-7.6047,-7.7719,-7.7645,-7.7858,-7.9019,-7.8648,-7.9094,-8.11,-8.1731,-8.2474,-8.3626,-8.4146,-8.4585,-8.4949,-8.5887,-8.6564,-8.6876,-8.7042,-8.7708,-8.8823,-8.8373,-8.8428,-8.8992,-8.8766,-8.8804,-8.8992,-8.8992,-8.8541,-8.779,-8.779,-8.7189,-8.6138,-8.5612,-8.5349,-8.5188,-8.4411,-8.411,-8.411,-8.411,-8.381,-8.3296,-8.2631,-8.2106,-8.1719,-8.1168,-8.1269,-8.1594,-8.1594,-8.1031,-8.0193,-7.9079,-7.7727,-7.6751,-7.7389,-7.7239,-7.7276,-7.8478,-7.7952,-7.66,-7.4347,-7.3183,-7.2395,-7.1832,-7.1719,-7.1982,-7.277,-7.2057,-7.0592,-6.834,-6.7814,-6.7438,-6.6858,-6.7701,-6.8264,-6.8039,-6.8527,-6.8415,-6.7213,-6.6934,-6.6295,-6.5093,-6.5185,-6.496,-6.4134,-6.5674,-6.6537,-6.6537,-6.7701,-6.834,-6.834,-6.8919,-6.8677,-6.7664,-6.7084,-6.6934,-6.0184,-6.2822,-6.5287,-6.78,-6.8964,-6.9781,-7.0598,-7.019,-6.9855,-7.0635,-7.0264,-7.0004,-7.0784,-7.0301,-7.0623,-7.3075,-7.4142,-7.5193,-7.6902,-7.7793,-7.8276,-7.8313,-7.8313,-7.8611,0.0,-8.1025,-8.1991,-8.2066,-8.3514,-8.4131,-8.3496,-8.4232,-8.5197,-8.6294,-8.6331,-8.7202,-8.8992,-8.8954,-8.8992,-8.8992,-8.8203,-8.8241,-8.8992,-8.8992,-8.8541,-8.779,-8.779,-8.6851,-8.5349,-8.5575,-8.5049,-8.4148,-8.411,-8.411,-8.411,-8.411,-8.3044,-8.1754,-8.2219,-8.1018,-7.9454,-8.1043,-8.1594,-8.1594,-8.1594,-8.1031,-8.008,-7.8403,-7.7276,-7.66,-7.6638,-7.7239,-7.7877,-7.7915,-7.6675,-7.5023,-7.3296,-7.232,-7.1757,-7.1719,-7.1719,-7.1982,-7.277,-7.1606,-6.9954,-6.8264,-6.7326,-6.6821,-6.6821,-6.8189,-6.8844,-6.8077,-6.8039,-6.8039,-6.7964,-6.7251,-6.6783,-6.6746,-6.7438,-6.7513,-6.6746,-6.8227,-6.9069,-6.9069,-6.9144,-6.9144,-6.9144,-6.9181,-6.8377,-6.6858,-6.6821,-6.7213,-6.1893,-6.4605,-6.7057,-6.9484,-7.0735,-7.1552,-7.2369,-7.2332,-7.1923,-7.1044,-7.0264,-6.9595,-6.9335,-6.9076,-6.9732,-7.2209,-7.3733,-7.5193,-7.6855,-7.731,-7.7682,-7.8239,-7.731,0.0,0.0,0.0,0.0,-8.1917,-8.2474,-8.3008,-8.3376,-8.431,-8.5012,-8.5507,-8.5589,-8.6196,-8.7339,-8.6814,-8.6814,-8.7339,-8.7077,-8.7302,-8.795,-8.793,-8.8183,-8.8521,-8.7431,-8.6642,-8.6041,-8.5038,-8.4411,-8.411,-8.411,-8.411,-8.4035,-8.3472,-8.2545,-8.1644,-8.1794,-8.1381,-8.0856,-8.1444,-8.1594,-8.1482,-8.0956,-8.0205,-7.9079,-7.6863,-7.6413,-7.66,-7.6638,-7.6863,-7.7164,-7.7764,-7.6225,-7.431,-7.3146,-7.1832,-7.0893,-7.0893,-7.0893,-7.1006,-7.1268,-7.0367,-6.8903,-6.6687,-6.6575,-6.6821,-6.6821,-6.7739,-6.8114,-6.7288,-6.7176,-6.7176,-6.7176,-6.7438,-6.7589,-6.7589,-6.834,-6.8452,-6.7626,-6.864,-6.9181,-6.9181,-6.8677,-6.8415,-6.8415,-6.7851,-6.7025,-6.5936,-6.6537,-6.7213,-6.4048,-6.6699,-6.9026,-7.092,-7.1998,-7.2692,-7.2915,-7.2704,-7.1961,-7.0004,-6.8258,-6.6996,-6.6797,-6.6277,-6.6908,-6.9955,-7.2295,-7.4327,-7.5973,-7.6966,-7.7719,-7.8239,-7.7347,-7.7125,0.0,0.0,0.0,-8.0988,-8.1657,-8.2301,-8.2985,-8.3919,-8.4685,-8.5177,-8.5258,-8.5687,-8.6476,-8.5988,-8.5837,-8.61,-8.6578,-8.6739,-8.6674,-8.7141,-8.7507,-8.7619,-8.653,-8.5929,-8.5553,-8.455,-8.411,-8.4073,-8.366,-8.3547,-8.3585,-8.3021,-8.2308,-8.1594,-8.1594,-8.1407,-8.1219,-8.1519,-8.1594,-8.1407,-8.028,-7.9341,-7.8215,-7.6,-7.5962,-7.6638,-7.6675,-7.6863,-7.7126,-7.7389,-7.5549,-7.3521,-7.2658,-7.1419,-7.048,-7.048,-7.048,-7.048,-7.048,-6.9316,-6.7701,-6.5786,-6.5974,-6.6349,-6.6349,-6.7063,-6.7251,-6.6425,-6.6349,-6.6462,-6.6783,-6.7251,-6.7814,-6.8377,-6.8903,-6.8956,-6.8452,-6.8919,-6.9069,-6.879,-6.8264,-6.7851,-6.7551,-6.7046,-6.6349,-6.5523,-6.6687,-6.7664,-6.6611,-6.9224,-7.1292,-7.2072,-7.2804,-7.3138,-7.2321,-7.1441,-7.0078,-6.7577,-6.4493,-6.245,0.0,0.0,-6.2413,-6.6537,-6.9955,-7.2692,-7.4301,-7.6642,-7.8239,0.0,0.0,0.0,0.0,0.0,0.0,-7.9428,0.0,-8.2061,-8.2379,-8.3153,-8.4114,-8.521,-8.5237,-8.5612,-8.6363,-8.6363,-8.5988,-8.5274,-8.6605,-8.6503,-8.5285,-8.6642,-8.6465,-8.5097,-8.5097,-8.4673,-8.396,-8.3922,-8.3922,-8.3847,-8.277,-8.2545,-8.2808,-8.2732,-8.227,-8.1594,-8.1594,-8.1106,-8.0581,-8.1294,-8.1557,-8.1219,-7.9567,-7.8478,-7.7464,-7.5812,-7.5962,-7.66,-7.6638,-7.7239,-7.7614,-7.6713,-7.461,-7.262,-7.1832,-7.1006,-7.0442,-7.0442,-7.0442,-7.0405,-7.033,-6.8361,-6.6462,-6.5598,-6.5448,-6.5448,-6.5486,-6.6199,-6.6425,-6.5598,-6.5448,-6.5786,-6.6671,-6.6783,-6.7476,-6.9031,-6.9181,-6.9181,-6.9181,-6.9144,-6.879,-6.8002,-6.7926,-6.7513,-6.6746,-6.6746,-6.6312,-6.5561,-6.7251,-6.849,-6.9261,-7.1775,-7.3558,-7.3187,-7.2804,-7.2283,-7.1441,-7.0115,-6.8073,-6.4419,-6.1521,-5.9515,0.0,0.0,0.0,-6.4768,-6.8729,0.0,-7.3447,-7.5851,0.0,-7.7412,0.0,-7.7608,-7.8239,-7.7756,0.0,0.0,-8.0431,-8.1428,-8.2341,-8.3153,-8.3852,-8.4411,-8.4411,-8.4486,-8.4711,-8.4711,-8.4598,-8.4411,-8.4775,-8.4722,-8.4406,-8.4786,-8.4084,-8.2553,-8.2542,-8.2444,-8.2195,-8.1832,-8.1618,-8.1656,-8.1757,-8.2233,-8.2732,-8.212,-8.1782,-8.1594,-8.1594,-8.1482,-8.1219,-8.0806,-8.0693,-8.0393,-7.8703,-7.7614,-7.66,-7.4948,-7.5511,-7.6488,-7.5887,-7.6375,-7.6638,-7.5173,-7.3371,-7.1794,-7.0968,-7.0142,-6.9519,-6.9519,-6.9519,-6.9166,-6.7926,-6.7234,-6.6295,-6.481,-6.4585,-6.481,-6.5411,-6.5674,-6.5749,-6.5523,-6.496,-6.4923,-6.5749,-6.6425,-6.7213,-6.8227,-6.8844,-6.9181,-6.9181,-6.864,-6.8227,-6.8002,-6.6762,-6.6049,-6.5824,-6.5824,-6.5711,-6.5561,-6.783,-6.9353,-7.1441,-7.3261,-7.4413,-7.3595,-7.2804,-7.1689,-6.9769,-6.7776,-6.5199,-6.1113,-5.7435,-5.502,-5.5317,-5.5429,0.0,0.0,0.0,0.0,-7.2035,-7.5044,-7.7115,0.0,-7.7412,0.0,-7.8239,-7.7895,-7.8128,0.0,-8.0245,-8.1205,-8.2341,-8.3153,-8.3777,-8.411,-8.411,-8.3922,-8.3547,-8.3423,-8.3423,-8.3547,-8.3171,-8.3183,-8.3532,-8.292,-8.2256,-8.1604,0.0,-8.1606,-8.1594,-8.1269,-8.1156,-8.1193,-8.1482,-8.1895,-8.2233,-8.1782,-8.1594,-8.1557,-8.1181,-8.1069,-8.0994,-8.0543,-8.013,-7.9529,-7.7839,-7.6751,-7.5812,-7.4573,-7.5361,-7.6413,-7.5624,-7.6037,-7.6375,-7.5023,-7.3183,-7.1606,-7.1118,-7.0067,-6.9181,-6.9181,-6.9181,-6.8806,-6.7551,-6.7046,-6.637,-6.5035,-6.451,-6.4434,-6.4923,-6.496,-6.496,-6.496,-6.4547,-6.4622,-6.5448,-6.5936,-6.6575,-6.7401,-6.7889,-6.8152,-6.8152,-6.7701,-6.7288,-6.6913,-6.5974,-6.5336,-6.496,-6.5336,-6.5711,-6.6124,-6.8602,-7.0217,-7.3298,-7.4227,-7.4524,-7.3632,-7.2655,-7.0958,-6.7577,-6.4716,-6.1596,-5.7398,-5.2754,-4.993,-5.1491,-5.1379,-5.2902,-5.8512,0.0,-6.7688,-7.0227,-7.4153,-7.6817,-7.6929,-7.7719,-7.8276,-7.8276,-7.8276,-7.8713,-7.9605,-8.0348,-8.1196,-8.2192,-8.3004,-8.3553,-8.3772,-8.3772,-8.3397,-8.262,-8.2484,-8.2446,-8.2507,-8.197,-8.2007,-8.2507,-8.1393,-8.1118,-8.1444,0.0,0.0,-8.1256,-8.1256,-8.1256,-8.1256,-8.1256,-8.1407,-8.1594,-8.1594,-8.1594,-8.1482,-8.0806,-8.0393,-8.0205,-8.0205,-7.9642,-7.8666,-7.7089,-7.6037,-7.5249,-7.4573,-7.5436,-7.6413,-7.5624,-7.6037,-7.6413,-7.5324,-7.3409,-7.1794,-7.1606,-7.0308,-6.9181,-6.9181,-6.9181,-6.8919,-6.8152,-6.7401,-6.6612,-6.5636,-6.4923,-6.4397,-6.4304,-6.4284,-6.4284,-6.4284,-6.4284,-6.4585,-6.5298,-6.5448,-6.5824,-6.6596,-6.6746,-6.6821,-6.6821,-6.6708,-6.6274,-6.5523,-6.5523,-6.5223,-6.4642,-6.5561,-6.6425,-6.7347,-6.9729,-7.1156,-7.5304,-7.549,-7.523,-7.377,-7.1738,-6.91,-6.5162,-6.1298,0.0,0.0,-4.8593,-4.6401,-4.7367,-4.8519,-5.1008,-5.6097,-6.1038,-6.5325,-6.8506,-7.2444,-7.5267,0.0,-7.7347,-7.8276,-7.8276,-7.8276,0.0,0.0,0.0,-8.1084,-8.1398,-8.2291,-8.2537,-8.2045,-8.2045,-8.197,-8.182,-8.2209,-8.1995,-8.1168,-8.192,-8.1883,-8.1168,-8.1381,-8.1144,-8.0581,0.0,0.0,-7.9529,-7.9529,-7.9529,-7.9529,-7.9529,-8.0393,-8.1594,-8.1594,-8.1594,-8.1594,-8.1444,-8.0468,-7.9341,-7.9341,-7.8778,-7.7915,-7.6976,-7.6075,-7.5361,-7.5211,-7.5887,-7.6413,-7.5624,-7.6037,-7.6112,-7.3859,-7.2996,-7.232,-7.1006,-6.9917,-6.9181,-6.9181,-6.9181,-6.8919,-6.8152,-6.7889,-6.7288,-6.5749,-6.5373,-6.5035,-6.4397,-6.4284,-6.4284,-6.4284,-6.4284,-6.4359,-6.451,-6.511,-6.5561,-6.5711,-6.6387,-6.6821,-6.6821,-6.6124,-6.5636,-6.5523,-6.5523,-6.5786,-6.637,-6.7851,-6.9015,-6.9879,-7.1644,-7.2207,-7.6344,-7.6159,-7.5416,-7.3807,-7.1218,-6.7887,-6.3379,0.0,0.0,0.0,-4.5918,-4.3615,-4.4432,-4.5547,0.0,-5.294,-5.7881,-6.2339,-6.6054,-7.0846,0.0,-7.5081,-7.7013,-7.8276,0.0,-7.8359,0.0,0.0,0.0,0.0,-8.2478,-8.265,-8.2343,-8.1632,-8.1181,-8.0956,-8.0956,-8.0794,-8.0656,-8.0593,-8.0656,-8.0656,-8.0593,-8.0393,-8.0092,-7.9717,-7.9717,0.0,-7.9116,-7.9116,-7.9116,-7.9154,-7.9604,-8.028,-8.1031,-8.1444,-8.1594,-8.1557,-8.1106,-8.043,-7.9679,-7.9266,-7.8253,-7.7164,-7.6751,-7.5774,-7.476,-7.476,-7.5699,-7.6375,-7.5098,-7.5737,-7.6187,-7.4085,-7.2921,-7.1944,-7.0743,-6.9842,-6.9181,-6.9181,-6.9181,-6.9069,-6.8715,-6.8264,-6.7739,-6.6913,-6.6425,-6.5861,-6.5035,-6.4923,-6.4772,-6.4342,-6.4284,-6.4284,-6.4284,-6.466,-6.4885,-6.4885,-6.5261,-6.5506,-6.5506,-6.5486,-6.5711,-6.6162,-6.6575,-6.7213,-6.8039,-6.9278,-7.033,-7.1156,-7.1907,-7.2282,-7.6929,-7.6456,-7.5416,-7.3807,-7.0809,-6.6908,-6.1819,-5.6692,0.0,-4.7738,-4.3652,-4.1089,-4.2092,-4.2797,-4.4804,0.0,-5.4314,-5.8884,-6.3134,-6.8729,-7.2852,0.0,-7.653,0.0,-7.8332,0.0,0.0,0.0,0.0,0.0,-8.3501,-8.2755,-8.2007,-8.1369,-8.0543,-8.013,-8.013,-7.9679,-7.9792,-8.0468,-8.0017,-8.0092,-8.0618,-7.9942,-7.9642,-7.9642,-7.9642,0.0,0.0,-7.9379,-7.9266,-7.9191,-7.983,-8.0268,-8.0468,-8.1106,-8.1332,-8.1256,-8.0618,-8.0305,-8.0017,-7.9304,-7.8102,-7.6863,-7.6675,-7.5624,-7.446,-7.446,-7.5399,-7.6112,-7.4798,-7.5436,-7.6037,-7.4573,-7.2921,-7.1531,-7.0893,-6.9954,-6.9181,-6.9181,-6.9332,-6.9504,-6.9504,-6.894,-6.849,-6.8302,-6.7551,-6.6725,-6.5899,-6.5786,-6.5523,-6.4905,-6.451,-6.4284,-6.4284,-6.4434,-6.4547,-6.4547,-6.4735,-6.483,-6.483,-6.5598,-6.6349,-6.7046,-6.8039,-6.894,-6.9745,-7.0592,-7.1456,-7.2245,-7.2057,-7.2207,-7.7078,-7.6456,-7.5416,-7.3807,-7.0363,-6.5942,-6.0221,0.0,-4.9299,-4.5175,-4.1089,-3.8711,-4.0308,-4.0694,-4.2092,-4.6252,-5.045,-5.4834,-5.9664,-6.5287,-7.0103,-7.3149,0.0,0.0,0.0,0.0,0.0,0.0,0.0,0.0,0.0,-8.1444,-8.0606,-8.0505,-7.9679,-7.9204,-7.9229,-8.0168,-8.0656,-8.0755,-8.1657,-8.1883,-8.1482,-8.1407,-8.1369,-8.1369,0.0,0.0,0.0,-8.0305,-7.9792,-7.9116,-7.9191,-7.9679,-8.0418,-8.0468,-8.0505,-8.0493,-8.0455,-7.9867,-7.9229,-7.9154,-7.8515,-7.7652,-7.6901,-7.6037,-7.5286,-7.5286,-7.5399,-7.5474,-7.5324,-7.5399,-7.5286,-7.4423,-7.2921,-7.1681,-7.1606,-7.0308,-6.9181,-6.9181,-6.9842,-7.0367,-7.0367,-7.033,-6.9992,-6.9181,-6.8415,-6.7589,-6.6762,-6.6671,-6.6671,-6.6596,-6.5206,-6.4284,-6.4284,-6.496,-6.5411,-6.5411,-6.6124,-6.6596,-6.6596,-6.7326,-6.7814,-6.7889,-6.9466,-7.0668,-7.1471,-7.2282,-7.3108,-7.3972,-7.3146,-7.2432,-7.5331,-7.5341,-7.4561,-7.2444,-6.884,-6.4308,-5.8549,-5.2791,-4.7627,-4.4023,-4.0791,-3.8822,-3.9491,-4.0048,-4.1386,-4.4506,-4.8036,-5.2085,-5.7063,-6.2264,-6.6797,-7.0066,0.0,0.0,0.0,0.0,0.0,0.0,0.0,0.0,0.0,-8.1482,-8.1106,-8.1106,-8.0493,-8.0055,-7.988,-7.9792,-7.9792,-7.9767,-8.0205,-8.028,-8.0092,-8.0092,-8.0092,-8.0092,0.0,0.0,0.0,-7.9604,-7.9417,-7.9116,-7.9116,-7.9304,-7.9679,-8.0205,-8.0418,-8.0418,-8.0418,-8.0168,-7.9717,-7.8703,-7.814,-7.7727,-7.6901,-7.5737,-7.4685,-7.4685,-7.5023,-7.5286,-7.4798,-7.4685,-7.461,-7.4272,-7.2921,-7.1719,-7.1719,-7.0383,-6.9181,-6.9181,-6.9504,-6.9879,-7.0405,-7.048,-7.0367,-7.0029,-6.9729,-6.9015,-6.7701,-6.7513,-6.7326,-6.6858,-6.622,-6.5807,-6.5807,-6.6087,-6.65,-6.6988,-6.7326,-6.7739,-6.8227,-6.9053,-6.9729,-7.0217,-7.1343,-7.2357,-7.3221,-7.3521,-7.3596,-7.3409,-7.2583,-7.1757,-7.3112,-7.3855,-7.3632,-7.1155,-6.7441,-6.3007,-5.7546,-5.1825,-4.6773,-4.3466,-4.0643,-3.8822,-3.9045,-3.9417,-4.0457,-4.2872,-4.5621,-4.9113,-5.3831,-5.8512,0.0,0.0,0.0,0.0,0.0,0.0,0.0,0.0,0.0,0.0,0.0,-8.1294,-8.1357,-8.1357,-8.0681,-8.023,-7.9992,-7.9679,-7.9529,-7.9579,-7.9754,-7.983,-7.983,-7.983,-7.983,-7.983,0.0,0.0,0.0,-7.9492,-7.9341,-7.9116,-7.9116,-7.9116,-7.9191,-7.9792,-8.0017,-8.0017,-8.0017,-8.0017,-7.9754,-7.8365,-7.7727,-7.7389,-7.6525,-7.5436,-7.4498,-7.4272,-7.461,-7.4911,-7.4347,-7.4197,-7.4197,-7.4197,-7.2921,-7.1719,-7.1719,-7.0383,-6.9181,-6.9181,-6.9407,-6.9804,-7.0405,-7.0705,-7.0855,-7.0855,-7.0855,-7.0442,-6.9241,-6.9091,-6.8865,-6.8302,-6.8227,-6.7851,-6.6896,-6.7213,-6.7739,-6.834,-6.8828,-6.9353,-6.9895,-7.078,-7.1494,-7.2057,-7.2883,-7.3596,-7.4197,-7.3934,-7.3484,-7.2883,-7.1832,-7.0893,-7.071,-7.2146,-7.2815,-7.0326,-6.6624,-6.2339,-5.7435,-5.1825,-4.6773,-4.3466,-4.0197,-3.8154,-3.8934,-3.8451,-3.8748,-4.12,-4.2983,-4.5509,-4.967,-5.3794,0.0,0.0,0.0,0.0,0.0,0.0,0.0,0.0,0.0,0.0,0.0,-8.0643,-8.0819,-8.0819,-7.9679,-7.9129,-7.9117,-7.9955,-8.0543,-8.0793,-8.1306,-8.1557,-8.1557,-8.1557,-8.1557,0.0,0.0,0.0,0.0,-8.0418,-7.9867,-7.9116,-7.9116,-7.9116,-7.9116,-7.9116,-7.9116,-7.9116,-7.9116,-7.9116,-7.8966,-7.814,-7.7351,-7.6563,-7.5662,-7.5399,-7.5211,-7.4423,-7.4197,-7.4197,-7.4197,-7.4197,-7.4197,-7.4197,-7.2921,-7.1719,-7.1719,-7.0383,-6.9181,-6.9181,-6.9917,-7.048,-7.048,-7.1156,-7.1696,-7.1696,-7.1696,-7.1681,-7.1681,-7.1681,-7.1681,-7.1644,-7.1644,-7.033,-6.7084,-6.8264,-6.9181,-6.9181,-7.0721,-7.1681,-7.1681,-7.247,-7.2883,-7.2883,-7.3747,-7.4197,-7.4197,-7.3334,-7.2921,-7.2845,-7.1268,-7.0067,-6.6364,-6.8357,-6.9323,-6.6314,-6.3282,-5.9664,-5.4203,-4.9373,-4.5287,-4.2537,-4.0234,-3.8785,-3.9045,-3.8897,-3.9342,-4.1274,-4.25,-4.4804,0.0,0.0,0.0,0.0,0.0,0.0,0.0,0.0,0.0,0.0,0.0,0.0,0.0,-7.9567,-8.013,-8.1319,-8.1007,-8.0556,-7.9992,-7.9679,-7.9567,-7.9654,-7.983,-7.9905,-7.9905,-7.9905,0.0,0.0,0.0,0.0,0.0,-7.9492,-7.9341,-7.9116,-7.9116,-7.9116,-7.9116,-7.9116,-7.9116,-7.9116,-7.9116,-7.9116,-7.8891,-7.7502,-7.6901,-7.6413,-7.5023,-7.4573,-7.4535,-7.4272,-7.4197,-7.4197,-7.4197,-7.4197,-7.4047,-7.3446,-7.2507,-7.1569,-7.1006,-6.9992,-6.9181,-6.9181,-6.9407,-6.9804,-7.0405,-7.0705,-7.1081,-7.1644,-7.1786,-7.1836,-7.1901,-7.1987,-7.2071,-7.2174,-7.2174,-7.1635,-7.0239,-7.063,-7.1156,-7.1681,-7.2245,-7.2808,-7.3371,-7.3672,-7.3521,-7.2921,-7.3183,-7.3033,-7.2507,-7.2207,-7.1794,-7.1231,-7.0142,-6.9444,-6.1261,-6.3616,-6.4642,-6.1967,-5.9441,-5.6432,-5.1974,-4.7776,-4.4209,-4.2054,-4.0271,-3.9082,-3.9082,-3.9082,-3.964,-4.1311,-4.2277,-4.4432,0.0,0.0,0.0,0.0,0.0,0.0,0.0,0.0,0.0,0.0,0.0,0.0,0.0,0.0,-7.9567,-8.0618,-8.0668,-8.0443,-7.9905,-7.9379,-7.9116,-7.9116,-7.9116,-7.9116,-7.9116,-7.9116,0.0,0.0,0.0,0.0,0.0,-7.8515,-7.8666,-7.8666,-7.8966,-7.9116,-7.9116,-7.9116,-7.9116,-7.9116,-7.9116,-7.8891,-7.844,-7.7089,-7.6262,-7.5549,-7.4535,-7.4197,-7.4197,-7.4197,-7.4197,-7.4197,-7.4197,-7.3972,-7.3559,-7.3033,-7.2057,-7.1118,-7.0592,-6.9842,-6.9181,-6.9181,-6.9181,-6.9369,-6.9917,-7.0292,-7.0668,-7.1156,-7.1626,-7.1987,-7.2058,-7.2523,-7.285,-7.3003,-7.3288,-7.3383,-7.3106,-7.2612,-7.2536,-7.3018,-7.3312,-7.368,-7.4197,-7.3897,-7.3446,-7.2921,-7.262,-7.2207,-7.1719,-7.1419,-7.0818,-6.9992,-6.9444,-6.9181,0.0,-5.8215,-5.9255,-5.7658,-5.5466,-5.3051,-5.0525,-4.681,0.0,-4.1832,-4.0234,-3.912,-3.9194,-3.9194,-3.9751,-4.1497,-4.2463,-4.4432,0.0,0.0,0.0,0.0,0.0,0.0,0.0,0.0,0.0,0.0,0.0,0.0,0.0,0.0,-7.9041,-7.8928,-7.8928,-7.9004,-7.9116,-7.9116,-7.9116,-7.9116,-7.9116,-7.9116,-7.9116,-7.9041,0.0,0.0,0.0,0.0,0.0,-7.7502,-7.7802,-7.7877,-7.8628,-7.8966,-7.9004,-7.9004,-7.9041,-7.9079,-7.9041,-7.8515,-7.7727,-7.6826,-7.5474,-7.4197,-7.4197,-7.4197,-7.4197,-7.4197,-7.4197,-7.4197,-7.4197,-7.3596,-7.2958,-7.2845,-7.1681,-7.0555,-7.0442,-6.9766,-6.9181,-6.9181,-6.9181,-6.9181,-6.9181,-6.9879,-7.0427,-7.0502,-7.132,-7.202,-7.2241,-7.3137,-7.3834,-7.401,-7.4771,-7.5268,-7.5344,-7.422,-7.3481,-7.3317,-7.3942,-7.4245,-7.4047,-7.3258,-7.2808,-7.2733,-7.1944,-7.1531,-7.1531,-7.078,-6.9992,-6.9181,-6.9181,-6.9181,-4.9373,0.0,-5.6766,-5.5094,-5.3794,-5.1899,0.0,-4.5138,-4.2612,-4.1029,-3.9825,-3.9305,-3.9974,-4.0085,-4.0828,-4.3058,-4.4135,-4.6364,0.0,0.0,0.0,0.0,0.0,0.0,0.0,0.0,0.0,0.0,0.0,0.0,0.0,0.0,-7.8527,-7.7239,-7.7239,-7.7877,-7.9079,-7.9116,-7.9116,-7.9116,-7.9116,-7.9116,-7.9079,-7.844,0.0,0.0,0.0,0.0,-7.6638,-7.6826,-7.6901,-7.6938,-7.7126,-7.7577,-7.8177,-7.8177,-7.8553,-7.9004,-7.8403,-7.8065,-7.7652,-7.615,-7.5023,-7.4197,-7.4197,-7.4197,-7.4197,-7.4197,-7.4197,-7.4197,-7.4197,-7.4047,-7.3559,-7.2282,-7.1681,-7.1081,-6.9804,-6.9332,-6.9181,-6.9181,-6.9181,-6.9181,-6.9181,-6.9456,-6.9901,-7.0604,-7.1118,-7.1693,-7.2597,-7.311,-7.3635,-7.4459,-7.4704,-7.5088,-7.5703,-7.5157,-7.4391,-7.3508,-7.3556,-7.3253,-7.232,-7.2094,-7.1681,-7.1081,-7.0217,-6.9782,-6.9782,-6.9594,-6.9407,-6.9181,-6.9181,-6.9181,-4.6698,-4.9968,-5.2679,-5.1788,-5.0673,-4.9113,-4.655,-4.3726,-4.146,-4.0583,-3.9714,-3.938,-4.0248,-4.0977,-4.2166,-4.4246,-4.6252,0.0,0.0,0.0,0.0,0.0,0.0,0.0,0.0,0.0,0.0,0.0,0.0,0.0,0.0,0.0,-7.7563,-7.6638,-7.5928,-7.6303,-7.7952,-7.7952,-7.7952,-7.7952,-7.799,-7.799,-7.799,-7.7915,0.0,0.0,0.0,0.0,-7.6037,-7.6037,-7.6037,-7.6075,-7.645,-7.6901,-7.7314,-7.7314,-7.7577,-7.7915,-7.7464,-7.7051,-7.6525,-7.5249,-7.4535,-7.4197,-7.4197,-7.4197,-7.4197,-7.4197,-7.4197,-7.4197,-7.4197,-7.3897,-7.3371,-7.247,-7.1681,-7.0893,-6.9992,-6.9482,-6.9181,-6.9181,-6.9181,-6.9181,-6.9181,-6.9332,-6.9669,-7.0264,-7.063,-7.1104,-7.1819,-7.2476,-7.3042,-7.3652,-7.4089,-7.4513,-7.4938,-7.4731,-7.4331,-7.3801,-7.3288,-7.2712,-7.2008,-7.161,-7.1044,-7.0198,-6.9724,-6.946,-6.946,-6.946,-6.946,-6.946,-6.946,-6.9896,-4.5992,-4.7664,-4.8927,-4.9039,-4.8147,-4.6958,-4.5918,-4.3206,-4.0903,-4.0791,-4.0085,-3.9788,-4.0754,-4.2277,-4.3986,-4.5918,0.0,0.0,0.0,0.0,0.0,0.0,0.0,0.0,0.0,0.0,0.0,0.0,0.0,0.0,0.0,0.0,0.0,-7.6262,-7.4905,-7.483,-7.6225,-7.6488,-7.66,-7.66,-7.6675,-7.6675,-7.6713,-7.7239,-7.7164,0.0,0.0,0.0,-7.5399,-7.5399,-7.5324,-7.5286,-7.5962,-7.63,-7.6413,-7.6413,-7.6488,-7.66,-7.645,-7.5887,-7.5098,-7.4423,-7.4197,-7.4197,-7.4197,-7.4197,-7.4197,-7.4197,-7.4197,-7.4197,-7.4197,-7.3672,-7.3071,-7.2921,-7.1757,-7.063,-7.0517,-6.9842,-6.9181,-6.9181,-6.9203,-6.9225,-6.9246,-6.9419,-6.9661,-6.9872,-7.0213,-7.0555,-7.0821,-7.166,-7.2336,-7.2557,-7.3264,-7.3767,-7.3883,-7.3709,-7.3651,-7.3817,-7.3008,-7.2354,-7.2016,-7.1333,-7.0612,-6.9872,-6.9872,-6.9872,-6.9872,-7.0023,-7.0061,-7.0061,-7.0346,-7.1257,-4.5844,-4.7664,-4.9076,-4.9745,-5.0302,-5.0079,-4.785,-4.5324,-4.3243,-4.2575,-4.1757,-4.1683,-4.3169,-4.4804,-4.6921,0.0,0.0,0.0,0.0,0.0,0.0,0.0,0.0,0.0,0.0,0.0,0.0,0.0,0.0,0.0,0.0,0.0,0.0,-7.461,-7.4324,-7.4324,-7.4573,-7.6,-7.6675,-7.66,-7.66,-7.6638,-7.66,-7.6037,-7.6075,0.0,0.0,-7.5511,-7.5399,-7.5399,-7.4986,-7.4423,-7.4535,-7.4986,-7.5587,-7.5587,-7.6037,-7.66,-7.5849,-7.5061,-7.4347,-7.4235,-7.4197,-7.4197,-7.4197,-7.4197,-7.4197,-7.4197,-7.4197,-7.4197,-7.4197,-7.4122,-7.3822,-7.3071,-7.2207,-7.1343,-7.063,-6.9842,-6.9181,-6.9181,-6.9289,-6.9395,-6.944,-6.97,-6.9983,-7.0247,-7.0562,-7.0815,-7.1043,-7.1258,-7.1688,-7.2518,-7.2723,-7.3109,-7.3844,-7.3168,-7.2698,-7.2649,-7.2289,-7.1666,-7.0658,-7.0489,-7.0336,-7.0238,-7.0238,-7.0238,-7.0238,-7.0964,-7.1307,-7.1345,-7.2775,-7.3594,-4.5287,-4.733,-4.9113,-4.993,-5.0785,-5.0971,-4.9373,-4.7107,-4.5249,-4.4878,-4.4172,-4.4209,-4.629,0.0,-5.0785,-5.5874,0.0,0.0,0.0,0.0,0.0,0.0,0.0,0.0,0.0,0.0,0.0,0.0,0.0,0.0,0.0,0.0,0.0,0.0,-7.4197,-7.4197,-7.4197,-7.4948,-7.5324,-7.5324,-7.5324,-7.5324,-7.5324,-7.5361,-7.5587,-7.5924,0.0,-7.5399,-7.5361,-7.4911,-7.4535,-7.4197,-7.4197,-7.4423,-7.476,-7.476,-7.5023,-7.5286,-7.4873,-7.4498,-7.4197,-7.4197,-7.4197,-7.4197,-7.4197,-7.4197,-7.4197,-7.4197,-7.4197,-7.4197,-7.4197,-7.4197,-7.4122,-7.3709,-7.262,-7.1606,-7.1231,-7.0142,-6.9181,-6.9181,-6.9353,-6.9481,-6.9641,-6.9965,-7.0298,-7.0563,-7.0805,-7.103,-7.119,-7.1236,-7.1424,-7.1833,-7.191,-7.2065,-7.2452,-7.2081,-7.1781,-7.1647,-7.1503,-7.1185,-7.0661,-7.0622,-7.0622,-7.0622,-7.0622,-7.0853,-7.1313,-7.1735,-7.2402,-7.3285,-7.4067,-7.518,-4.4841,-4.6661,-4.8407,-4.9819,-5.1082,-5.1788,-5.1119,-4.941,-4.7924,-4.7924,-4.7441,-4.7553,0.0,-5.1602,0.0,0.0,0.0,0.0,0.0,0.0,0.0,0.0,0.0,0.0,0.0,0.0,0.0,0.0,0.0,0.0,0.0,0.0,0.0,0.0,-7.4197,-7.4197,-7.4197,-7.4197,-7.4197,-7.4197,-7.4197,-7.4197,-7.4235,-7.4836,-7.5211,-7.5399,-7.5399,-7.5399,-7.5361,-7.4723,-7.4385,-7.4197,-7.4197,-7.4197,-7.4197,-7.4197,-7.4197,-7.4197,-7.4197,-7.4197,-7.4197,-7.4197,-7.4197,-7.4197,-7.4197,-7.4197,-7.4197,-7.4197,-7.4197,-7.4197,-7.4197,-7.4197,-7.4197,-7.4197,-7.3221,-7.2245,-7.2019,-7.0855,-6.9772,-6.9606,-6.9591,-6.97,-6.991,-7.0247,-7.057,-7.0821,-7.1017,-7.1166,-7.128,-7.1291,-7.1291,-7.1291,-7.1291,-7.1291,-7.1291,-7.1485,-7.1468,-7.1081,-7.1223,-7.1197,-7.1005,-7.1005,-7.1005,-7.1005,-7.1197,-7.1621,-7.2315,-7.2893,-7.3831,-7.5102,-7.5719,-7.6913,-4.4841,-4.5435,-4.629,-4.9336,-5.1899,-5.3608,-5.3571,-5.2828,-5.2159,-5.2159,-5.2122,-5.2122,-5.2308,-5.554,0.0,0.0,0.0,0.0,0.0,0.0,0.0,0.0,0.0,0.0,0.0,0.0,0.0,0.0,0.0,0.0,0.0,0.0,0.0,0.0,0.0,-7.4197,-7.4197,-7.4197,-7.4197,-7.4197,-7.4197,-7.4197,-7.4197,-7.4272,-7.4685,-7.5399,-7.5399,-7.5399,-7.5399,-7.5324,-7.4873,-7.4197,-7.4197,-7.4197,-7.4197,-7.4197,-7.4197,-7.4197,-7.4197,-7.4197,-7.4197,-7.4197,-7.4197,-7.4197,-7.4197,-7.4197,-7.4197,-7.4197,-7.4197,-7.4197,-7.4197,-7.4197,-7.4197,-7.4197,-7.4122,-7.3822,-7.2996,-7.2222,-7.1482,-7.0797,-7.0287,-7.0058,-7.0298,-7.0593,-7.0843,-7.1056,-7.1154,-7.1224,-7.128,-7.1291,-7.1291,-7.1291,-7.1291,-7.1291,-7.1291,-7.2026,-7.2181,-7.1319,-7.2043,-7.212,-7.1308,-7.1269,-7.1269,-7.1269,-7.2081,-7.2507,-7.2584,-7.4943,-7.6142,-7.6335,-7.8694,-7.9506,-4.4989,-4.5287,-4.5955,-4.8667,-5.1231,-5.346,-5.502,-5.5503,-5.5949,-5.6952,-5.7138,-5.7138,-5.7138,0.0,0.0,0.0,0.0,0.0,0.0,0.0,0.0,0.0,0.0,0.0,0.0,0.0,0.0,0.0,0.0,0.0,0.0,0.0,0.0,0.0,0.0,-7.2658,-7.2658,-7.2658,-7.2658,-7.2658,-7.3709,-7.4197,-7.4197,-7.4197,-7.4385,-7.4648,-7.4648,-7.4648,-7.4648,-7.4648,-7.446,-7.4272,-7.476,-7.4648,-7.4272,-7.476,-7.4648,-7.4197,-7.4197,-7.4197,-7.4197,-7.4197,-7.4197,-7.4197,-7.4197,-7.4197,-7.4197,-7.4197,-7.4197,-7.4197,-7.4197,-7.4197,-7.4197,-7.4197,-7.4197,-7.4122,-7.3784,-7.3229,-7.2536,-7.1817,-7.1313,-7.1095,-7.1413,-7.1654,-7.202,-7.2747,-7.2871,-7.3087,-7.3612,-7.3226,-7.3109,-7.3612,-7.3651,-7.3651,-7.3651,-7.4966,-7.516,-7.3767,-7.2993,-7.222,-7.133,-7.1291,-7.1562,-7.2104,-7.2413,-7.3109,-7.4154,-7.5662,-7.6939,-7.8061,-7.9531,-8.0034,-4.5584,-4.5472,-4.5881,-4.8296,-5.0562,-5.3088,-5.632,-5.7881,-5.9069,-6.0407,-6.089,-6.1001,-6.0784,-6.2656,0.0,0.0,0.0,0.0,0.0,0.0,0.0,0.0,0.0,0.0,0.0,0.0,0.0,0.0,0.0,0.0,0.0,0.0,0.0,0.0,0.0,-7.1719,-7.1719,-7.1719,-7.1719,-7.1719,-7.3108,-7.3784,-7.3784,-7.3784,-7.3934,-7.4197,-7.4197,-7.4197,-7.4197,-7.4197,-7.4197,-7.4272,-7.5098,-7.5061,-7.4648,-7.5211,-7.5061,-7.4535,-7.431,-7.4197,-7.4197,-7.4197,-7.4385,-7.4573,-7.4573,-7.476,-7.4911,-7.4648,-7.4573,-7.4535,-7.4272,-7.422,-7.4342,-7.4651,-7.4922,-7.5133,-7.5178,-7.4887,-7.4361,-7.3421,-7.2838,-7.2571,-7.258,-7.2727,-7.307,-7.3794,-7.3883,-7.4193,-7.5005,-7.4386,-7.4115,-7.4657,-7.4966,-7.5109,-7.5109,-7.6707,-7.6978,-7.5198,-7.427,-7.3303,-7.2181,-7.2104,-7.2413,-7.2993,-7.3264,-7.396,-7.5109,-7.6514,-7.7829,-7.9028,-7.984,-8.0072,-4.6735,-4.5918,-4.5881,-4.8333,-5.019,-5.2717,-5.7621,-6.0035,-6.1484,-6.2301,-6.3082,-6.3438,-6.2752,-6.3929,0.0,0.0,0.0,0.0,0.0,0.0,0.0,0.0,0.0,0.0,0.0,0.0,0.0,0.0,0.0,0.0,0.0,0.0,0.0,0.0,0.0,0.0,-7.1681,-7.1681,-7.1681,-7.1696,-7.247,-7.2883,-7.2883,-7.2921,-7.3371,-7.4197,-7.4197,-7.4197,-7.4197,-7.4197,-7.4197,-7.4272,-7.5098,-7.5399,-7.5399,-7.5399,-7.5399,-7.5249,-7.4498,-7.4197,-7.4197,-7.4197,-7.476,-7.5399,-7.5399,-7.5962,-7.645,-7.5624,-7.5399,-7.5211,-7.4423,-7.4327,-7.4651,-7.5576,-7.6517,-7.723,-7.732,-7.7468,-7.7189,-7.5695,-7.5009,-7.4462,-7.3819,-7.3792,-7.3852,-7.391,-7.3922,-7.4231,-7.5005,-7.4425,-7.396,-7.3922,-7.4657,-7.516,-7.516,-7.6746,-7.6978,-7.5225,-7.5933,-7.5662,-7.396,-7.3883,-7.3883,-7.3922,-7.4695,-7.5109,-7.5109,-7.7713,-7.8989,-7.9028,-7.984,-7.9763,-4.7961,-4.759,-4.7701,-5.0748,-5.32,-5.5837,-5.9589,-6.1744,-6.3788,-6.6884,-6.6905,-6.6267,-6.6089,-6.6075,0.0,0.0,0.0,0.0,0.0,0.0,0.0,0.0,0.0,0.0,0.0,0.0,0.0,0.0,0.0,0.0,0.0,0.0,0.0,0.0,0.0,0.0,-6.9932,-6.9932,-6.9932,-6.9932,-7.0157,-7.093,-7.2094,-7.3296,-7.3634,-7.3334,-7.3934,-7.4197,-7.4197,-7.4197,-7.4197,-7.4272,-7.5098,-7.5061,-7.461,-7.5173,-7.5023,-7.4535,-7.4272,-7.4573,-7.5023,-7.5023,-7.5624,-7.63,-7.6262,-7.645,-7.66,-7.6338,-7.6334,-7.6352,-7.6218,-7.6387,-7.6466,-7.6045,-7.7176,-7.8364,-7.8523,-7.871,-7.862,-7.7675,-7.703,-7.6403,-7.5707,-7.5627,-7.5651,-7.5662,-7.5662,-7.574,-7.5972,-7.6862,-7.7016,-7.5779,-7.6978,-7.7829,-7.7829,-7.9415,-7.9647,-7.7945,-7.8099,-7.6939,-7.4038,-7.3883,-7.4154,-7.4734,-7.4993,-7.5392,-7.6011,-7.7403,-7.8409,-7.9028,-7.9221,-7.9221,-4.8556,-4.9262,-5.0265,-5.2902,-5.5652,-5.8772,-6.271,-6.4382,-6.5845,-6.863,-6.8565,-6.7878,-6.7589,-6.7546,0.0,0.0,0.0,0.0,0.0,0.0,0.0,0.0,0.0,0.0,0.0,0.0,0.0,0.0,0.0,0.0,0.0,0.0,0.0,0.0,0.0,0.0,-6.9181,-6.9181,-6.9181,-6.9181,-6.9541,-7.0067,-7.0758,-7.2432,-7.3108,-7.2921,-7.3446,-7.3672,-7.3709,-7.4085,-7.4197,-7.4272,-7.5098,-7.5098,-7.4723,-7.5211,-7.5098,-7.4648,-7.431,-7.4535,-7.4986,-7.5286,-7.6,-7.6751,-7.7013,-7.7389,-7.7577,-7.7239,-7.7208,-7.7319,-7.7121,-7.7614,-7.8027,-7.7397,-7.818,-7.9225,-7.9748,-7.9977,-7.9876,-7.9152,-7.8742,-7.8168,-7.7082,-7.69,-7.69,-7.69,-7.7481,-7.779,-7.7481,-7.8332,-7.8602,-7.7558,-7.837,-7.9144,-7.9453,-8.073,-8.0923,-7.9569,-7.9183,-7.7906,-7.5508,-7.5082,-7.5121,-7.5624,-7.5624,-7.5856,-7.6397,-7.7248,-7.7983,-7.8486,-7.8486,-7.8486,-4.8816,-5.0896,-5.3162,-5.4983,-5.7992,-6.1685,-6.6351,-6.7428,-6.7651,-6.8444,0.0,-6.8558,-6.7964,0.0,0.0,0.0,0.0,0.0,0.0,0.0,0.0,0.0,0.0,0.0,0.0,0.0,0.0,0.0,0.0,0.0,0.0,0.0,0.0,0.0,0.0,0.0,-6.9181,-6.9181,-6.9181,0.0,-6.9992,-7.0029,-6.9369,-7.0968,-7.2132,-7.2883,-7.2996,-7.2958,-7.2958,-7.3747,-7.4047,-7.4047,-7.476,-7.5098,-7.5173,-7.5173,-7.5211,-7.5173,-7.446,-7.4272,-7.4423,-7.5173,-7.6037,-7.6938,-7.7689,-7.844,-7.8991,-7.8264,-7.8191,-7.8217,-7.7645,-7.8446,-7.9356,-7.9374,-7.9553,-7.9934,-8.0839,-8.1069,-8.095,-8.0249,-8.0125,-7.961,-7.8087,-7.7829,-7.7829,-7.7829,-7.9183,-7.9918,-7.9105,-7.9067,-7.9067,-7.9028,-7.8989,-7.9299,-8.0034,-8.0807,-8.0923,-8.015,-7.9415,-7.8602,-7.7751,-7.6862,-7.6397,-7.6397,-7.6397,-7.6397,-7.6397,-7.721,-7.7674,-7.7829,-7.7751,-7.779,-4.993,-5.2159,-5.4388,-5.7955,-6.1856,-6.5385,-6.7725,-6.8246,-6.8444,-6.9261,-6.912,-6.8987,0.0,0.0,0.0,0.0,0.0,0.0,0.0,0.0,0.0,0.0,0.0,0.0,0.0,0.0,0.0,0.0,0.0,0.0,0.0,0.0,0.0,0.0,0.0,-6.9181,-6.9181,-6.9181,-6.9181,0.0,-6.9369,-6.9729,-7.0255,-7.1268,-7.2132,-7.2921,-7.3634,-7.3521,-7.2921,-7.3108,-7.2808,-7.2245,-7.2432,-7.2883,-7.3446,-7.3446,-7.3859,-7.4423,-7.4272,-7.461,-7.5173,-7.5324,-7.6413,-7.7652,-7.7839,-7.8551,-7.9249,-7.918,-7.938,-7.963,-7.9685,-8.0119,-8.0586,-8.0793,-8.0868,-8.1003,-8.1296,-8.1388,-8.1363,-8.1221,-8.0654,-7.9854,-7.8873,-7.8718,-7.8718,-7.8718,-7.9569,-7.9918,-7.9105,-7.9569,-7.9685,-7.9067,-7.8989,-7.9067,-7.9221,-7.9415,-7.9453,-7.926,-7.9105,-7.8602,-7.7751,-7.6862,-7.6397,-7.6397,-7.6397,-7.6397,-7.6397,-7.6591,-7.7365,-7.868,-7.8022,-7.8409,-4.9707,-5.2865,-5.6283,-6.1558,-6.4791,-6.702,-6.8221,-6.853,-6.869,-6.9136,-6.9043,0.0,0.0,0.0,0.0,0.0,0.0,0.0,0.0,0.0,0.0,0.0,0.0,0.0,0.0,0.0,0.0,0.0,0.0,0.0,0.0,0.0,0.0,0.0,-6.9181,-6.9181,-6.9181,-6.9181,-6.9181,-6.9181,-6.9181,-6.9466,-6.9917,-7.0743,-7.1343,-7.1794,-7.2658,-7.277,-7.2395,-7.3183,-7.3033,-7.2282,-7.2282,-7.232,-7.2357,-7.277,-7.3183,-7.3634,-7.4085,-7.446,-7.4873,-7.5249,-7.6,-7.6826,-7.7652,-7.8322,-7.8888,-7.9426,-7.9891,-8.0277,-8.0573,-8.0866,-8.1161,-8.1347,-8.136,-8.1374,-8.1478,-8.1491,-8.1491,-8.1491,-8.1117,-8.0575,-7.9724,-7.9569,-7.9569,-7.9569,-8.0304,-8.0691,-8.0266,-8.0188,-8.0034,-7.9608,-7.9221,-7.8989,-7.8989,-7.8989,-7.9144,-7.9569,-7.9221,-7.8989,-7.8912,-7.7674,-7.6823,-7.6397,-7.6397,-7.6397,-7.6397,-7.6823,-7.7481,-7.837,-7.8332,-7.8796,-4.887,-5.3497,-5.8586,-6.4628,-6.6746,0.0,-6.8368,-6.865,-6.8721,-6.8744,0.0,0.0,0.0,0.0,0.0,0.0,0.0,0.0,0.0,0.0,0.0,0.0,0.0,0.0,0.0,0.0,0.0,0.0,0.0,0.0,0.0,0.0,-6.9181,-6.9181,-6.9181,-6.9181,-6.9181,-6.9181,-6.9181,-6.9181,-6.9181,-6.9181,-6.9219,-6.9954,-7.0367,-7.0555,-7.1494,-7.1832,-7.1832,-7.3371,-7.3409,-7.247,-7.247,-7.2094,-7.1606,-7.2395,-7.277,-7.2996,-7.3747,-7.4085,-7.4295,-7.4868,-7.5267,-7.5756,-7.7321,-7.8035,-7.8511,-7.9524,-8.0123,-8.0555,-8.0892,-8.1128,-8.1347,-8.1466,-8.1453,-8.1427,-8.1491,-8.1491,-8.1491,-8.1491,-8.1387,-8.1039,-8.0343,-8.0188,-8.0266,-8.042,-8.1039,-8.1491,-8.1491,-8.073,-8.0188,-8.0188,-7.9337,-7.8796,-7.8796,-7.8641,-7.895,-7.9918,-7.9376,-7.9376,-8.0188,-7.8873,-7.7674,-7.663,-7.6475,-7.6397,-7.6397,-7.7248,-7.779,-7.7945,-7.8796,-7.9299,-4.8062,-5.4724,-6.1432,0.0,-6.6849,-6.7729,0.0,0.0,-6.8884,0.0,0.0,0.0,0.0,0.0,0.0,0.0,0.0,0.0,0.0,0.0,0.0,0.0,0.0,0.0,0.0,0.0,0.0,0.0,0.0,0.0,0.0,-6.9181,-6.9181,-6.9181,-6.9181,-6.9181,-6.9181,-6.9181,-6.9181,-6.9181,-6.9181,-6.9181,-6.9181,-6.9294,-6.9804,-7.0592,-7.2094,-7.2357,-7.1794,-7.2695,-7.217,-7.0818,-7.0818,-7.0743,-7.0743,-7.1569,-7.232,-7.2921,-7.3033,-7.3628,-7.4305,-7.3775,-7.4617,-7.6025,-7.7079,-7.8028,-7.9013,-8.003,-8.0576,-8.0904,-8.1152,-8.1319,-8.14,-8.1478,-8.1491,-8.1491,-8.1491,-8.1491,-8.1491,-8.1491,-8.0885,-8.0343,-8.0227,-8.0188,-8.0459,-8.122,-8.1414,-8.1491,-8.1491,-8.073,-8.0188,-8.0188,-7.8796,-7.7867,-7.7867,-7.7171,-7.7442,-7.9067,-7.9067,-7.9376,-8.0188,-7.9995,-7.9144,-7.7558,-7.6784,-7.6397,-7.6397,-7.7248,-7.8099,-7.8834,-7.9647,-8.0459,-4.9233,-5.5751,-6.1433,0.0,-6.6545,-6.7658,-6.8076,0.0,0.0,0.0,0.0,0.0,0.0,0.0,0.0,0.0,0.0,0.0,0.0,0.0,0.0,0.0,0.0,0.0,0.0,0.0,0.0,0.0,0.0,0.0,-6.9181,-6.9181,-6.9181,-6.9181,-6.9181,-6.9181,-6.9181,-6.9181,-6.9181,-6.9181,-6.9181,-6.9181,-6.9181,-6.9181,-6.9407,-6.9879,-7.1531,-7.2019,-7.1794,-7.3108,-7.2921,-7.1794,-7.1343,-7.0893,-7.0592,-7.1419,-7.1644,-7.1681,-7.2583,-7.2981,-7.3081,-7.3347,-7.402,-7.5091,-7.6978,-7.8027,-7.88,-8.0277,-8.0898,-8.1176,-8.136,-8.1427,-8.1466,-8.1491,-8.1491,-8.1491,-8.1491,-8.1491,-8.1491,-8.1491,-8.1194,-8.0923,-8.0923,-8.0923,-8.1078,-8.1465,-8.1491,-8.131,-8.0846,-8.0459,-7.984,-7.8912,-7.8138,-7.7481,-7.7016,-7.663,-7.6939,-7.8177,-7.8718,-7.9376,-8.0188,-8.0188,-7.984,-7.9105,-7.779,-7.69,-7.6397,-7.7751,-7.8641,-7.9028,-8.0343,-8.1117,-4.9471,-5.4988,-5.9468,-6.2971,-6.5126,-6.6537,0.0,0.0,0.0,0.0,0.0,0.0,0.0,0.0,0.0,0.0,0.0,0.0,0.0,0.0,0.0,0.0,0.0,0.0,0.0,0.0,0.0,0.0,0.0,0.0,-6.8602,-6.8602,-6.8602,-6.8602,-6.8602,-6.8602,-6.8602,-6.8602,-6.8715,-6.8881,-6.8881,-6.8994,-6.9181,-6.9181,-6.9181,-6.9257,-7.078,-7.1531,-7.1832,-7.3258,-7.3484,-7.2808,-7.2019,-7.1231,-7.0555,-7.1156,-7.1028,-7.0712,-7.1958,-7.2284,-7.2271,-7.3098,-7.363,-7.4478,-7.7155,-7.813,-7.8676,-8.0493,-8.1181,-8.1347,-8.1466,-8.1491,-8.1491,-8.1491,-8.1491,-8.1491,-8.1491,-8.1491,-8.1491,-8.1491,-8.131,-8.1194,-8.1194,-8.1001,-8.0846,-8.0846,-8.0846,-8.0653,-7.9995,-7.9685,-7.9105,-7.7829,-7.7481,-7.7094,-7.6436,-7.6397,-7.6784,-7.7635,-7.8293,-7.9144,-8.015,-8.0188,-8.0188,-8.0188,-7.8989,-7.7906,-7.7055,-7.837,-7.9105,-7.9337,-8.0807,-8.1491,-4.728,-5.1269,-5.5417,-5.9588,-6.1911,0.0,0.0,0.0,0.0,0.0,0.0,0.0,0.0,0.0,0.0,0.0,0.0,0.0,0.0,0.0,0.0,0.0,0.0,0.0,0.0,0.0,0.0,0.0,0.0,0.0,-6.6934,-6.6934,-6.6934,-6.6934,-6.6934,-6.6934,-6.6934,-6.6934,-6.7288,-6.8077,-6.8077,-6.8452,-6.9181,-6.9181,-6.9181,-6.9257,-7.0179,-7.1006,-7.1794,-7.262,-7.2921,-7.2808,-7.2019,-7.1231,-7.0517,-7.0555,-7.0583,-7.0616,-7.0835,-7.161,-7.251,-7.2838,-7.3576,-7.4887,-7.7647,-7.8522,-7.8941,-8.0747,-8.1333,-8.1414,-8.1478,-8.1491,-8.1491,-8.1491,-8.1491,-8.1491,-8.1491,-8.1491,-8.1491,-8.1491,-8.0846,-8.0266,-8.0266,-7.9647,-7.9144,-7.9144,-7.9144,-7.9105,-7.9067,-7.8332,-7.779,-7.7713,-7.6939,-7.6436,-7.6397,-7.6397,-7.6784,-7.7635,-7.7751,-7.8486,-8.015,-8.0188,-8.0188,-8.0188,-8.0111,-7.9685,-7.8873,-7.895,-7.9376,-8.015,-8.1078,-8.1491,-4.3343,-4.7139,0.0,-5.474,-5.7753,-6.0397,0.0,0.0,0.0,0.0,0.0,0.0,0.0,0.0,0.0,0.0,0.0,0.0,0.0,0.0,0.0,0.0,0.0,0.0,0.0,0.0,0.0,0.0,0.0,0.0,-6.6821,-6.6821,-6.6821,-6.6821,-6.6821,-6.6821,-6.6821,-6.6821,-6.7176,-6.8002,-6.8002,-6.8415,-6.9181,-6.9181,-6.9181,-6.9219,-6.9519,-7.0442,-7.1734,-7.2583,-7.3221,-7.3596,-7.2245,-7.1531,-7.1231,-7.0705,-7.0234,-6.9988,-7.07,-7.1048,-7.1388,-7.2724,-7.351,-7.4497,-7.7807,-7.8825,-7.9237,-8.095,-8.144,-8.1466,-8.1491,-8.1491,-8.1491,-8.1491,-8.1491,-8.1491,-8.1491,-8.1491,-8.1491,-8.1491,-8.0807,-8.0188,-8.0188,-7.9531,-7.8989,-7.8989,-7.8989,-7.8796,-7.8254,-7.7906,-7.7481,-7.6939,-7.6591,-7.6397,-7.6397,-7.6397,-7.6514,-7.6862,-7.7403,-7.7983,-7.8564,-7.9647,-8.0188,-8.0188,-8.0188,-7.9801,-7.8989,-7.9531,-7.9918,-8.0227,-8.1078,-8.1491,-4.0626,-4.399,-4.7673,0.0,0.0,-5.6662,0.0,0.0,0.0,0.0,0.0,0.0,0.0,0.0,0.0,0.0,0.0,0.0,0.0,0.0,0.0,0.0,0.0,0.0,0.0,0.0,0.0,0.0,0.0,0.0,-6.5957,-6.5957,-6.6087,-6.6349,-6.6671,-6.6671,-6.6349,-6.6349,-6.6612,-6.7176,-6.7176,-6.7739,-6.8806,-6.8806,-6.8919,-6.9181,-6.9181,-7.0007,-7.1381,-7.217,-7.3018,-7.3703,-7.2334,-7.1814,-7.1745,-7.0658,-7.0032,-6.9815,-7.0554,-7.0688,-7.0861,-7.2783,-7.3678,-7.468,-7.7998,-7.9183,-7.9685,-8.1117,-8.1491,-8.1491,-8.1491,-8.1491,-8.1491,-8.1491,-8.1491,-8.1491,-8.1491,-8.1491,-8.1491,-8.1491,-8.0575,-7.9801,-7.9801,-7.8873,-7.8138,-7.8138,-7.8138,-7.7906,-7.7326,-7.7248,-7.7055,-7.6436,-7.6397,-7.6397,-7.6397,-7.6397,-7.6397,-7.6397,-7.6939,-7.7403,-7.7674,-7.8757,-7.9647,-8.0188,-8.0188,-8.0072,-7.984,-8.0072,-8.0343,-8.0653,-8.1257,-8.1541,0.0,0.0,0.0,0.0,0.0,0.0,0.0,0.0,0.0,0.0,0.0,0.0,0.0,0.0,0.0,0.0,0.0,0.0,0.0,0.0,0.0,0.0,0.0,0.0,0.0,0.0,0.0,0.0,0.0,-6.4284,-6.4284,-6.4284,-6.466,-6.5448,-6.6274,-6.6312,-6.5523,-6.5486,-6.5486,-6.5561,-6.5523,-6.6387,-6.8002,-6.8002,-6.8452,-6.9181,-6.9181,-6.9691,-7.0517,-7.1381,-7.2274,-7.3047,-7.2289,-7.2113,-7.2026,-7.0403,-6.9965,-7.0144,-7.0331,-7.0593,-7.1112,-7.3022,-7.4243,-7.5502,-7.8242,-7.9569,-8.0382,-8.1271,-8.1491,-8.1491,-8.1491,-8.1491,-8.1491,-8.1491,-8.1491,-8.1491,-8.1491,-8.1491,-8.1465,-8.1465,-8.015,-7.8989,-7.895,-7.7519,-7.6397,-7.6397,-7.6397,-7.6397,-7.6397,-7.6397,-7.6397,-7.6397,-7.6409,-7.6409,-7.6397,-7.6409,-7.6409,-7.6397,-7.6409,-7.6796,-7.7635,-7.7686,-7.846,-8.0111,-8.0188,-8.0614,-8.1465,-8.0653,-8.0691,-8.1504,-8.1577,-8.1596,-3.7749,0.0,0.0,0.0,0.0,0.0,0.0,0.0,0.0,0.0,0.0,0.0,0.0,0.0,0.0,0.0,0.0,0.0,0.0,0.0,0.0,0.0,0.0,0.0,0.0,0.0,0.0,0.0,-6.4284,-6.4284,-6.4284,-6.4284,-6.4397,-6.4622,-6.4868,-6.5148,-6.5523,-6.4923,-6.5223,-6.6425,-6.5786,-6.6387,-6.8002,-6.8002,-6.8452,-6.9181,-6.9181,-6.9397,-6.9821,-7.114,-7.2319,-7.3177,-7.2439,-7.2299,-7.2282,-7.075,-7.0271,-7.0486,-7.0637,-7.0846,-7.1429,-7.3906,-7.4842,-7.5678,-7.89,-8.0034,-8.0382,-8.1271,-8.1491,-8.1491,-8.1491,-8.1491,-8.1491,-8.1491,-8.1491,-8.1491,-8.1491,-8.1001,-8.0575,-8.0575,-7.9724,-7.8796,-7.8177,-7.7132,-7.6397,-7.6397,-7.6397,-7.6397,-7.6397,-7.6397,-7.6397,-7.6397,-7.6444,-7.6444,-7.6409,-7.6444,-7.6444,-7.6409,-7.6444,-7.6582,-7.6815,-7.7468,-7.8071,-7.8536,-7.9737,-8.0473,-8.0705,-8.0999,-8.1296,-8.1577,-8.1646,-8.1331,-3.8638,-3.9614,-4.0591,-4.0591,0.0,0.0,0.0,0.0,0.0,0.0,0.0,0.0,0.0,0.0,0.0,0.0,0.0,0.0,0.0,0.0,0.0,0.0,0.0,0.0,0.0,0.0,0.0,0.0,-6.4284,-6.4284,-6.4284,-6.4622,-6.481,-6.481,-6.5148,-6.5373,-6.5523,-6.5411,-6.5506,-6.5769,-6.5561,-6.6011,-6.6988,-6.7326,-6.7926,-6.8715,-6.9031,-6.9289,-6.957,-7.1249,-7.2356,-7.2919,-7.2624,-7.2637,-7.2677,-7.1098,-7.0637,-7.0791,-7.0914,-7.1017,-7.1475,-7.3423,-7.4773,-7.6088,-7.8448,-7.9918,-8.0846,-8.1336,-8.1491,-8.1491,-8.1491,-8.1491,-8.1491,-8.1491,-8.1491,-8.1387,-8.1039,-8.0575,-8.0188,-8.0188,-7.926,-7.8293,-7.779,-7.6978,-7.6397,-7.6397,-7.6397,-7.6397,-7.6397,-7.6397,-7.6409,-7.6432,-7.6466,-7.6477,-7.6477,-7.6477,-7.6477,-7.6477,-7.6477,-7.6499,-7.6521,-7.7056,-7.7542,-7.7891,-7.8861,-7.9714,-8.0412,-8.1186,-8.1612,-8.168,-8.1713,-8.1279,-4.1229,-4.168,-4.2117,-4.1929,-4.2468,0.0,-4.3806,-4.6486,0.0,0.0,0.0,0.0,0.0,0.0,0.0,0.0,0.0,0.0,0.0,0.0,0.0,0.0,0.0,0.0,0.0,0.0,-6.4284,-6.4284,-6.4284,-6.4284,-6.4284,-6.4998,-6.5373,-6.5373,-6.6124,-6.622,-6.5544,-6.6203,-6.5885,-6.4495,-6.5133,-6.5472,-6.5584,-6.6469,-6.7297,-6.8103,-6.8929,-6.9357,-6.9715,-7.1597,-7.2434,-7.2566,-7.2834,-7.3051,-7.307,-7.15,-7.0979,-7.1043,-7.1106,-7.1166,-7.1379,-7.2402,-7.427,-7.632,-7.7481,-7.9415,-8.1271,-8.1465,-8.1491,-8.1491,-8.1491,-8.1491,-8.1491,-8.1491,-8.1414,-8.1143,-8.0382,-8.0072,-7.9918,-7.9918,-7.8718,-7.7674,-7.7558,-7.69,-7.6397,-7.6397,-7.6409,-7.6409,-7.6409,-7.6421,-7.6444,-7.6488,-7.6499,-7.6521,-7.6612,-7.6531,-7.6521,-7.6612,-7.6531,-7.657,-7.6622,-7.6632,-7.6981,-7.7747,-7.7941,-7.8871,-8.0588,-8.1353,-8.1734,-8.1814,-8.1824,-8.1301,-4.3769,-4.3407,-4.2731,-4.1379,0.0,0.0,-4.0678,-4.2632,0.0,0.0,0.0,0.0,0.0,0.0,0.0,0.0,0.0,0.0,0.0,0.0,0.0,0.0,0.0,0.0,0.0,0.0,-6.4284,-6.4284,-6.4284,-6.4284,-6.4284,-6.4434,-6.451,-6.451,-6.4697,-6.5076,-6.5665,-6.5254,-6.5256,-6.5672,-6.5218,-6.5368,-6.6011,-6.6824,-6.7695,-6.8527,-6.9322,-6.9816,-7.0134,-7.2005,-7.2796,-7.283,-7.31,-7.336,-7.3343,-7.1796,-7.1236,-7.1247,-7.1258,-7.1269,-7.1551,-7.3148,-7.3999,-7.4928,-7.7867,-7.9105,-7.9763,-8.1117,-8.1491,-8.1491,-8.1491,-8.1491,-8.1491,-8.1491,-8.0962,-8.042,-8.0227,-7.9144,-7.8177,-7.8177,-7.7906,-7.7481,-7.6784,-7.6514,-7.6397,-7.6397,-7.6444,-7.6466,-7.6466,-7.651,-7.6581,-7.6591,-7.6632,-7.6652,-7.6612,-7.6642,-7.6652,-7.6612,-7.6642,-7.6672,-7.6682,-7.6671,-7.6767,-7.6923,-7.833,-7.9883,-8.1592,-8.1708,-8.1804,-8.1814,-8.1864,-8.1028,-4.7012,-4.6373,-4.5322,-4.367,0.0,0.0,0.0,0.0,0.0,0.0,0.0,0.0,0.0,0.0,0.0,0.0,0.0,0.0,0.0,0.0,0.0,0.0,0.0,0.0,0.0,0.0,-6.4284,-6.4284,-6.4284,-6.4284,-6.4284,-6.4284,-6.4284,-6.4284,-6.4284,-6.4552,-6.5161,-6.5238,-6.5385,-6.5565,-6.5665,-6.5694,-6.5732,-6.6988,-6.7787,-6.8282,-6.95,-7.0175,-7.0473,-7.2348,-7.3185,-7.3313,-7.3416,-7.3562,-7.3483,-7.1877,-7.1291,-7.1291,-7.1291,-7.1291,-7.1446,-7.2336,-7.3187,-7.4309,-7.6397,-7.8254,-7.9879,-8.1155,-8.1491,-8.1491,-8.1491,-8.1491,-8.1491,-8.1491,-8.0846,-8.0111,-7.9685,-7.8626,-7.7605,-7.7179,-7.7124,-7.6969,-7.6487,-7.6397,-7.6409,-7.6444,-7.6466,-7.6499,-7.656,-7.6591,-7.6622,-7.6652,-7.6682,-7.6691,-7.6652,-7.6691,-7.6691,-7.6652,-7.6691,-7.671,-7.669,-7.6708,-7.692,-7.7347,-7.9057,-8.0377,-8.1232,-8.1631,-8.1854,-8.1854,-8.1883,-8.1193,0.0,0.0,0.0,0.0,0.0,-4.3106,0.0,0.0,0.0,-4.412,0.0,0.0,0.0,0.0,0.0,0.0,0.0,0.0,0.0,0.0,0.0,0.0,0.0,0.0,0.0,0.0,-6.3571,-6.3571,-6.3571,-6.3741,-6.4061,-6.4081,-6.4176,-6.4384,-6.4403,-6.452,-6.467,-6.5457,-6.5648,-6.522,-6.6002,-6.6115,-6.5694,-6.7225,-6.799,-6.8235,-6.9766,-7.0532,-7.0796,-7.2437,-7.3343,-7.3716,-7.369,-7.3727,-7.362,-7.1938,-7.1291,-7.1291,-7.1291,-7.1291,-7.1291,-7.1291,-7.2568,-7.427,-7.4877,-7.7481,-8.0343,-8.1039,-8.1387,-8.1491,-8.1491,-8.1491,-8.1491,-8.1491,-8.073,-7.9801,-7.9117,-7.8236,-7.734,-7.6654,-7.6542,-7.6581,-7.6455,-7.6432,-7.6455,-7.6499,-7.651,-7.6581,-7.6622,-7.6632,-7.6623,-7.6701,-7.671,-7.6681,-7.6717,-7.669,-7.6681,-7.6678,-7.669,-7.669,-7.6678,-7.6687,-7.7192,-7.8241,-7.9639,-8.0494,-8.0844,-8.1543,-8.1815,-8.1659,-8.1815,-8.1349,0.0,0.0,0.0,0.0,-4.6148,0.0,0.0,0.0,-4.238,-4.3257,0.0,0.0,0.0,0.0,0.0,0.0,0.0,0.0,0.0,0.0,0.0,0.0,0.0,0.0,0.0,0.0,0.0,-6.1017,-6.1017,-6.1694,-6.3219,-6.3389,-6.3785,-6.4632,-6.4781,-6.4906,-6.5035,-6.5274,-6.5429,-6.5552,-6.578,-6.623,-6.6935,-6.7883,-6.8729,-6.9434,-7.0396,-7.0898,-7.1056,-7.2058,-7.3021,-7.379,-7.3837,-7.386,-7.3678,-7.1949,-7.1291,-7.1291,-7.1291,-7.1291,-7.1291,-7.1291,-7.2955,-7.4993,-7.5071,-7.7481,-8.0227,-8.0343,-8.0923,-8.1491,-8.1491,-8.1491,-8.1491,-8.1491,-8.0304,-7.9117,-7.9021,-7.7755,-7.6654,-7.6591,-7.6612,-7.6612,-7.6591,-7.6591,-7.6591,-7.6602,-7.6642,-7.6682,-7.6682,-7.6681,-7.6708,-7.6717,-7.6717,-7.6717,-7.6678,-7.6717,-7.6717,-7.6687,-7.6717,-7.6717,-7.6687,-7.6687,-7.7464,-7.9134,-7.9328,-8.0222,-8.1737,-8.1854,-8.1504,-8.0766,-8.1543,-8.0999,0.0,0.0,0.0,0.0,0.0,0.0,-4.3144,0.0,-4.2994,0.0,0.0,0.0,0.0,0.0,0.0,0.0,0.0,0.0,0.0,0.0,0.0,0.0,0.0,0.0,0.0,0.0,0.0,0.0,0.0,-5.9439,-6.1749,-6.2838,-6.3868,-6.4917,-6.5052,-6.5213,-6.5344,-6.5451,-6.564,-6.5846,-6.5978,-6.651,-6.7359,-6.8235,-6.9058,-6.9868,-7.0756,-7.1154,-7.1255,-7.214,-7.3052,-7.381,-7.333,-7.3458,-7.369,-7.1949,-7.1291,-7.1291,-7.1291,-7.1291,-7.1369,-7.1872,-7.3109,-7.4579,-7.5546,-7.7558,-7.9608,-8.0072,-8.0846,-8.1491,-8.1491,-8.1528,-8.1565,-8.1565,-8.0272,-7.9067,-7.905,-7.8152,-7.7175,-7.673,-7.707,-7.7244,-7.6739,-7.6614,-7.6622,-7.6652,-7.6682,-7.6701,-7.669,-7.6708,-7.6687,-7.6687,-7.6687,-7.6687,-7.6687,-7.6687,-7.6687,-7.6687,-7.6687,-7.6687,-7.6687,-7.7192,-7.7813,-7.8513,-7.9523,-8.0416,-8.1154,-8.1659,-8.1465,-8.061,-8.1504,-8.1504,-5.8896,0.0,0.0,0.0,0.0,0.0,0.0,0.0,0.0,0.0,0.0,0.0,0.0,0.0,0.0,0.0,0.0,0.0,0.0,0.0,0.0,0.0,0.0,0.0,0.0,0.0,0.0,0.0,0.0,0.0,-6.0423,-6.2294,-6.3747,-6.48,-6.5214,-6.5489,-6.5626,-6.5705,-6.5854,-6.6036,-6.6134,-6.6766,-6.7887,-6.8506,-6.9357,-7.0402,-7.1021,-7.1291,-7.133,-7.1988,-7.2916,-7.3806,-7.2684,-7.2916,-7.369,-7.1949,-7.1291,-7.133,-7.1562,-7.1794,-7.2104,-7.2761,-7.3535,-7.4463,-7.5662,-7.7442,-7.9105,-7.9724,-8.0653,-8.1504,-8.1528,-8.1565,-8.1612,-8.1624,-8.034,-7.9181,-7.9425,-7.8641,-7.7778,-7.7486,-7.7718,-7.7813,-7.7192,-7.6817,-7.6633,-7.671,-7.671,-7.669,-7.6717,-7.6687,-7.6687,-7.6687,-7.6687,-7.6687,-7.6687,-7.6687,-7.6687,-7.6687,-7.6687,-7.6687,-7.6687,-7.7308,-7.7775,-7.8008,-7.9251,-8.0105,-8.061,-8.1232,-8.1349,-8.096,-8.1621,-8.1621,0.0,0.0,0.0,-5.2494,0.0,0.0,0.0,0.0,-4.5885,0.0,0.0,0.0,0.0,0.0,-4.6637,-4.5758,-4.5021,0.0,0.0,0.0,0.0,0.0,0.0,0.0,0.0,0.0,0.0,0.0,0.0,0.0,-5.9639,-6.1625,-6.3116,-6.4202,-6.5242,-6.5807,-6.5881,-6.5967,-6.6036,-6.6102,-6.6155,-6.7114,-6.8777,-6.8777,-6.9705,-7.1253,-7.1291,-7.1291,-7.1291,-7.133,-7.2336,-7.3728,-7.2026,-7.2375,-7.369,-7.1949,-7.1291,-7.1407,-7.2258,-7.3109,-7.3806,-7.3844,-7.4386,-7.5082,-7.5121,-7.6939,-7.9028,-7.9028,-8.0227,-8.1516,-8.1589,-8.16,-8.1624,-8.168,-8.0373,-7.9347,-8.0242,-7.9097,-7.8137,-7.9047,-7.8552,-7.8008,-7.7969,-7.7261,-7.6717,-7.6678,-7.6678,-7.6678,-7.6687,-7.6687,-7.6687,-7.6687,-7.6687,-7.6687,-7.6687,-7.6687,-7.6687,-7.6687,-7.6687,-7.6687,-7.6687,-7.6726,-7.7153,-7.7969,-7.8046,-7.8901,-8.061,-8.0649,-8.1077,-8.1854,-8.1892,-8.0999,0.0,0.0,-5.7057,-5.6211,0.0,0.0,0.0,0.0,0.0,0.0,0.0,0.0,0.0,-5.1827,-5.0107,-4.7688,-4.6238,-4.4715,0.0,0.0,0.0,0.0,0.0,0.0,0.0,0.0,0.0,0.0,0.0,0.0,0.0,-6.0525,-6.2672,-6.4411,-6.5492,-6.608,-6.6102,-6.6123,-6.6134,-6.6155,-6.6175,-6.7114,-6.8816,-6.8816,-6.9705,-7.1291,-7.1291,-7.1291,-7.1291,-7.1291,-7.2336,-7.3728,-7.1988,-7.2375,-7.369,-7.1949,-7.1291,-7.1407,-7.2297,-7.28,-7.3226,-7.4347,-7.4889,-7.5314,-7.6475,-7.7829,-7.9105,-7.9647,-8.065,-8.1577,-8.16,-8.1669,-8.1723,-8.1745,-8.0922,-8.0175,-8.0505,-8.0116,-7.9621,-7.9367,-7.9057,-7.8668,-7.8085,-7.727,-7.6687,-7.6687,-7.6687,-7.6687,-7.6687,-7.6687,-7.6687,-7.6687,-7.6687,-7.6687,-7.6687,-7.6687,-7.6687,-7.6687,-7.6687,-7.6687,-7.6687,-7.6687,-7.6842,-7.7114,-7.7697,-7.828,-7.8862,-7.9445,-7.9872,-8.0183,-8.0183,-8.0183,-6.5523,-6.2745,0.0,-5.914,-5.6324,0.0,-5.1255,0.0,0.0,0.0,0.0,0.0,0.0,0.0,-5.3542,-4.9824,-4.7384,-4.4823,0.0,0.0,0.0,0.0,0.0,0.0,0.0,0.0,-4.9469,-5.0342,0.0,0.0,0.0,0.0,-6.1953,-6.3676,-6.5308,-6.6185,-6.6185,-6.6185,-6.6185,-6.6185,-6.6185,-6.7114,-6.8816,-6.8816,-6.9705,-7.1291,-7.1291,-7.1291,-7.1291,-7.1291,-7.2142,-7.3303,-7.1872,-7.2181,-7.3264,-7.1833,-7.1485,-7.1833,-7.2413,-7.2993,-7.369,-7.4773,-7.5508,-7.6243,-7.7365,-7.8525,-7.9531,-8.0097,-8.0868,-8.1612,-8.1658,-8.1723,-8.1824,-8.1844,-8.1204,-8.0688,-8.0999,-8.0805,-8.0533,-8.0261,-7.9717,-7.9134,-7.8552,-7.7464,-7.6687,-7.6687,-7.6687,-7.6687,-7.6687,-7.6687,-7.6687,-7.6687,-7.6687,-7.6687,-7.6687,-7.6687,-7.6842,-7.7153,-7.6881,-7.6842,-7.7153,-7.6881,-7.6687,-7.6687,-7.727,-7.7697,-7.8008,-7.8552,-7.8979,-7.929,-7.8979,-7.9134]},{"header":{"parameterUnit":"m.s-1","parameterCategory":1,"la1":30.6,"la2":29.2853,"lo1":-89.7004,"lo2":-87.6739,"dy":0.0162,"dx":0.0183,"nx":112,"ny":82,"refTime":"2026-05-03T00:00:00:Z","depth":0,"parameterNumber":3,"parameterNumberName":"V-component_of_WINDS"},"data":[0.0,0.0,0.0,0.0,0.0,0.0,0.0,0.0,0.0,0.0,0.0,0.0,0.0,0.0,0.0,0.0,0.0,0.0,0.0,0.0,0.0,0.0,0.0,0.0,0.0,0.0,0.0,0.0,0.0,0.0,0.0,0.0,0.0,0.0,0.0,0.0,0.0,0.0,0.0,0.0,0.0,0.0,0.0,0.0,0.0,0.0,0.0,0.0,0.0,0.0,0.0,0.0,0.0,0.0,0.0,0.0,0.0,0.0,0.0,0.0,0.0,0.0,0.0,0.0,0.0,0.0,0.0,0.0,0.0,0.0,0.0,0.0,0.0,0.0,0.0,0.0,0.0,0.0,0.0,0.0,0.0,0.0,0.0,0.0,0.0,0.0,0.0,0.0,0.0,0.0,0.0,-2.471,-2.8177,-2.9706,-2.8242,-2.7618,-2.6024,-2.3042,0.0,0.0,0.0,0.0,0.0,0.0,0.0,0.0,0.0,0.0,0.0,0.0,0.0,0.0,0.0,0.0,0.0,0.0,0.0,0.0,0.0,0.0,0.0,0.0,0.0,0.0,0.0,0.0,0.0,0.0,0.0,0.0,0.0,0.0,0.0,0.0,0.0,0.0,0.0,0.0,0.0,0.0,0.0,0.0,0.0,0.0,0.0,0.0,0.0,0.0,0.0,0.0,0.0,0.0,0.0,0.0,0.0,0.0,0.0,0.0,0.0,0.0,0.0,0.0,0.0,0.0,0.0,0.0,0.0,0.0,0.0,0.0,0.0,0.0,0.0,0.0,0.0,0.0,0.0,0.0,0.0,0.0,0.0,0.0,0.0,0.0,0.0,0.0,0.0,0.0,0.0,0.0,0.0,0.0,0.0,0.0,0.0,0.0,0.0,0.0,0.0,0.0,0.0,0.0,-2.275,-2.6745,-2.8608,-2.9308,-2.8651,-2.7801,-2.6239,-2.3832,0.0,0.0,0.0,0.0,0.0,0.0,0.0,0.0,0.0,0.0,0.0,0.0,0.0,0.0,0.0,0.0,0.0,0.0,0.0,0.0,0.0,0.0,0.0,0.0,0.0,0.0,0.0,0.0,0.0,0.0,0.0,0.0,0.0,0.0,0.0,0.0,0.0,0.0,0.0,0.0,0.0,0.0,0.0,0.0,0.0,0.0,0.0,0.0,0.0,0.0,0.0,0.0,0.0,0.0,0.0,0.0,0.0,0.0,0.0,0.0,0.0,0.0,0.0,0.0,0.0,0.0,0.0,0.0,0.0,0.0,0.0,0.0,0.0,0.0,0.0,0.0,0.0,0.0,0.0,0.0,0.0,0.0,0.0,0.0,0.0,0.0,0.0,0.0,0.0,0.0,0.0,0.0,0.0,0.0,0.0,0.0,0.0,0.0,0.0,0.0,0.0,0.0,0.0,-2.2086,-2.471,-2.7198,-2.863,-2.9071,-2.8199,-2.7499,-2.5981,-2.3343,-2.0856,0.0,0.0,0.0,0.0,0.0,0.0,0.0,0.0,0.0,0.0,0.0,0.0,0.0,0.0,0.0,0.0,0.0,0.0,0.0,0.0,0.0,0.0,0.0,0.0,0.0,0.0,0.0,0.0,0.0,0.0,0.0,0.0,0.0,0.0,0.0,0.0,0.0,0.0,0.0,0.0,0.0,0.0,0.0,0.0,0.0,0.0,0.0,0.0,0.0,0.0,0.0,0.0,0.0,0.0,0.0,0.0,0.0,0.0,0.0,0.0,0.0,0.0,0.0,0.0,0.0,0.0,0.0,0.0,0.0,0.0,0.0,0.0,0.0,0.0,0.0,0.0,0.0,0.0,0.0,0.0,0.0,0.0,0.0,0.0,0.0,0.0,0.0,0.0,0.0,0.0,0.0,0.0,0.0,0.0,0.0,0.0,0.0,0.0,0.0,0.0,0.0,0.0,-2.4183,-2.6218,-2.7122,-2.8285,-2.8543,-2.7413,-2.6735,-2.5216,-2.2525,-2.0296,0.0,0.0,0.0,0.0,0.0,0.0,0.0,0.0,0.0,0.0,0.0,0.0,0.0,0.0,0.0,0.0,0.0,0.0,0.0,0.0,0.0,0.0,0.0,0.0,0.0,0.0,0.0,0.0,0.0,0.0,0.0,0.0,0.0,0.0,0.0,0.0,0.0,0.0,0.0,0.0,0.0,0.0,0.0,0.0,0.0,0.0,0.0,0.0,0.0,0.0,0.0,0.0,0.0,0.0,0.0,0.0,0.0,0.0,0.0,0.0,0.0,0.0,0.0,0.0,0.0,0.0,0.0,0.0,0.0,0.0,0.0,0.0,0.0,0.0,0.0,0.0,0.0,0.0,0.0,0.0,0.0,0.0,0.0,0.0,0.0,0.0,0.0,0.0,0.0,0.0,0.0,0.0,0.0,0.0,0.0,0.0,0.0,0.0,0.0,0.0,0.0,0.0,-2.4398,-2.6175,-2.6896,-2.7456,-2.7381,-2.6412,-2.5292,-2.3709,-2.1513,-1.9155,0.0,0.0,0.0,0.0,0.0,0.0,0.0,0.0,0.0,0.0,0.0,0.0,0.0,0.0,0.0,0.0,0.0,0.0,0.0,0.0,0.0,0.0,0.0,0.0,0.0,0.0,0.0,0.0,0.0,0.0,0.0,0.0,0.0,0.0,0.0,0.0,0.0,0.0,0.0,0.0,0.0,0.0,0.0,0.0,0.0,0.0,0.0,0.0,0.0,0.0,0.0,0.0,0.0,0.0,0.0,0.0,0.0,0.0,0.0,0.0,0.0,0.0,0.0,0.0,0.0,0.0,0.0,0.0,0.0,0.0,0.0,0.0,0.0,0.0,0.0,0.0,0.0,0.0,0.0,0.0,0.0,0.0,0.0,0.0,0.0,0.0,0.0,0.0,0.0,0.0,0.0,0.0,0.0,0.0,0.0,0.0,0.0,0.0,0.0,0.0,0.0,0.0,-2.4312,-2.6099,0.0,-2.7144,-2.6982,-2.5884,-2.47,-2.3106,-2.0963,0.0,0.0,0.0,0.0,0.0,0.0,0.0,0.0,0.0,0.0,0.0,0.0,0.0,0.0,0.0,0.0,0.0,0.0,0.0,0.0,0.0,0.0,0.0,0.0,0.0,0.0,0.0,0.0,0.0,0.0,0.0,0.0,0.0,0.0,0.0,0.0,0.0,0.0,0.0,0.0,0.0,0.0,0.0,0.0,0.0,0.0,0.0,0.0,0.0,0.0,0.0,0.0,0.0,0.0,0.0,0.0,0.0,0.0,0.0,0.0,0.0,0.0,0.0,0.0,0.0,0.0,0.0,0.0,0.0,0.0,0.0,0.0,0.0,0.0,0.0,0.0,0.0,0.0,0.0,0.0,0.0,0.0,0.0,0.0,0.0,0.0,0.0,0.0,0.0,0.0,0.0,0.0,0.0,0.0,0.0,0.0,0.0,0.0,0.0,0.0,0.0,0.0,-2.1653,-2.4118,-2.583,0.0,-2.6724,-2.6508,-2.5389,-2.4204,-2.2611,-2.0468,0.0,0.0,0.0,0.0,0.0,0.0,0.0,0.0,0.0,0.0,0.0,0.0,0.0,0.0,0.0,0.0,0.0,0.0,0.0,0.0,0.0,0.0,0.0,0.0,0.0,0.0,0.0,0.0,0.0,0.0,0.0,0.0,0.0,0.0,0.0,0.0,0.0,0.0,0.0,0.0,0.0,0.0,0.0,0.0,0.0,0.0,0.0,0.0,0.0,0.0,0.0,0.0,0.0,0.0,0.0,0.0,0.0,0.0,0.0,0.0,0.0,0.0,0.0,0.0,0.0,0.0,0.0,0.0,0.0,0.0,0.0,0.0,0.0,0.0,0.0,0.0,0.0,0.0,0.0,0.0,0.0,0.0,0.0,0.0,0.0,0.0,0.0,0.0,0.0,0.0,0.0,0.0,0.0,0.0,0.0,0.0,0.0,0.0,0.0,0.0,0.0,0.0,-2.162,-2.3838,-2.5346,-2.5809,-2.6078,-2.5841,-2.4883,-2.372,-2.2126,0.0,0.0,0.0,0.0,0.0,0.0,0.0,0.0,0.0,0.0,0.0,0.0,0.0,0.0,0.0,0.0,0.0,0.0,0.0,0.0,0.0,0.0,0.0,0.0,0.0,0.0,0.0,0.0,0.0,0.0,0.0,0.0,0.0,0.0,0.0,0.0,0.0,0.0,0.0,0.0,0.0,0.0,0.0,0.0,0.0,0.0,0.0,0.0,0.0,0.0,0.0,0.0,0.0,0.0,0.0,0.0,0.0,0.0,0.0,0.0,0.0,0.0,0.0,0.0,0.0,0.0,0.0,0.0,0.0,0.0,0.0,0.0,0.0,0.0,0.0,0.0,0.0,0.0,0.0,0.0,0.0,0.0,0.0,0.0,0.0,0.0,0.0,0.0,0.0,0.0,0.0,0.0,0.0,0.0,0.0,0.0,0.0,0.0,0.0,0.0,0.0,0.0,0.0,-2.092,-2.3386,-2.5033,-2.5346,-2.5593,-2.5346,-2.4398,-2.3085,-2.1459,-1.9478,0.0,0.0,0.0,0.0,0.0,0.0,0.0,0.0,0.0,0.0,0.0,0.0,0.0,0.0,0.0,0.0,0.0,0.0,0.0,0.0,0.0,0.0,0.0,0.0,0.0,0.0,0.0,0.0,0.0,0.0,0.0,0.0,0.0,0.0,0.0,0.0,0.0,0.0,0.0,0.0,0.0,0.0,0.0,0.0,0.0,0.0,0.0,0.0,0.0,0.0,0.0,0.0,0.0,0.0,0.0,0.0,0.0,0.0,0.0,0.0,0.0,0.0,0.0,0.0,0.0,0.0,0.0,0.0,0.0,0.0,0.0,0.0,0.0,0.0,0.0,0.0,0.0,0.0,0.0,0.0,0.0,0.0,0.0,0.0,0.0,0.0,0.0,0.0,0.0,0.0,0.0,0.0,0.0,0.0,0.0,0.0,0.0,0.0,0.0,0.0,0.0,0.0,-2.0737,-2.3085,-2.4624,-2.4861,-2.5098,-2.485,-2.3903,-2.2869,-2.1416,-1.9413,0.0,0.0,0.0,0.0,0.0,0.0,0.0,0.0,0.0,0.0,0.0,0.0,0.0,0.0,0.0,0.0,0.0,0.0,0.0,0.0,0.0,0.0,0.0,0.0,0.0,0.0,0.0,0.0,0.0,0.0,0.0,0.0,0.0,0.0,0.0,0.0,0.0,0.0,0.0,0.0,0.0,0.0,0.0,0.0,0.0,0.0,0.0,0.0,0.0,0.0,0.0,0.0,0.0,0.0,0.0,0.0,0.0,0.0,0.0,0.0,0.0,0.0,0.0,0.0,0.0,0.0,0.0,0.0,0.0,0.0,0.0,0.0,0.0,0.0,0.0,0.0,0.0,0.0,0.0,0.0,0.0,0.0,0.0,0.0,0.0,0.0,0.0,0.0,0.0,0.0,0.0,0.0,0.0,0.0,0.0,0.0,0.0,0.0,0.0,0.0,0.0,0.0,-2.0759,-2.2815,-2.4097,-2.4312,-2.4538,-2.4323,-2.344,-2.2869,-2.1674,-1.9596,0.0,0.0,0.0,0.0,0.0,0.0,0.0,0.0,0.0,0.0,0.0,0.0,0.0,0.0,0.0,0.0,0.0,0.0,0.0,0.0,0.0,0.0,0.0,0.0,0.0,0.0,0.0,0.0,0.0,0.0,0.0,0.0,0.0,0.0,0.0,0.0,0.0,0.0,0.0,0.0,0.0,0.0,0.0,0.0,0.0,0.0,0.0,0.0,0.0,0.0,0.0,0.0,0.0,0.0,0.0,0.0,0.0,0.0,0.0,0.0,-1.9553,0.0,0.0,0.0,0.0,0.0,0.0,0.0,0.0,0.0,0.0,0.0,0.0,0.0,0.0,0.0,0.0,0.0,0.0,0.0,0.0,0.0,0.0,0.0,0.0,0.0,0.0,0.0,0.0,0.0,0.0,0.0,0.0,0.0,0.0,0.0,0.0,0.0,0.0,0.0,0.0,0.0,-1.9607,-2.1868,-2.33,-2.3343,-2.3558,-2.3548,-2.316,-2.2169,-2.0899,-1.9327,-1.7443,0.0,0.0,0.0,0.0,0.0,0.0,0.0,0.0,0.0,0.0,0.0,0.0,0.0,0.0,0.0,0.0,0.0,0.0,0.0,0.0,0.0,0.0,0.0,0.0,0.0,0.0,0.0,0.0,0.0,0.0,0.0,0.0,0.0,0.0,0.0,0.0,0.0,0.0,0.0,0.0,0.0,0.0,0.0,0.0,0.0,0.0,0.0,0.0,0.0,0.0,0.0,0.0,0.0,0.0,0.0,0.0,0.0,0.0,0.0,0.0,-2.063,0.0,0.0,0.0,0.0,0.0,0.0,0.0,0.0,0.0,0.0,0.0,0.0,0.0,0.0,0.0,0.0,0.0,0.0,0.0,0.0,0.0,0.0,0.0,0.0,0.0,0.0,0.0,0.0,0.0,0.0,0.0,0.0,0.0,0.0,0.0,0.0,0.0,0.0,0.0,0.0,-1.9381,-2.1448,-2.2621,-2.2621,-2.302,-2.2998,-2.2417,-2.1588,-2.0544,-1.9157,-1.7572,0.0,0.0,0.0,0.0,0.0,0.0,0.0,0.0,0.0,0.0,0.0,0.0,0.0,0.0,0.0,0.0,0.0,0.0,0.0,0.0,0.0,0.0,0.0,0.0,0.0,0.0,0.0,0.0,0.0,0.0,0.0,0.0,0.0,0.0,0.0,0.0,0.0,0.0,0.0,0.0,0.0,0.0,0.0,0.0,0.0,0.0,0.0,0.0,0.0,0.0,0.0,0.0,0.0,-2.3607,-2.3501,-2.3165,-2.3575,-2.3852,-2.4037,-2.3009,-2.2395,-2.2019,0.0,0.0,0.0,0.0,0.0,0.0,0.0,0.0,0.0,0.0,0.0,0.0,0.0,0.0,0.0,0.0,0.0,0.0,0.0,0.0,0.0,0.0,0.0,0.0,0.0,-1.9701,-1.9176,0.0,0.0,0.0,0.0,0.0,0.0,0.0,0.0,0.0,0.0,0.0,0.0,-1.9541,-2.1168,-2.2169,-2.2202,-2.2525,-2.2417,-2.1631,-2.1082,-2.0339,-1.92,-1.7949,-1.6592,0.0,0.0,0.0,0.0,0.0,0.0,0.0,0.0,0.0,0.0,0.0,0.0,0.0,0.0,0.0,0.0,0.0,0.0,0.0,0.0,0.0,0.0,0.0,0.0,0.0,0.0,0.0,0.0,0.0,0.0,0.0,0.0,-1.7793,-1.8396,0.0,0.0,0.0,0.0,0.0,0.0,0.0,0.0,0.0,0.0,0.0,0.0,0.0,0.0,-2.3767,-2.3934,-2.423,-2.4677,-2.4269,-2.4226,-2.4523,-2.4588,-2.4794,-2.499,-2.5033,0.0,-2.3731,-2.3052,0.0,0.0,0.0,0.0,0.0,0.0,0.0,0.0,0.0,0.0,0.0,0.0,0.0,0.0,0.0,0.0,0.0,0.0,0.0,0.0,0.0,0.0,-2.1556,-2.1141,-2.1141,-2.1125,0.0,-1.9402,-1.8282,-1.7301,0.0,0.0,0.0,0.0,0.0,0.0,0.0,0.0,-1.9284,-2.064,-2.1491,-2.1696,-2.1588,-2.1459,-2.134,-2.0694,-2.0059,-1.9488,-1.8509,-1.7496,-1.6474,-1.5311,0.0,0.0,0.0,0.0,0.0,0.0,0.0,0.0,0.0,0.0,0.0,0.0,0.0,0.0,0.0,0.0,0.0,0.0,0.0,0.0,0.0,0.0,0.0,0.0,0.0,0.0,0.0,0.0,0.0,-1.7756,-1.9145,-1.9531,-1.9579,-1.9458,0.0,0.0,0.0,0.0,0.0,0.0,0.0,0.0,0.0,-2.2953,-2.4086,-2.5014,-2.5628,-2.6132,-2.6473,-2.654,-2.6398,-2.6382,-2.6299,-2.6442,-2.6364,-2.6175,-2.6282,-2.6089,-2.5615,-2.4355,-2.3225,-2.2169,0.0,0.0,0.0,0.0,-2.0414,-2.0554,-2.091,-2.105,0.0,0.0,0.0,0.0,0.0,0.0,0.0,0.0,0.0,0.0,0.0,0.0,0.0,-2.171,-2.1624,-2.1523,-2.119,-2.0511,-1.9704,0.0,-1.7712,-1.6689,-1.5871,0.0,0.0,0.0,0.0,0.0,-1.909,-2.0339,-2.106,-2.1028,-2.1179,-2.1168,-2.0899,-2.0468,-2.007,-1.9714,-1.8928,-1.811,-1.7292,-1.6247,-1.5182,0.0,0.0,0.0,0.0,0.0,0.0,0.0,0.0,0.0,0.0,0.0,0.0,0.0,0.0,0.0,0.0,0.0,0.0,0.0,0.0,0.0,0.0,0.0,0.0,0.0,0.0,0.0,0.0,-1.8963,-2.0315,-2.0641,-2.0798,-2.0702,0.0,0.0,0.0,0.0,0.0,0.0,-2.2354,-2.3028,-2.3882,-2.4946,-2.5995,-2.6712,-2.7172,-2.7805,-2.7992,-2.7815,-2.7795,-2.775,-2.7476,-2.7664,-2.7535,-2.7122,-2.7122,-2.7025,-2.6745,-2.5324,-2.428,-2.3494,-2.2471,-2.1976,-2.1825,-2.1825,-2.1857,-2.1976,-2.2439,-2.2579,-2.2557,-2.2675,0.0,-2.0996,-2.0092,0.0,0.0,0.0,0.0,-1.9994,-2.0765,-2.1357,-2.1795,-2.2001,-2.1935,-2.1739,-2.1502,-2.1211,-2.0716,0.0,-1.8778,-1.7863,-1.7152,0.0,0.0,0.0,0.0,-1.7776,-1.9155,-2.0145,-2.0684,-2.0576,-2.0823,-2.0867,-2.05,-2.0199,-1.9951,-1.9844,-1.9144,-1.8498,-1.7841,-1.6958,-1.5957,-1.4826,0.0,0.0,0.0,0.0,0.0,0.0,0.0,0.0,0.0,0.0,0.0,0.0,0.0,0.0,0.0,0.0,0.0,0.0,0.0,0.0,0.0,0.0,0.0,0.0,0.0,0.0,0.0,0.0,0.0,-2.1728,-2.2309,0.0,0.0,0.0,0.0,-2.2452,-2.287,-2.3434,-2.4221,-2.4858,-2.5646,-2.6662,-2.744,-2.7886,-2.8179,-2.7957,-2.7749,-2.7714,-2.7225,-2.7269,-2.7701,-2.7712,-2.7712,-2.7607,-2.7607,-2.723,-2.6541,-2.5776,-2.5313,-2.4958,-2.3774,-2.33,-2.3289,-2.3289,-2.3429,-2.3778,-2.4172,-2.4194,-2.4075,-2.4517,-2.3418,-2.18,-2.1044,-2.0189,0.0,0.0,-2.0439,-2.0899,-2.1168,-2.1771,-2.2299,-2.2235,-2.2224,-2.2234,-2.1986,-2.1577,-2.0974,0.0,-1.9424,-1.8853,-1.8142,0.0,-1.713,-1.7895,-1.8024,-1.8466,-1.9735,-2.007,-2.0328,-2.0544,-2.0382,-2.0253,-2.0231,-1.9801,-1.9531,-1.9521,-1.9058,-1.8573,-1.8099,-1.7367,-1.6517,-1.5569,-1.4374,0.0,0.0,0.0,0.0,0.0,0.0,0.0,0.0,0.0,0.0,0.0,0.0,0.0,0.0,0.0,0.0,0.0,0.0,0.0,0.0,0.0,0.0,0.0,0.0,0.0,0.0,0.0,0.0,-2.3309,-2.3864,0.0,-2.3816,-2.3466,-2.3587,-2.4383,-2.5023,-2.5727,-2.6516,-2.714,-2.7771,-2.8488,-2.8944,-2.8907,-2.8476,-2.8195,-2.7728,-2.7144,-2.689,-2.6885,-2.7198,-2.7036,-2.6961,-2.695,-2.6799,-2.6767,-2.6767,-2.6035,-2.5518,-2.513,-2.471,-2.4355,-2.4086,-2.4086,-2.414,-2.4258,-2.457,-2.4527,-2.4312,-2.4172,-2.3461,-2.2525,-2.1958,-2.1394,-2.0856,-2.1039,-2.1231,-2.1409,-2.1862,-2.2075,-2.2331,-2.2331,-2.2223,-2.2051,-2.1803,-2.1502,-2.1125,-2.0619,-2.0027,-1.9521,-1.9262,-1.8627,-1.8293,-1.8713,-1.8778,-1.8982,-1.9553,-1.9973,-2.0188,-2.0189,-2.0027,-1.9919,-1.9768,-1.9456,-1.9273,-1.9273,-1.8821,-1.8487,-1.8326,-1.7626,-1.6947,-1.6301,-1.5418,-1.4417,0.0,0.0,0.0,0.0,0.0,0.0,0.0,0.0,0.0,0.0,0.0,0.0,0.0,0.0,0.0,0.0,0.0,0.0,0.0,0.0,0.0,0.0,0.0,0.0,0.0,0.0,-2.3611,-2.442,-2.5059,-2.547,-2.5192,-2.5096,-2.5301,-2.5928,-2.6629,-2.7304,-2.7908,-2.8463,-2.891,-2.926,-2.961,-2.9338,-2.8323,-2.8232,-2.7773,-2.6821,-2.6659,-2.6713,-2.695,-2.6778,-2.6745,-2.681,-2.6573,-2.6605,-2.6788,-2.6304,-2.5787,-2.5292,-2.5292,-2.5098,-2.4818,-2.4818,-2.4818,-2.4818,-2.4807,-2.47,-2.4495,-2.4021,-2.3601,-2.3235,-2.2857,-2.2418,-2.2051,-2.2085,-2.2045,-2.1999,-2.2375,-2.2471,-2.2428,-2.2352,-2.2159,-2.1922,-2.1674,-2.1437,-2.12,-2.0953,-2.0457,-2.0135,-1.9984,-1.9445,-1.9101,-1.9348,-1.9316,-1.9348,-1.9585,-1.9822,-1.9908,-1.9747,-1.9811,-1.9639,-1.9402,-1.9168,-1.9007,-1.8846,-1.8385,-1.8121,-1.7959,-1.7496,-1.699,-1.6493,-1.5569,-1.4654,-1.3696,0.0,0.0,0.0,0.0,0.0,0.0,0.0,0.0,0.0,0.0,0.0,0.0,0.0,0.0,0.0,0.0,0.0,0.0,0.0,0.0,0.0,0.0,0.0,-2.0674,-2.2549,-2.4109,-2.4915,-2.5938,-2.6556,-2.6291,-2.652,-2.6798,-2.7051,-2.7546,-2.7944,-2.8198,-2.8717,-2.9019,-2.9019,-2.9513,-2.916,-2.7821,-2.8061,-2.7683,-2.6584,-2.6584,-2.6702,-2.6939,-2.6928,-2.7047,-2.7241,-2.7004,-2.6778,-2.6562,-2.6552,-2.6142,-2.5529,-2.5529,-2.5529,-2.5518,-2.5507,-2.5507,-2.5432,-2.4958,-2.4797,-2.4721,-2.4258,-2.3957,-2.3795,-2.3828,-2.3432,-2.3031,-2.3032,-2.287,-2.2697,-2.2686,-2.2675,-2.2611,-2.2385,-2.2137,-2.19,-2.1663,-2.1437,-2.1211,-2.0963,-2.0727,-2.05,-2.0253,-1.9833,-1.9596,-1.9887,-1.9661,0.0,-1.9887,-1.9639,-1.951,-1.9499,-1.9488,-1.9391,-1.9092,-1.905,-1.8835,-1.8444,-1.7959,-1.7475,-1.7012,-1.699,-1.6667,-1.6039,-1.4826,-1.3997,-1.3502,0.0,0.0,0.0,0.0,0.0,0.0,0.0,0.0,0.0,0.0,0.0,0.0,0.0,0.0,0.0,0.0,0.0,0.0,0.0,0.0,0.0,-1.9531,-2.0977,-2.1776,-2.349,-2.4999,-2.6085,-2.6798,-2.7256,-2.7365,-2.7618,-2.7799,-2.7872,-2.821,-2.8427,-2.85,-2.8825,-2.9019,-2.9019,-2.9344,-2.8982,-2.7821,-2.7889,-2.7515,-2.6584,-2.6584,-2.6616,-2.6681,-2.6508,-2.6369,-2.625,-2.6013,-2.597,-2.6046,-2.5884,-2.5798,-2.5776,-2.5776,-2.5669,-2.5496,-2.5335,-2.5152,-2.4958,-2.4657,-2.456,-2.4506,-2.4215,-2.4064,-2.3978,-2.3614,-2.3502,-2.3475,-2.2902,-2.2815,-2.2912,-2.2729,-2.2557,-2.2417,-2.2352,-2.2019,-2.1696,-2.1631,-2.1437,-2.1254,-2.119,-2.0974,-2.0684,-2.0285,-2.0102,-1.9973,-1.9941,-1.9865,0.0,-1.9607,-1.9693,-1.9693,-1.9521,-1.9187,-1.9025,-1.9071,-1.8509,-1.8056,-1.7927,-1.7313,-1.6894,-1.6764,-1.6592,-1.6495,-1.6525,-1.5645,-1.4805,0.0,0.0,0.0,0.0,0.0,0.0,0.0,0.0,0.0,0.0,0.0,0.0,0.0,0.0,0.0,0.0,0.0,0.0,0.0,0.0,0.0,0.0,-2.1016,-2.2416,-2.3442,-2.4528,-2.548,-2.652,-2.7196,-2.7642,-2.7799,-2.8162,-2.8379,-2.8379,-2.8524,-2.862,-2.862,-2.8874,-2.9019,-2.9019,-2.9381,-2.897,-2.7672,-2.7775,-2.7291,-2.6132,-2.6132,-2.6132,-2.6132,-2.6002,-2.5906,0.0,-2.5626,-2.5647,-2.5852,-2.5615,-2.5604,0.0,0.0,0.0,0.0,0.0,-2.4926,-2.4764,-2.4538,-2.4463,-2.442,-2.4194,-2.4043,-2.3903,-2.3623,-2.3501,-2.3347,-2.2956,-2.2805,-2.274,-2.2697,-2.2514,-2.2309,-2.2202,-2.1965,-2.1717,-2.1513,-2.1286,-2.1125,-2.1125,0.0,0.0,-2.0296,-2.021,-2.0134,-1.9962,-1.9758,-1.9693,-1.965,-1.9596,-1.9542,-1.9499,-1.9165,-1.8918,-1.8781,-1.8433,0.0,0.0,0.0,-1.6915,-1.6807,-1.6495,0.0,0.0,0.0,0.0,0.0,0.0,0.0,0.0,-1.3211,-1.3599,0.0,0.0,0.0,0.0,0.0,0.0,0.0,0.0,0.0,0.0,0.0,0.0,0.0,0.0,0.0,0.0,-2.2488,-2.388,-2.5289,-2.5506,-2.582,-2.6629,-2.7365,-2.7824,-2.786,-2.8318,-2.862,-2.862,-2.862,-2.862,-2.862,0.0,0.0,0.0,0.0,-2.8946,-2.7519,-2.7661,-2.7066,-2.5561,-2.5583,-2.5583,-2.5561,-2.5561,-2.5658,-2.5819,-2.5604,-2.5636,-2.5809,-2.5604,-2.5507,-2.5475,-2.5475,-2.5324,-2.5066,-2.485,-2.4753,0.0,0.0,0.0,0.0,-2.4151,-2.3914,-2.3767,-2.3751,-2.3434,-2.302,-2.2978,-2.2654,-2.2417,-2.2632,-2.2492,-2.2256,-2.2083,-2.1986,-2.1825,-2.1437,-2.1125,-2.091,-2.0942,-2.092,-2.077,-2.0328,-2.0231,-2.0124,-1.9919,-1.9628,-1.9564,-1.9747,-1.9456,-1.9295,-1.9478,0.0,0.0,-1.8481,-1.8605,-1.8304,-1.7475,-1.7367,-1.7238,-1.7012,-1.6635,-1.6721,-1.7324,-1.6558,-1.6161,-1.6355,-1.5978,-1.5828,-1.586,-1.488,-1.4912,0.0,0.0,0.0,0.0,0.0,0.0,0.0,0.0,0.0,0.0,0.0,0.0,0.0,0.0,0.0,-2.1837,-2.3007,-2.4157,-2.5566,-2.594,-2.6363,-2.7172,-2.7594,-2.7896,-2.8101,-2.8427,-2.862,-2.862,-2.862,-2.862,-2.862,-2.8669,0.0,-2.8693,-2.8801,-2.8306,-2.7232,-2.7398,-2.6976,-2.5798,0.0,0.0,-2.5798,-2.5798,-2.5723,-2.5583,-2.5539,-2.555,-2.5583,-2.5539,-2.541,-2.5249,-2.5249,-2.498,-2.4592,-2.4549,-2.4409,-2.4237,-2.4194,-2.4183,-2.414,-2.3892,-2.3846,-2.3751,-2.3507,-2.3378,0.0,-2.302,-2.2805,-2.2622,-2.2675,-2.2363,-2.2126,-2.246,-2.2105,-2.1717,-2.1836,-2.1351,-2.0963,-2.1168,-2.1039,-2.0813,-2.0544,-2.0339,-2.007,-1.9628,-1.9531,-1.9445,-1.9305,-1.9531,-1.9661,-1.951,-1.9295,-1.9039,-1.8942,-1.8347,-1.7852,-1.7669,-1.7292,-1.7055,-1.7001,-1.7109,-1.7141,-1.7077,-1.6894,-1.6732,-1.6592,-1.6894,-1.7238,-1.7583,-1.6441,-1.6204,0.0,0.0,0.0,0.0,0.0,0.0,0.0,0.0,0.0,0.0,0.0,-1.8167,-1.9096,0.0,-2.151,-2.2838,-2.3719,-2.4613,-2.5675,-2.594,-2.6327,-2.7123,-2.7461,-2.7667,-2.7799,-2.8053,-2.827,-2.8403,-2.8415,-2.8475,-2.862,-2.8753,-2.8813,-2.8813,-2.8654,-2.8168,-2.7359,-2.7094,-2.6604,-2.569,-2.5819,-2.5809,-2.569,-2.569,-2.5626,-2.5518,-2.5399,-2.541,-2.5507,-2.5399,-2.5206,-2.498,-2.4861,-2.4678,-2.4452,-2.4334,-2.4215,-2.4118,-2.4118,-2.4118,-2.4054,-2.3879,-2.3683,-2.3575,-2.341,-2.3216,-2.3032,-2.3031,-2.2708,-2.2385,-2.2622,-2.2331,-2.2062,-2.2428,-2.2234,-2.1911,-2.1685,-2.1254,-2.0942,-2.106,-2.0899,-2.0737,-2.0737,-2.0447,-2.0048,-1.9575,-1.9499,-1.9456,-1.9338,-1.9531,-1.9671,-1.9671,-1.9467,-1.9273,-1.9082,-1.8272,-1.7723,-1.7723,-1.727,-1.7066,-1.7184,-1.7313,-1.7367,-1.7356,-1.7486,-1.755,-1.755,-1.7906,-1.8207,-1.8422,-1.783,-1.7615,0.0,0.0,0.0,0.0,0.0,0.0,0.0,0.0,-1.7322,-1.7901,-1.8963,-2.0093,-2.0822,-2.1764,-2.2742,-2.3756,-2.4311,-2.4914,-2.5711,-2.5832,-2.6085,-2.6785,-2.7148,-2.7365,-2.7413,-2.7655,-2.7896,-2.8113,-2.8174,-2.8282,-2.8463,-2.8717,-2.8765,-2.8668,-2.8481,-2.8026,-2.7289,-2.6887,-2.62,-2.5518,-2.5518,-2.5518,-2.5518,-2.5518,-2.5518,-2.5507,-2.5324,-2.5324,-2.5443,-2.526,-2.5001,-2.4721,-2.4549,-2.4452,-2.4377,-2.4183,-2.4118,-2.4118,-2.4118,-2.4054,-2.4015,-2.3816,-2.3575,-2.3432,-2.3434,-2.3097,-2.2794,-2.2998,-2.2535,-2.2083,-2.2503,-2.2288,-2.204,-2.2331,-2.2331,-2.2094,-2.148,-2.1082,-2.0845,-2.0899,-2.0716,-2.064,-2.0867,-2.0554,-2.0102,-1.9575,-1.9456,-1.9435,-1.9435,-1.9467,-1.9585,-1.9898,-1.9682,-1.9456,-1.9103,-1.8401,-1.7884,-1.7798,-1.7518,-1.7421,-1.7583,-1.7669,-1.7787,-1.7927,-1.8121,-1.8315,-1.8509,-1.8735,-1.8853,-1.8853,-1.8896,-1.8767,-1.5982,-1.6646,-1.7696,-1.8275,-1.8589,-1.8758,0.0,0.0,-1.9024,-1.9808,-2.0517,-2.1195,-2.2007,-2.2636,-2.3225,-2.4057,-2.4432,-2.4914,-2.5711,-2.5832,-2.5953,-2.6266,-2.6761,-2.716,-2.7401,-2.7655,-2.7824,-2.786,-2.8077,-2.8113,-2.7908,-2.8149,-2.8104,-2.7545,-2.7569,-2.7207,-2.6435,-2.6349,-2.6036,-2.5518,-2.5518,-2.5518,-2.5518,-2.5518,-2.5518,-2.5518,-2.5486,-2.5378,-2.5216,-2.5184,-2.4915,-2.4506,-2.4538,-2.4387,-2.4151,-2.4118,-2.4118,-2.4118,-2.4118,-2.394,-2.3762,-2.3518,-2.3399,-2.3412,-2.3432,-2.3203,-2.3009,-2.2954,-2.2525,-2.2029,-2.2299,-2.2169,-2.2083,-2.2535,-2.2331,-2.1954,-2.1642,-2.106,-2.0662,-2.0867,-2.0716,-2.064,-2.0867,-2.0694,-2.0285,-1.9607,-1.9327,-1.9114,-1.9114,-1.937,-1.9585,-1.9898,-1.9898,-1.9628,-1.9114,-1.8853,-1.8487,-1.8078,-1.839,-1.8509,-1.8326,-1.8653,-1.8864,-1.867,-1.8692,-1.8724,-1.8745,-1.8993,-1.9039,-1.9039,-1.9327,-1.9176,-1.7382,-1.8143,-1.9205,-1.9893,-2.0267,-2.0521,-2.0665,-2.0702,-2.0834,-2.1329,-2.1969,-2.2549,-2.2887,-2.3261,-2.3719,0.0,-2.4552,-2.4854,-2.5506,-2.547,-2.553,-2.594,-2.6061,-2.6327,-2.6906,-2.7063,-2.7256,-2.7558,-2.7691,-2.7763,-2.7811,-2.7782,-2.7641,-2.7368,-2.6785,-2.6433,-2.6305,-2.5871,-2.5582,-2.5518,-2.5518,-2.5518,-2.5518,-2.5518,-2.5443,-2.5324,-2.5324,-2.5184,-2.4947,-2.4818,-2.4667,-2.4506,-2.4366,-2.4226,-2.4118,-2.4118,-2.4118,-2.4086,-2.3994,-2.3832,-2.3759,-2.3531,-2.3378,-2.341,-2.3375,-2.3235,-2.302,-2.288,-2.2417,-2.2029,-2.2266,-2.2148,-2.2083,-2.2568,-2.2428,-2.2051,-2.1534,-2.1071,-2.0748,-2.0716,-2.063,-2.064,-2.0867,-2.0716,-2.0317,-1.9607,-1.9413,-1.9305,-1.9092,-1.9348,-1.9531,-1.9639,-1.9844,-1.9661,-1.9114,-1.8985,-1.8799,-1.8326,-1.8476,-1.8476,-1.8239,-1.8692,-1.8885,-1.8789,-1.9058,-1.9198,-1.9198,-1.9435,-1.9488,-1.9348,-1.9316,-1.9187,-1.865,-1.9458,-2.04,-2.1268,-2.1595,-2.1873,-2.2138,-2.2138,-2.2237,-2.2503,-2.2874,-2.3261,-2.3321,-2.3442,-2.3707,-2.4311,-2.4468,-2.4709,-2.5252,-2.5228,-2.5204,-2.5675,-2.5554,-2.5699,-2.6351,-2.6556,-2.6798,-2.7172,-2.7341,-2.7381,-2.7397,-2.7286,-2.7086,-2.6872,-2.6197,-2.5876,-2.61,-2.5549,-2.5356,-2.5518,-2.5453,-2.5464,-2.5518,-2.5518,-2.5389,-2.5173,-2.5173,-2.5001,-2.47,-2.4549,-2.4474,-2.4327,-2.4204,-2.4118,-2.4118,-2.4118,-2.4032,-2.3983,-2.3889,-2.3738,-2.3529,-2.3466,-2.3399,-2.3397,-2.3397,-2.3235,-2.29,-2.2675,-2.2288,-2.2008,-2.2191,-2.2148,-2.2159,-2.2503,-2.2352,-2.1965,-2.1319,-2.0985,-2.0759,-2.0597,-2.0565,-2.064,-2.0867,-2.0662,-2.0242,-1.9596,-1.9445,-1.9338,-1.9092,-1.9413,-1.9575,-1.951,-1.965,-1.9618,-1.9273,-1.9114,-1.8932,-1.8588,-1.8692,-1.8627,-1.839,-1.8832,-1.9079,-1.9079,-1.9413,-1.9596,-1.9596,-1.9844,-1.9693,-1.9402,-1.9157,-1.9114,-1.9555,-2.0412,-2.1292,-2.2029,-2.2491,-2.2757,-2.3024,-2.2891,-2.2782,-2.3036,-2.2915,-2.283,-2.3084,-2.2927,-2.2947,-2.3744,-2.4001,-2.4432,-2.4987,-2.5277,-2.5433,-2.5446,-2.5446,-2.5542,0.0,-2.6327,-2.6641,-2.6665,-2.7135,-2.7133,-2.6426,-2.6558,-2.6353,-2.5561,-2.5572,-2.552,-2.5518,-2.5507,-2.5518,-2.5518,-2.5292,-2.5303,-2.5518,-2.5518,-2.5389,-2.5173,-2.5173,-2.4904,-2.4474,-2.4538,-2.4387,-2.4129,-2.4118,-2.4118,-2.4118,-2.4118,-2.4009,-2.3829,-2.377,-2.3423,-2.3065,-2.3334,-2.3397,-2.3397,-2.3397,-2.3235,-2.2868,-2.2482,-2.2159,-2.1965,-2.1976,-2.2148,-2.2331,-2.2342,-2.1986,-2.1513,-2.1017,-2.0737,-2.0576,-2.0565,-2.0565,-2.064,-2.0867,-2.0533,-2.0059,-1.9575,-1.9305,-1.9082,-1.9082,-1.9553,-1.9822,-1.9521,-1.951,-1.951,-1.9488,-1.9284,-1.9071,-1.906,-1.9338,-1.9359,-1.906,-1.9564,-1.9887,-1.9887,-1.9908,-1.9908,-1.9908,-1.9919,-1.9607,-1.9092,-1.9082,-1.9273,-2.011,-2.0991,-2.1788,-2.2661,-2.2983,-2.3249,-2.3514,-2.3502,-2.3369,-2.3169,-2.2915,-2.2697,-2.2612,-2.2527,-2.2657,-2.3375,-2.3868,-2.4432,-2.4879,-2.512,-2.524,-2.5421,-2.512,0.0,0.0,0.0,0.0,-2.6616,-2.6798,-2.6671,-2.6288,-2.6179,-2.5889,-2.5328,-2.5048,-2.492,-2.5044,-2.4893,-2.4893,-2.5044,-2.4969,-2.5033,-2.5323,-2.511,-2.5078,-2.5174,-2.4864,-2.464,-2.4469,-2.4284,-2.4204,-2.4118,-2.4118,-2.4118,-2.4097,-2.3935,-2.3767,-2.3507,-2.3551,-2.3432,-2.328,-2.3354,-2.3397,-2.3365,-2.3214,-2.2998,-2.2675,-2.204,-2.1911,-2.1965,-2.1976,-2.204,-2.2126,-2.2299,-2.1857,-2.1308,-2.0974,-2.0597,-2.0328,-2.0328,-2.0328,-2.0361,-2.0436,-2.0177,-1.9758,-1.9122,-1.909,-1.9082,-1.9082,-1.9424,-1.9531,-1.9295,-1.9262,-1.9262,-1.9262,-1.9338,-1.9381,-1.9381,-1.9596,-1.9628,-1.9391,-1.9682,-1.9919,-1.9919,-1.9693,-1.9618,-1.9618,-1.9456,-1.9219,-1.8907,-1.9079,-1.9273,-2.081,-2.1752,-2.2428,-2.3043,-2.3393,-2.3531,-2.3604,-2.3623,-2.3381,-2.283,-2.2261,-2.1849,-2.1704,-2.1535,-2.174,-2.273,-2.349,-2.4061,-2.4685,-2.4915,-2.5252,-2.5421,-2.5132,-2.5059,0.0,0.0,0.0,-2.6315,-2.6532,-2.6444,-2.5966,-2.5857,-2.5487,-2.4928,-2.4649,-2.457,-2.4797,-2.4657,-2.4613,-2.4689,-2.4724,-2.4872,-2.4956,-2.4885,-2.4886,-2.4918,-2.4608,-2.4437,-2.433,-2.4144,-2.4118,-2.4107,-2.3989,-2.3957,-2.3967,-2.3806,-2.3601,-2.3397,-2.3397,-2.3343,-2.3289,-2.3375,-2.3397,-2.3343,-2.302,-2.2751,-2.2428,-2.1793,-2.1782,-2.1976,-2.1986,-2.204,-2.2116,-2.2191,-2.1663,-2.1082,-2.0834,-2.0479,-2.021,-2.021,-2.021,-2.021,-2.021,-1.9876,-1.9413,-1.8864,-1.8918,-1.9025,-1.9025,-1.923,-1.9284,-1.9047,-1.9025,-1.9058,-1.9071,-1.9284,-1.9445,-1.9607,-1.9758,-1.9854,-1.9628,-1.9844,-1.9887,-1.9725,-1.9575,-1.9456,-1.937,-1.9146,-1.9025,-1.8789,-1.9122,-1.9402,-2.1643,-2.2576,-2.3164,-2.3418,-2.3568,-2.3676,-2.3411,-2.3212,-2.2854,-2.1957,-2.0955,-2.0291,0.0,0.0,-2.0279,-2.1619,-2.273,-2.3531,-2.4142,-2.4902,-2.5421,0.0,0.0,0.0,0.0,0.0,0.0,-2.5808,0.0,-2.6169,-2.5284,-2.5423,-2.5215,-2.4534,-2.4441,-2.4549,-2.4764,-2.4764,-2.4657,-2.4452,-2.4629,-2.4702,-2.4556,-2.464,-2.4691,-2.4502,-2.4502,-2.428,-2.4075,-2.4064,-2.4064,-2.4043,-2.3832,-2.3767,-2.3842,-2.3821,-2.3591,-2.3397,-2.3397,-2.3257,-2.3106,-2.3311,-2.3386,-2.3289,-2.2815,-2.2503,-2.2212,-2.1739,-2.1782,-2.1965,-2.1976,-2.2148,-2.2256,-2.1997,-2.1394,-2.0823,-2.0597,-2.0361,-2.0199,-2.0199,-2.0199,-2.0188,-2.0167,-1.9521,-1.9058,-1.881,-1.8767,-1.8767,-1.8778,-1.8982,-1.9047,-1.881,-1.8767,-1.8864,-1.9039,-1.9071,-1.9348,-1.9876,-1.9919,-1.9919,-1.9919,-1.9908,-1.9725,-1.9499,-1.9478,-1.9359,-1.906,-1.906,-1.9015,-1.8799,-1.9284,-1.9639,-2.2588,-2.3321,-2.39,-2.378,-2.3568,-2.3399,-2.3212,-2.2866,-2.22,-2.0931,-1.9989,-1.9338,0.0,0.0,0.0,-2.1122,-2.2331,0.0,-2.3864,-2.4554,0.0,-2.5059,0.0,-2.5216,-2.5421,-2.5264,0.0,0.0,-2.6134,-2.5968,-2.5273,-2.5423,-2.5137,-2.4204,-2.4204,-2.4226,-2.429,-2.429,-2.4258,-2.4204,-2.4209,-2.4394,-2.4502,-2.4312,-2.421,-2.416,-2.4059,-2.3835,-2.3569,-2.3561,-2.3596,-2.3607,-2.354,-2.358,-2.3821,-2.3548,-2.3451,-2.3397,-2.3397,-2.3365,-2.3289,-2.3171,-2.3138,-2.3052,-2.2568,-2.2256,-2.1965,-2.1491,-2.1653,-2.1933,-2.176,-2.19,-2.1976,-2.1556,-2.1039,-2.0587,-2.035,-2.0113,-2.0016,-2.0016,-2.0016,-1.9833,-1.9478,-1.92,-1.8932,-1.8584,-1.8519,-1.8584,-1.8756,-1.8832,-1.8853,-1.8789,-1.8627,-1.8616,-1.8853,-1.9047,-1.9273,-1.9564,-1.9822,-1.9919,-1.9919,-1.9682,-1.9564,-1.9499,-1.9144,-1.8939,-1.8875,-1.8875,-1.8842,-1.8799,-1.953,-1.9887,-2.3212,-2.3804,-2.4178,-2.3913,-2.3568,-2.3207,-2.2669,-2.2103,-2.1185,-1.9857,-1.8662,-1.7877,-1.7974,-1.801,0.0,0.0,0.0,0.0,-2.3406,-2.4383,-2.4963,0.0,-2.5059,0.0,-2.5421,-2.5216,-2.5385,0.0,-2.6073,-2.5896,-2.5273,-2.5423,-2.5114,-2.4118,-2.4118,-2.4064,-2.3957,-2.3823,-2.3823,-2.3957,-2.3849,-2.3951,-2.415,-2.3875,-2.3781,-2.3785,0.0,-2.3497,-2.3397,-2.3399,-2.3367,-2.3378,-2.3365,-2.3483,-2.358,-2.3451,-2.3397,-2.3386,-2.3278,-2.3246,-2.3225,-2.3095,-2.2977,-2.2805,-2.232,-2.2008,-2.1739,-2.1383,-2.1609,-2.1911,-2.1685,-2.1803,-2.19,-2.1513,-2.0985,-2.0533,-2.0393,-2.0091,-1.9919,-1.9919,-1.9919,-1.9811,-1.937,-1.9146,-1.8953,-1.8649,-1.8498,-1.8476,-1.8616,-1.8627,-1.8627,-1.8627,-1.8509,-1.853,-1.8767,-1.8907,-1.909,-1.9327,-1.9467,-1.9542,-1.9542,-1.9413,-1.9295,-1.9187,-1.8918,-1.8735,-1.8627,-1.8735,-1.8842,-1.8961,-1.9671,-2.0134,-2.3816,-2.4118,-2.4214,-2.3925,-2.3519,-2.3056,-2.1957,-2.1028,-2.0014,-1.865,-1.7141,-1.6223,-1.673,-1.6694,-1.7189,-1.9012,0.0,-2.1993,-2.2903,-2.4094,-2.4867,-2.4903,-2.5252,-2.5433,-2.5433,-2.5433,-2.548,-2.5769,-2.601,-2.5796,-2.5227,-2.5377,-2.5047,-2.4021,-2.4021,-2.3914,-2.3788,-2.3554,-2.3544,-2.3756,-2.3504,-2.3515,-2.3756,-2.3531,-2.3356,-2.3354,0.0,0.0,-2.33,-2.33,-2.33,-2.33,-2.33,-2.3343,-2.3397,-2.3397,-2.3397,-2.3365,-2.3171,-2.3052,-2.2998,-2.2998,-2.2837,-2.2557,-2.2105,-2.1803,-2.1577,-2.1383,-2.1631,-2.1911,-2.1685,-2.1803,-2.1911,-2.1599,-2.105,-2.0587,-2.0533,-2.0243,-1.9919,-1.9919,-1.9919,-1.9844,-1.9542,-1.9327,-1.9101,-1.8821,-1.8616,-1.8466,-1.8363,-1.8433,-1.8433,-1.8433,-1.8433,-1.8519,-1.8724,-1.8767,-1.8875,-1.9017,-1.906,-1.9082,-1.9082,-1.905,-1.9004,-1.8789,-1.8789,-1.8702,-1.846,-1.8799,-1.9047,-1.9232,-1.9994,-2.0404,-2.4468,-2.4528,-2.4444,-2.388,-2.3309,-2.2452,-2.1172,-1.9917,0.0,0.0,-1.5789,-1.5077,-1.539,-1.5765,-1.6573,-1.8227,-1.9833,-2.1304,-2.2259,-2.3538,-2.4456,0.0,-2.5132,-2.5433,-2.5433,-2.5433,0.0,0.0,0.0,-2.5371,-2.4886,-2.4767,-2.4351,-2.3526,-2.3526,-2.3504,-2.3461,-2.3379,-2.3415,-2.3466,-2.3394,-2.3383,-2.3466,-2.3432,-2.3268,-2.3106,0.0,0.0,-2.2805,-2.2805,-2.2805,-2.2805,-2.2805,-2.3052,-2.3397,-2.3397,-2.3397,-2.3397,-2.3354,-2.3074,-2.2751,-2.2751,-2.2589,-2.2342,-2.2072,-2.1814,-2.1609,-2.1566,-2.176,-2.1911,-2.1685,-2.1803,-2.1825,-2.1179,-2.0931,-2.0737,-2.0361,-2.0048,-1.9919,-1.9919,-1.9919,-1.9844,-1.9542,-1.9467,-1.9295,-1.8853,-1.8745,-1.8649,-1.8466,-1.8433,-1.8433,-1.8433,-1.8433,-1.8455,-1.8498,-1.867,-1.8799,-1.8842,-1.9036,-1.9082,-1.9082,-1.8961,-1.8821,-1.8789,-1.8789,-1.8864,-1.8953,-1.9456,-1.979,-2.0037,-2.0544,-2.0705,-2.4806,-2.4745,-2.4504,-2.3892,-2.314,-2.214,-2.0593,0.0,0.0,0.0,-1.492,-1.4171,-1.4437,-1.4799,0.0,-1.7201,-1.8807,-2.0255,-2.1462,-2.3019,0.0,-2.4395,-2.5023,-2.5433,0.0,-2.5177,0.0,0.0,0.0,0.0,-2.4823,-2.4384,-2.3903,-2.3408,-2.3278,-2.3214,-2.3214,-2.3072,-2.3128,-2.3205,-2.3128,-2.3128,-2.3205,-2.3052,-2.2966,-2.2858,-2.2858,0.0,-2.2686,-2.2686,-2.2686,-2.2697,-2.2826,-2.302,-2.3235,-2.3354,-2.3397,-2.3386,-2.3257,-2.3063,-2.2848,-2.2729,-2.2439,-2.2126,-2.2008,-2.1728,-2.1437,-2.1437,-2.1706,-2.19,-2.1534,-2.1717,-2.1846,-2.1243,-2.091,-2.063,-2.0285,-2.0027,-1.9919,-1.9919,-1.9919,-1.9887,-1.9704,-1.9575,-1.9424,-1.9187,-1.9047,-1.8885,-1.8649,-1.8616,-1.8573,-1.8374,-1.8433,-1.8433,-1.8433,-1.8541,-1.8605,-1.8605,-1.8713,-1.8706,-1.8706,-1.8778,-1.8842,-1.8972,-1.909,-1.9273,-1.951,-1.9865,-2.0167,-2.0404,-2.0619,-2.0727,-2.4903,-2.4842,-2.4504,-2.3892,-2.3007,-2.174,-2.0086,-1.842,0.0,-1.5511,-1.4183,-1.335,-1.3676,-1.3906,-1.4558,0.0,-1.7648,-1.9132,-2.0589,-2.2331,-2.3671,0.0,-2.4866,0.0,-2.5263,0.0,0.0,0.0,0.0,0.0,-2.4536,-2.4023,-2.3515,-2.3332,-2.3095,-2.2977,-2.2977,-2.2848,-2.288,-2.3074,-2.2945,-2.2966,-2.3117,-2.2923,-2.2837,-2.2837,-2.2837,0.0,0.0,-2.2762,-2.2729,-2.2708,-2.2891,-2.2922,-2.3074,-2.3257,-2.3321,-2.33,-2.3117,-2.2932,-2.2945,-2.274,-2.2395,-2.204,-2.1986,-2.1685,-2.1351,-2.1351,-2.162,-2.1825,-2.1448,-2.1631,-2.1803,-2.1383,-2.091,-2.0511,-2.0328,-2.0059,-1.9919,-1.9919,-1.9962,-1.993,-1.993,-1.9768,-1.9639,-1.9585,-1.937,-1.9133,-1.8896,-1.8864,-1.8789,-1.8535,-1.8498,-1.8433,-1.8433,-1.8476,-1.8509,-1.8509,-1.8562,-1.8513,-1.8513,-1.881,-1.9025,-1.9146,-1.951,-1.9768,-2.0081,-2.0242,-2.049,-2.0716,-2.0662,-2.0705,-2.4951,-2.4842,-2.4504,-2.3892,-2.2862,-2.1426,-1.9567,0.0,-1.6018,-1.4678,-1.335,-1.2578,-1.3097,-1.3173,-1.3676,-1.5028,-1.6392,-1.7817,-1.9386,-2.1292,-2.2778,-2.3768,0.0,0.0,0.0,0.0,0.0,0.0,0.0,0.0,0.0,-2.3354,-2.3018,-2.3085,-2.2848,-2.2805,-2.2999,-2.2988,-2.3128,-2.3347,-2.3319,-2.3383,-2.3365,-2.3343,-2.3332,-2.3332,0.0,0.0,0.0,-2.2932,-2.288,-2.2686,-2.2708,-2.2848,-2.2965,-2.3074,-2.3085,-2.2986,-2.2975,-2.2902,-2.2718,-2.2697,-2.2514,-2.2266,-2.2051,-2.1803,-2.1588,-2.1588,-2.162,-2.1642,-2.1599,-2.162,-2.1588,-2.134,-2.091,-2.0554,-2.0533,-2.0243,-1.9919,-1.9919,-2.0027,-2.0177,-2.0177,-2.0167,-2.007,-1.9919,-1.9618,-1.9381,-1.9144,-1.9039,-1.9039,-1.9017,-1.862,-1.8433,-1.8433,-1.8627,-1.8756,-1.8756,-1.8961,-1.9017,-1.9017,-1.9305,-1.9445,-1.9467,-1.9919,-2.0264,-2.0578,-2.0727,-2.0963,-2.1211,-2.0974,-2.077,-2.4386,-2.448,-2.4226,-2.3538,-2.2367,-2.0895,-1.9024,-1.7153,-1.5475,-1.4304,-1.3254,-1.2614,-1.2831,-1.3012,-1.3447,-1.4461,-1.5608,-1.6923,-1.8541,-2.0231,-2.1704,-2.2766,0.0,0.0,0.0,0.0,0.0,0.0,0.0,0.0,0.0,-2.3365,-2.3257,-2.3257,-2.2986,-2.2955,-2.2999,-2.288,-2.288,-2.2967,-2.2998,-2.302,-2.2966,-2.2966,-2.2966,-2.2966,0.0,0.0,0.0,-2.2826,-2.2772,-2.2686,-2.2686,-2.274,-2.2848,-2.2998,-2.2965,-2.2965,-2.2965,-2.2988,-2.2858,-2.2568,-2.2406,-2.2288,-2.2051,-2.1717,-2.1416,-2.1416,-2.1513,-2.1588,-2.1448,-2.1416,-2.1394,-2.1297,-2.091,-2.0565,-2.0565,-2.0265,-1.9919,-1.9919,-1.993,-2.0037,-2.0188,-2.021,-2.0177,-2.0081,-1.9994,-1.979,-1.9413,-1.9359,-1.9305,-1.9092,-1.891,-1.8792,-1.8792,-1.895,-1.9068,-1.9208,-1.9305,-1.9424,-1.9564,-1.9801,-1.9994,-2.0134,-2.0457,-2.0748,-2.0996,-2.1082,-2.1103,-2.105,-2.0813,-2.0576,-2.3756,-2.3997,-2.3925,-2.3206,-2.1994,-2.0472,-1.8698,-1.6839,-1.5197,-1.4123,-1.3206,-1.2614,-1.2687,-1.2807,-1.3145,-1.393,-1.4823,-1.5958,-1.7491,-1.9012,0.0,0.0,0.0,0.0,0.0,0.0,0.0,0.0,0.0,0.0,0.0,-2.3311,-2.3233,-2.3233,-2.304,-2.2911,-2.3032,-2.2848,-2.2805,-2.2913,-2.2869,-2.2891,-2.2891,-2.2891,-2.2891,-2.2891,0.0,0.0,0.0,-2.2794,-2.2751,-2.2686,-2.2686,-2.2686,-2.2708,-2.288,-2.2945,-2.2945,-2.2945,-2.2945,-2.2869,-2.2471,-2.2288,-2.2191,-2.1943,-2.1631,-2.1362,-2.1297,-2.1394,-2.148,-2.1319,-2.1276,-2.1276,-2.1276,-2.091,-2.0565,-2.0565,-2.0265,-1.9919,-1.9919,-1.9984,-2.0016,-2.0188,-2.0274,-2.0317,-2.0317,-2.0317,-2.0199,-1.9854,-1.9811,-1.9747,-1.9585,-1.9564,-1.9456,-1.9103,-1.9273,-1.9424,-1.9596,-1.9736,-1.9887,-2.0125,-2.0296,-2.05,-2.0662,-2.0899,-2.1103,-2.1276,-2.12,-2.1071,-2.0899,-2.0597,-2.0328,-2.306,-2.3442,-2.3659,-2.285,-2.1728,-2.0255,-1.8662,-1.6839,-1.5197,-1.4123,-1.3061,-1.2397,-1.265,-1.2493,-1.259,-1.3387,-1.3966,-1.4787,-1.6139,-1.7479,0.0,0.0,0.0,0.0,0.0,0.0,0.0,0.0,0.0,0.0,0.0,-2.3029,-2.2984,-2.2984,-2.2848,-2.2783,-2.2967,-2.3021,-2.3095,-2.3358,-2.341,-2.3386,-2.3386,-2.3386,-2.3386,0.0,0.0,0.0,0.0,-2.2965,-2.2902,-2.2686,-2.2686,-2.2686,-2.2686,-2.2686,-2.2686,-2.2686,-2.2686,-2.2686,-2.2643,-2.2406,-2.218,-2.1954,-2.1696,-2.162,-2.1566,-2.134,-2.1276,-2.1276,-2.1276,-2.1276,-2.1276,-2.1276,-2.091,-2.0565,-2.0565,-2.0265,-1.9919,-1.9919,-2.0048,-2.021,-2.021,-2.0404,-2.0643,-2.0643,-2.0643,-2.0554,-2.0554,-2.0554,-2.0554,-2.0544,-2.0544,-2.0167,-1.9157,-1.9575,-1.9919,-1.9919,-2.0362,-2.0554,-2.0554,-2.078,-2.0899,-2.0899,-2.1147,-2.1276,-2.1276,-2.1028,-2.091,-2.0888,-2.0436,-2.0091,-2.1643,-2.2211,-2.2524,-2.1547,-2.0638,-1.9386,-1.7612,-1.6042,-1.4714,-1.3821,-1.3073,-1.2602,-1.2687,-1.2638,-1.2783,-1.3411,-1.3809,-1.4558,0.0,0.0,0.0,0.0,0.0,0.0,0.0,0.0,0.0,0.0,0.0,0.0,0.0,-2.2815,-2.2977,-2.3222,-2.3037,-2.2909,-2.3032,-2.2848,-2.2815,-2.2935,-2.2891,-2.2912,-2.2912,-2.2912,0.0,0.0,0.0,0.0,0.0,-2.2794,-2.2751,-2.2686,-2.2686,-2.2686,-2.2686,-2.2686,-2.2686,-2.2686,-2.2686,-2.2686,-2.2622,-2.2223,-2.2051,-2.1911,-2.1513,-2.1383,-2.1373,-2.1297,-2.1276,-2.1276,-2.1276,-2.1276,-2.1233,-2.106,-2.0791,-2.0522,-2.0361,-2.007,-1.9919,-1.9919,-1.9984,-2.0016,-2.0188,-2.0274,-2.0382,-2.0544,-2.033,-2.0006,-1.9771,-1.9457,-1.9143,-1.875,-1.875,-1.9111,-2.0058,-2.0253,-2.0404,-2.0554,-2.0716,-2.0877,-2.1039,-2.1125,-2.1082,-2.091,-2.0985,-2.0942,-2.0791,-2.0705,-2.0587,-2.0425,-2.0113,-1.9995,-1.9905,-2.0747,-2.1003,-2.0134,-1.9314,-1.8336,-1.6887,-1.5523,-1.4364,-1.3664,-1.3085,-1.2699,-1.2699,-1.2699,-1.288,-1.3423,-1.3737,-1.4437,0.0,0.0,0.0,0.0,0.0,0.0,0.0,0.0,0.0,0.0,0.0,0.0,0.0,0.0,-2.2815,-2.3117,-2.2941,-2.2877,-2.2912,-2.2762,-2.2686,-2.2686,-2.2686,-2.2686,-2.2686,-2.2686,0.0,0.0,0.0,0.0,0.0,-2.2514,-2.2557,-2.2557,-2.2643,-2.2686,-2.2686,-2.2686,-2.2686,-2.2686,-2.2686,-2.2622,-2.2492,-2.2105,-2.1868,-2.1663,-2.1373,-2.1276,-2.1276,-2.1276,-2.1276,-2.1276,-2.1276,-2.1211,-2.1093,-2.0942,-2.0662,-2.0393,-2.0242,-2.0027,-1.9919,-1.9919,-1.9919,-1.9973,-2.0048,-2.0156,-2.0264,-2.0404,-2.0032,-1.9457,-1.8887,-1.8334,-1.7826,-1.719,-1.7173,-1.7618,-1.8736,-1.9541,-2.0116,-2.0421,-2.0676,-2.0954,-2.1276,-2.119,-2.106,-2.091,-2.0823,-2.0705,-2.0565,-2.0479,-2.0307,-2.007,-1.9995,-1.9919,0.0,-1.8915,-1.9253,-1.8734,-1.8022,-1.7237,-1.6416,-1.5209,0.0,-1.3592,-1.3073,-1.2711,-1.2735,-1.2735,-1.2916,-1.3483,-1.3797,-1.4437,0.0,0.0,0.0,0.0,0.0,0.0,0.0,0.0,0.0,0.0,0.0,0.0,0.0,0.0,-2.2665,-2.2632,-2.2632,-2.2654,-2.2686,-2.2686,-2.2686,-2.2686,-2.2686,-2.2686,-2.2686,-2.2665,0.0,0.0,0.0,0.0,0.0,-2.2223,-2.2309,-2.2331,-2.2546,-2.2643,-2.2654,-2.2654,-2.2665,-2.2675,-2.2665,-2.2514,-2.2288,-2.2029,-2.1642,-2.1276,-2.1276,-2.1276,-2.1276,-2.1276,-2.1276,-2.1276,-2.1276,-2.1103,-2.092,-2.0888,-2.0554,-2.0231,-2.0199,-2.0005,-1.9919,-1.9919,-1.9919,-1.9919,-1.9919,-2.0037,-2.0111,-2.0133,-1.9528,-1.8877,-1.8012,-1.7306,-1.6538,-1.5731,-1.5723,-1.5827,-1.5843,-1.7647,-1.9003,-1.9474,-2.0159,-2.0677,-2.1233,-2.1007,-2.0877,-2.0856,-2.063,-2.0511,-2.0511,-2.0296,-2.007,-1.9919,-1.9919,-1.9919,-1.6042,0.0,-1.8444,-1.7901,-1.7479,-1.6863,0.0,-1.4666,-1.3845,-1.3282,-1.294,-1.2771,-1.2988,-1.3025,-1.3266,-1.399,-1.434,-1.5065,0.0,0.0,0.0,0.0,0.0,0.0,0.0,0.0,0.0,0.0,0.0,0.0,0.0,0.0,-2.2332,-2.2148,-2.2148,-2.2331,-2.2675,-2.2686,-2.2686,-2.2686,-2.2686,-2.2686,-2.2675,-2.2492,0.0,0.0,0.0,0.0,-2.1976,-2.2029,-2.2051,-2.2062,-2.2116,-2.2245,-2.2417,-2.2417,-2.2525,-2.2654,-2.2482,-2.2385,-2.2266,-2.1836,-2.1513,-2.1276,-2.1276,-2.1276,-2.1276,-2.1276,-2.1276,-2.1276,-2.1276,-2.1233,-2.1093,-2.0727,-2.0554,-2.0382,-2.0016,-1.9962,-1.9919,-1.9919,-1.9919,-1.9919,-1.9919,-1.967,-1.9385,-1.9332,-1.831,-1.7295,-1.6344,-1.5457,-1.4647,-1.3884,-1.3846,-1.3917,-1.4031,-1.5975,-1.7602,-1.8583,-1.9023,-1.9714,-2.0737,-2.0673,-2.0554,-2.0382,-2.0134,-2.0092,-2.0092,-2.0038,-1.9984,-1.9919,-1.9919,-1.9919,-1.5173,-1.6235,-1.7117,-1.6827,-1.6465,-1.5958,-1.5125,-1.4208,-1.3471,-1.3137,-1.2904,-1.2795,-1.3029,-1.3314,-1.3701,-1.4377,-1.5028,0.0,0.0,0.0,0.0,0.0,0.0,0.0,0.0,0.0,0.0,0.0,0.0,0.0,0.0,0.0,-2.2149,-2.1976,-2.2041,-2.215,-2.2352,-2.2352,-2.2352,-2.2352,-2.2363,-2.2363,-2.2363,-2.2342,0.0,0.0,0.0,0.0,-2.1803,-2.1803,-2.1803,-2.1814,-2.1922,-2.2051,-2.2169,-2.2169,-2.2245,-2.2342,-2.2212,-2.2094,-2.1943,-2.1577,-2.1373,-2.1276,-2.1276,-2.1276,-2.1276,-2.1276,-2.1276,-2.1276,-2.1276,-2.119,-2.1039,-2.078,-2.0554,-2.0328,-2.007,-2.0006,-1.9919,-1.9919,-1.9919,-1.9919,-1.9919,-1.939,-1.8749,-1.8335,-1.7038,-1.5682,-1.4367,-1.3433,-1.2715,-1.1913,-1.19,-1.1968,-1.2037,-1.3261,-1.4954,-1.7038,-1.768,-1.8382,-1.9379,-1.9355,-1.9202,-1.8891,-1.8846,-1.8774,-1.8774,-1.8774,-1.8774,-1.8774,-1.8774,-1.881,-1.4944,-1.5487,-1.5897,-1.5934,-1.5644,-1.5258,-1.492,-1.4039,-1.329,-1.3254,-1.3025,-1.2928,-1.3242,-1.3737,-1.4292,-1.492,0.0,0.0,0.0,0.0,0.0,0.0,0.0,0.0,0.0,0.0,0.0,0.0,0.0,0.0,0.0,0.0,0.0,-2.1868,-2.1921,-2.19,-2.1857,-2.1933,-2.1965,-2.1965,-2.1986,-2.1986,-2.1997,-2.2148,-2.2126,0.0,0.0,0.0,-2.162,-2.162,-2.1599,-2.1588,-2.1782,-2.1879,-2.1911,-2.1911,-2.1933,-2.1965,-2.1922,-2.176,-2.1534,-2.134,-2.1276,-2.1276,-2.1276,-2.1276,-2.1276,-2.1276,-2.1276,-2.1276,-2.1276,-2.1125,-2.0953,-2.091,-2.0576,-2.0253,-2.0221,-2.0027,-1.9919,-1.9919,-1.9844,-1.9768,-1.9693,-1.8926,-1.8016,-1.7178,-1.5727,-1.4114,-1.2488,-1.1751,-1.0972,-1.0278,-1.0297,-1.0367,-1.0384,-1.0769,-1.216,-1.4934,-1.5935,-1.6704,-1.7622,-1.7455,-1.7279,-1.7017,-1.7017,-1.7017,-1.7017,-1.7054,-1.7063,-1.7063,-1.7051,-1.7272,-1.4896,-1.5487,-1.5946,-1.6163,-1.6344,-1.6272,-1.5547,-1.4727,-1.4051,-1.3833,-1.3568,-1.3544,-1.4026,-1.4558,-1.5246,0.0,0.0,0.0,0.0,0.0,0.0,0.0,0.0,0.0,0.0,0.0,0.0,0.0,0.0,0.0,0.0,0.0,0.0,-2.1394,-2.14,-2.14,-2.1383,-2.1793,-2.1986,-2.1965,-2.1965,-2.1976,-2.1965,-2.1803,-2.1814,0.0,0.0,-2.1653,-2.162,-2.162,-2.1502,-2.134,-2.1373,-2.1502,-2.1674,-2.1674,-2.1803,-2.1965,-2.1749,-2.1523,-2.1319,-2.1286,-2.1276,-2.1276,-2.1276,-2.1276,-2.1276,-2.1276,-2.1276,-2.1276,-2.1276,-2.1254,-2.1168,-2.0953,-2.0705,-2.0457,-2.0253,-2.0027,-1.9919,-1.9919,-1.9542,-1.9163,-1.885,-1.7864,-1.6721,-1.5573,-1.4276,-1.2965,-1.165,-1.1047,-1.0554,-1.0272,-1.0221,-1.0275,-1.0378,-1.069,-1.1189,-1.1994,-1.3154,-1.4337,-1.5341,-1.5385,-1.5352,-1.525,-1.525,-1.525,-1.525,-1.5408,-1.5482,-1.5491,-1.5718,-1.5811,-1.4714,-1.5378,-1.5958,-1.6223,-1.6501,-1.6561,-1.6042,-1.5306,-1.4702,-1.4582,-1.4352,-1.4364,-1.504,0.0,-1.6501,-1.8155,0.0,0.0,0.0,0.0,0.0,0.0,0.0,0.0,0.0,0.0,0.0,0.0,0.0,0.0,0.0,0.0,0.0,0.0,-2.1276,-2.1276,-2.1276,-2.1491,-2.1599,-2.1599,-2.1599,-2.1599,-2.1599,-2.1609,-2.1674,-2.1771,0.0,-2.162,-2.1609,-2.148,-2.1373,-2.1276,-2.1276,-2.134,-2.1437,-2.1437,-2.1513,-2.1588,-2.147,-2.1362,-2.1276,-2.1276,-2.1276,-2.1276,-2.1276,-2.1276,-2.1276,-2.1276,-2.1276,-2.1276,-2.1276,-2.1276,-2.1254,-2.1136,-2.0823,-2.0533,-2.0425,-2.0113,-1.9919,-1.9919,-1.9315,-1.8699,-1.8092,-1.6797,-1.5344,-1.3876,-1.2804,-1.1727,-1.0719,-1.0408,-1.0197,-1.0095,-1.0106,-1.0128,-1.0182,-1.0291,-1.0728,-1.1588,-1.2447,-1.3113,-1.3575,-1.3568,-1.3568,-1.3568,-1.3568,-1.3612,-1.37,-1.3781,-1.3828,-1.3996,-1.4062,-1.4273,-1.457,-1.5161,-1.5728,-1.6187,-1.6598,-1.6827,-1.661,-1.6054,-1.5572,-1.5572,-1.5415,-1.5451,0.0,-1.6767,0.0,0.0,0.0,0.0,0.0,0.0,0.0,0.0,0.0,0.0,0.0,0.0,0.0,0.0,0.0,0.0,0.0,0.0,0.0,0.0,-2.1276,-2.1276,-2.1276,-2.1276,-2.1276,-2.1276,-2.1276,-2.1276,-2.1286,-2.1459,-2.1566,-2.162,-2.162,-2.162,-2.1609,-2.1426,-2.133,-2.1276,-2.1276,-2.1276,-2.1276,-2.1276,-2.1276,-2.1276,-2.1276,-2.1276,-2.1276,-2.1276,-2.1276,-2.1276,-2.1276,-2.1276,-2.1276,-2.1276,-2.1276,-2.1276,-2.1276,-2.1276,-2.1276,-2.1276,-2.0996,-2.0716,-2.0651,-2.0317,-1.9842,-1.9713,-1.8891,-1.7864,-1.7026,-1.5573,-1.4037,-1.2488,-1.1566,-1.0874,-1.0097,-1.0019,-1.0019,-1.0019,-1.0019,-1.0019,-1.0019,-1.0047,-1.0442,-1.1417,-1.1759,-1.1914,-1.1882,-1.1882,-1.1882,-1.1882,-1.1914,-1.1985,-1.2101,-1.2198,-1.2272,-1.2484,-1.2586,-1.2785,-1.457,-1.4763,-1.504,-1.603,-1.6863,-1.7418,-1.7406,-1.7165,-1.6948,-1.6948,-1.6936,-1.6936,-1.6996,-1.8046,0.0,0.0,0.0,0.0,0.0,0.0,0.0,0.0,0.0,0.0,0.0,0.0,0.0,0.0,0.0,0.0,0.0,0.0,0.0,0.0,0.0,-2.1276,-2.1276,-2.1276,-2.1276,-2.1276,-2.1276,-2.1276,-2.1276,-2.1297,-2.1416,-2.162,-2.162,-2.162,-2.162,-2.1599,-2.147,-2.1276,-2.1276,-2.1276,-2.1276,-2.1276,-2.1276,-2.1276,-2.1276,-2.1276,-2.1276,-2.1276,-2.1276,-2.1276,-2.1276,-2.1276,-2.1276,-2.1276,-2.1276,-2.1276,-2.1276,-2.1276,-2.1276,-2.1276,-2.1254,-2.1168,-2.0931,-2.0369,-1.9824,-1.9219,-1.7932,-1.6577,-1.5344,-1.4122,-1.2811,-1.1572,-1.0952,-1.0486,-1.0097,-1.0019,-1.0019,-1.0019,-1.0019,-1.0019,-1.0019,-1.0123,-1.0144,-1.0103,-1.0285,-1.0296,-1.018,-1.0175,-1.0175,-1.0175,-1.0291,-1.0352,-1.0363,-1.0699,-1.087,-1.0898,-1.1235,-1.1351,-1.4618,-1.4714,-1.4932,-1.5813,-1.6646,-1.737,-1.7877,-1.8034,-1.8179,-1.8505,-1.8565,-1.8565,-1.8565,0.0,0.0,0.0,0.0,0.0,0.0,0.0,0.0,0.0,0.0,0.0,0.0,0.0,0.0,0.0,0.0,0.0,0.0,0.0,0.0,0.0,0.0,-2.0834,-2.0834,-2.0834,-2.0834,-2.0834,-2.1136,-2.1276,-2.1276,-2.1276,-2.133,-2.1405,-2.1405,-2.1405,-2.1405,-2.1405,-2.1351,-2.1297,-2.1437,-2.1405,-2.1297,-2.1437,-2.1405,-2.1276,-2.1276,-2.1276,-2.1276,-2.1276,-2.1276,-2.1276,-2.1276,-2.1276,-2.1276,-2.1276,-2.1276,-2.1276,-2.1276,-2.1276,-2.1276,-2.1276,-2.1276,-2.1254,-2.1157,-2.0394,-1.9521,-1.8573,-1.7038,-1.5355,-1.38,-1.2715,-1.1729,-1.0872,-1.0566,-1.0434,-1.0346,-1.0291,-1.0275,-1.0346,-1.0351,-1.0351,-1.0351,-1.0536,-1.0563,-1.0367,-1.0259,-1.015,-1.0025,-1.0019,-1.0057,-1.0134,-1.0177,-1.0275,-1.0422,-1.0634,-1.0813,-1.0971,-1.1177,-1.1248,-1.4811,-1.4775,-1.4908,-1.5692,-1.6429,-1.7249,-1.83,-1.8807,-1.9193,-1.9627,-1.9784,-1.982,-1.9603,-1.9906,0.0,0.0,0.0,0.0,0.0,0.0,0.0,0.0,0.0,0.0,0.0,0.0,0.0,0.0,0.0,0.0,0.0,0.0,0.0,0.0,0.0,-2.0565,-2.0565,-2.0565,-2.0565,-2.0565,-2.0963,-2.1157,-2.1157,-2.1157,-2.12,-2.1276,-2.1276,-2.1276,-2.1276,-2.1276,-2.1276,-2.1297,-2.1534,-2.1523,-2.1405,-2.1566,-2.1523,-2.1373,-2.1308,-2.1276,-2.1276,-2.1276,-2.133,-2.1383,-2.1383,-2.1437,-2.148,-2.1405,-2.1383,-2.1373,-2.1297,-2.1195,-2.1054,-2.0966,-2.0866,-2.0836,-2.0672,-1.9803,-1.8713,-1.7627,-1.5981,-1.4189,-1.2635,-1.1763,-1.1083,-1.0453,-1.0384,-1.0427,-1.0541,-1.0454,-1.0416,-1.0492,-1.0536,-1.0639,-1.0639,-1.078,-1.0819,-1.0568,-1.0438,-1.0302,-1.0144,-1.0134,-1.0177,-1.0259,-1.0297,-1.0394,-1.0639,-1.0753,-1.0938,-1.1107,-1.1221,-1.1253,-1.5185,-1.492,-1.4908,-1.5704,-1.6308,-1.7129,-1.8722,-1.9507,-1.9977,-2.0243,-2.0496,-2.0536,-1.9861,-2.0157,0.0,0.0,0.0,0.0,0.0,0.0,0.0,0.0,0.0,0.0,0.0,0.0,0.0,0.0,0.0,0.0,0.0,0.0,0.0,0.0,0.0,0.0,-2.0554,-2.0554,-2.0554,-2.0643,-2.078,-2.0899,-2.0899,-2.091,-2.1039,-2.1276,-2.1276,-2.1276,-2.1276,-2.1276,-2.1276,-2.1297,-2.1534,-2.162,-2.162,-2.162,-2.162,-2.1577,-2.1362,-2.1276,-2.1276,-2.1276,-2.1437,-2.162,-2.162,-2.1782,-2.1922,-2.1685,-2.162,-2.1566,-2.134,-2.0962,-2.0527,-2.0251,-2.0056,-1.9793,-1.9278,-1.8509,-1.7466,-1.6262,-1.475,-1.3213,-1.1857,-1.1275,-1.0873,-1.047,-1.0389,-1.0433,-1.0541,-1.046,-1.0394,-1.0389,-1.0492,-1.0563,-1.0563,-1.0786,-1.0819,-1.0656,-1.0672,-1.0634,-1.0394,-1.0384,-1.0384,-1.0389,-1.0498,-1.0639,-1.0639,-1.0922,-1.1101,-1.1107,-1.1221,-1.121,-1.5584,-1.5463,-1.5499,-1.6489,-1.7286,-1.8143,-1.9362,-2.0062,-2.0726,-2.1813,-2.1497,-2.1053,-2.0838,-2.0359,0.0,0.0,0.0,0.0,0.0,0.0,0.0,0.0,0.0,0.0,0.0,0.0,0.0,0.0,0.0,0.0,0.0,0.0,0.0,0.0,0.0,0.0,-2.0135,-2.0135,-2.0135,-2.0135,-2.02,-2.0339,-2.0673,-2.1017,-2.1114,-2.1028,-2.12,-2.1276,-2.1276,-2.1276,-2.1276,-2.1297,-2.1534,-2.1523,-2.1394,-2.1556,-2.1513,-2.1373,-2.1297,-2.1383,-2.1513,-2.1513,-2.1685,-2.1879,-2.1868,-2.1922,-2.1965,-2.1889,-2.1618,-2.1264,-2.0869,-1.9933,-1.9154,-1.9225,-1.8885,-1.8452,-1.7588,-1.673,-1.5817,-1.4747,-1.3496,-1.2272,-1.1146,-1.0881,-1.0716,-1.0634,-1.0634,-1.0645,-1.0677,-1.0802,-1.0824,-1.065,-1.0819,-1.0938,-1.0938,-1.1161,-1.1194,-1.0954,-1.0976,-1.0813,-1.0405,-1.0384,-1.0422,-1.0503,-1.0623,-1.0596,-1.0683,-1.0878,-1.102,-1.1107,-1.1134,-1.1134,-1.5777,-1.6006,-1.6332,-1.7189,-1.8082,-1.9096,-2.0376,-2.0919,-2.1474,-2.2382,-2.1948,-2.1402,-2.1149,-2.049,0.0,0.0,0.0,0.0,0.0,0.0,0.0,0.0,0.0,0.0,0.0,0.0,0.0,0.0,0.0,0.0,0.0,0.0,0.0,0.0,0.0,0.0,-1.9919,-1.9919,-1.9919,-1.9919,-1.9941,-2.0091,-2.0373,-2.077,-2.0963,-2.091,-2.106,-2.1125,-2.1136,-2.1243,-2.1276,-2.1297,-2.1534,-2.1534,-2.1426,-2.1566,-2.1534,-2.1405,-2.1308,-2.1373,-2.1502,-2.1588,-2.1793,-2.2008,-2.2083,-2.2191,-2.2245,-2.2148,-2.1684,-2.0989,-2.0214,-1.8902,-1.7835,-1.7957,-1.7511,-1.675,-1.5953,-1.5184,-1.4444,-1.3601,-1.2736,-1.1857,-1.0919,-1.0808,-1.0808,-1.0808,-1.0889,-1.0933,-1.0889,-1.1009,-1.1047,-1.09,-1.1014,-1.1123,-1.1166,-1.1346,-1.1373,-1.1183,-1.1128,-1.0949,-1.0612,-1.0552,-1.0558,-1.0628,-1.0628,-1.0661,-1.0737,-1.0857,-1.096,-1.1031,-1.1031,-1.1031,-1.5861,-1.6537,-1.7274,-1.7865,-1.8843,-2.0117,-2.1559,-2.1909,-2.1981,-2.2321,0.0,-2.1452,-2.086,0.0,0.0,0.0,0.0,0.0,0.0,0.0,0.0,0.0,0.0,0.0,0.0,0.0,0.0,0.0,0.0,0.0,0.0,0.0,0.0,0.0,0.0,0.0,-1.9919,-1.9919,-1.9919,0.0,-2.007,-2.0081,-1.9973,-2.035,-2.0684,-2.0899,-2.0931,-2.092,-2.092,-2.1147,-2.1233,-2.1233,-2.1437,-2.1534,-2.1556,-2.1556,-2.1566,-2.1556,-2.1351,-2.1297,-2.134,-2.1556,-2.1803,-2.2062,-2.2277,-2.2492,-2.2557,-2.2257,-2.1501,-2.0502,-1.9269,-1.7751,-1.6506,-1.642,-1.5734,-1.4995,-1.4163,-1.3748,-1.3274,-1.271,-1.2243,-1.172,-1.1061,-1.0938,-1.0938,-1.0938,-1.1128,-1.1232,-1.1118,-1.1112,-1.1112,-1.1107,-1.1101,-1.1145,-1.1248,-1.1357,-1.1373,-1.1264,-1.1161,-1.1047,-1.0927,-1.0802,-1.0737,-1.0737,-1.0737,-1.0737,-1.0737,-1.0851,-1.0916,-1.0938,-1.0927,-1.0933,-1.6223,-1.6948,-1.7672,-1.8831,-2.0098,-2.1245,-2.2005,-2.2174,-2.2321,-2.2588,-2.1877,-2.1256,0.0,0.0,0.0,0.0,0.0,0.0,0.0,0.0,0.0,0.0,0.0,0.0,0.0,0.0,0.0,0.0,0.0,0.0,0.0,0.0,0.0,0.0,0.0,-1.9919,-1.9919,-1.9919,-1.9919,0.0,-1.9973,-1.9994,-2.0145,-2.0436,-2.0684,-2.091,-2.1114,-2.1082,-2.091,-2.0963,-2.0877,-2.0716,-2.077,-2.0899,-2.106,-2.106,-2.1179,-2.134,-2.1297,-2.1394,-2.1556,-2.1599,-2.1911,-2.2266,-2.232,-2.2246,-2.2071,-2.1587,-2.0529,-1.9209,-1.794,-1.6482,-1.5118,-1.3973,-1.3533,-1.3192,-1.2331,-1.1982,-1.1888,-1.1776,-1.1604,-1.14,-1.1085,-1.1063,-1.1063,-1.1063,-1.1183,-1.1232,-1.1118,-1.1183,-1.1199,-1.1112,-1.1101,-1.1112,-1.1134,-1.1161,-1.1166,-1.1139,-1.1118,-1.1047,-1.0927,-1.0802,-1.0737,-1.0737,-1.0737,-1.0737,-1.0737,-1.0764,-1.0873,-1.1058,-1.0965,-1.102,-1.6151,-1.7177,-1.8287,-2.0002,-2.1052,-2.1776,-2.2249,-2.2184,-2.207,-2.2214,-2.1604,0.0,0.0,0.0,0.0,0.0,0.0,0.0,0.0,0.0,0.0,0.0,0.0,0.0,0.0,0.0,0.0,0.0,0.0,0.0,0.0,0.0,0.0,0.0,-1.9919,-1.9919,-1.9919,-1.9919,-1.9919,-1.9919,-1.9919,-1.9919,-2.0048,-2.0285,-2.0457,-2.0587,-2.0834,-2.0867,-2.0759,-2.0985,-2.0942,-2.0727,-2.0727,-2.0737,-2.0748,-2.0867,-2.0985,-2.1114,-2.1243,-2.1351,-2.147,-2.1577,-2.1793,-2.2029,-2.2266,-2.1905,-2.1322,-2.0819,-1.9457,-1.7797,-1.621,-1.4896,-1.3673,-1.252,-1.2432,-1.2343,-1.1632,-1.1543,-1.1543,-1.1543,-1.14,-1.1324,-1.1204,-1.1183,-1.1183,-1.1183,-1.1286,-1.134,-1.1281,-1.127,-1.1248,-1.1188,-1.1134,-1.1101,-1.1101,-1.1101,-1.1123,-1.1183,-1.1134,-1.1101,-1.109,-1.0916,-1.0797,-1.0737,-1.0737,-1.0737,-1.0737,-1.0797,-1.0889,-1.1014,-1.1009,-1.1074,-1.582,-1.7382,-1.9036,-2.0921,-2.1607,0.0,-2.2049,-2.181,-2.1585,-2.151,0.0,0.0,0.0,0.0,0.0,0.0,0.0,0.0,0.0,0.0,0.0,0.0,0.0,0.0,0.0,0.0,0.0,0.0,0.0,0.0,0.0,0.0,-1.9919,-1.9919,-1.9919,-1.9919,-1.9919,-1.9919,-1.9919,-1.9919,-1.9919,-1.9919,-1.993,-2.0059,-2.0177,-2.0231,-2.05,-2.0597,-2.0597,-2.1039,-2.105,-2.078,-2.078,-2.0673,-2.0533,-2.0759,-2.0867,-2.0931,-2.1147,-2.1243,-2.1216,-2.1203,-2.1227,-2.1365,-2.1716,-2.1183,-2.0304,-1.9643,-1.813,-1.6298,-1.4536,-1.3394,-1.252,-1.1721,-1.181,-1.1988,-1.1543,-1.1543,-1.1543,-1.1543,-1.1438,-1.1389,-1.1291,-1.127,-1.1281,-1.1302,-1.1389,-1.1543,-1.1543,-1.1346,-1.127,-1.127,-1.115,-1.1074,-1.1074,-1.1052,-1.1096,-1.1232,-1.1156,-1.1156,-1.127,-1.1085,-1.0916,-1.077,-1.0748,-1.0737,-1.0737,-1.0857,-1.0933,-1.0954,-1.1074,-1.1145,-1.5269,-1.7649,-1.9886,0.0,-2.1158,-2.1355,0.0,0.0,-2.106,0.0,0.0,0.0,0.0,0.0,0.0,0.0,0.0,0.0,0.0,0.0,0.0,0.0,0.0,0.0,0.0,0.0,0.0,0.0,0.0,0.0,0.0,-1.9919,-1.9919,-1.9919,-1.9919,-1.9919,-1.9919,-1.9919,-1.9919,-1.9919,-1.9919,-1.9919,-1.9919,-1.9952,-2.0016,-2.0242,-2.0673,-2.0748,-2.0587,-2.0845,-2.0694,-2.0307,-2.0307,-2.0285,-2.0285,-2.0522,-2.0737,-2.091,-2.0942,-2.0852,-2.0607,-2.0027,-1.9906,-1.9927,-1.9755,-1.9184,-1.8423,-1.7651,-1.6393,-1.4903,-1.3489,-1.2698,-1.2165,-1.1632,-1.1543,-1.1543,-1.1543,-1.1543,-1.1543,-1.1543,-1.1368,-1.1291,-1.1275,-1.127,-1.1308,-1.1505,-1.1533,-1.1543,-1.1543,-1.1346,-1.127,-1.127,-1.1074,-1.0944,-1.0944,-1.0846,-1.0884,-1.1112,-1.1112,-1.1156,-1.127,-1.1243,-1.1123,-1.09,-1.0791,-1.0737,-1.0737,-1.0857,-1.0976,-1.1079,-1.1194,-1.1308,-1.5582,-1.7645,-1.937,0.0,-2.0822,-2.0927,-2.0894,0.0,0.0,0.0,0.0,0.0,0.0,0.0,0.0,0.0,0.0,0.0,0.0,0.0,0.0,0.0,0.0,0.0,0.0,0.0,0.0,0.0,0.0,0.0,-1.9919,-1.9919,-1.9919,-1.9919,-1.9919,-1.9919,-1.9919,-1.9919,-1.9919,-1.9919,-1.9919,-1.9919,-1.9919,-1.9919,-1.9984,-2.0037,-2.0511,-2.0651,-2.0587,-2.0963,-2.091,-2.0587,-2.0457,-2.0328,-2.0242,-2.0479,-2.0544,-2.0554,-2.0813,-2.0411,-1.9753,-1.9054,-1.8627,-1.8201,-1.786,-1.712,-1.6301,-1.5695,-1.472,-1.3584,-1.2432,-1.1988,-1.1721,-1.1543,-1.1543,-1.1543,-1.1543,-1.1543,-1.1543,-1.1543,-1.1411,-1.1373,-1.1373,-1.1373,-1.1395,-1.1449,-1.1543,-1.1427,-1.1362,-1.1308,-1.1221,-1.109,-1.0982,-1.0889,-1.0824,-1.077,-1.0813,-1.0987,-1.1063,-1.1156,-1.127,-1.127,-1.1221,-1.1118,-1.0933,-1.0808,-1.0737,-1.0927,-1.1052,-1.1107,-1.1291,-1.14,-1.5479,-1.7074,-1.8323,-1.9553,-1.9989,-2.0184,0.0,0.0,0.0,0.0,0.0,0.0,0.0,0.0,0.0,0.0,0.0,0.0,0.0,0.0,0.0,0.0,0.0,0.0,0.0,0.0,0.0,0.0,0.0,0.0,-1.9671,-1.9671,-1.9671,-1.9671,-1.9671,-1.9671,-1.9671,-1.9671,-1.9704,-1.9833,-1.9833,-1.9865,-1.9919,-1.9919,-1.9919,-1.9941,-2.0296,-2.0511,-2.0597,-2.1007,-2.1071,-2.0877,-2.0651,-2.0425,-2.0231,-2.0404,-2.0283,-2.0109,-2.0294,-1.9707,-1.869,-1.7802,-1.7083,-1.6341,-1.5961,-1.5275,-1.4493,-1.4102,-1.3312,-1.252,-1.1721,-1.1543,-1.1543,-1.1543,-1.1543,-1.1543,-1.1543,-1.1543,-1.1543,-1.1543,-1.1427,-1.1411,-1.1411,-1.1384,-1.1362,-1.1362,-1.1362,-1.1335,-1.1243,-1.1199,-1.1118,-1.0938,-1.0889,-1.0835,-1.0742,-1.0737,-1.0791,-1.0911,-1.1003,-1.1123,-1.1264,-1.127,-1.127,-1.127,-1.1101,-1.0949,-1.0829,-1.1014,-1.1118,-1.115,-1.1357,-1.1543,-1.423,-1.5613,-1.6877,-1.7792,-1.8339,0.0,0.0,0.0,0.0,0.0,0.0,0.0,0.0,0.0,0.0,0.0,0.0,0.0,0.0,0.0,0.0,0.0,0.0,0.0,0.0,0.0,0.0,0.0,0.0,0.0,-1.9114,-1.9114,-1.9114,-1.9114,-1.9114,-1.9114,-1.9114,-1.9114,-1.9295,-1.9521,-1.9521,-1.9628,-1.9919,-1.9919,-1.9919,-1.9941,-2.0124,-2.0361,-2.0587,-2.0823,-2.091,-2.0877,-2.0651,-2.0425,-2.0221,-2.0231,-1.999,-1.9584,-1.9229,-1.8436,-1.7408,-1.5981,-1.5136,-1.4557,-1.4041,-1.3581,-1.321,-1.306,-1.2609,-1.2077,-1.1632,-1.1543,-1.1543,-1.1543,-1.1543,-1.1543,-1.1543,-1.1543,-1.1543,-1.1543,-1.1362,-1.1281,-1.1281,-1.1194,-1.1123,-1.1123,-1.1123,-1.1118,-1.1112,-1.1009,-1.0933,-1.0922,-1.0813,-1.0742,-1.0737,-1.0737,-1.0791,-1.0911,-1.0927,-1.1031,-1.1264,-1.127,-1.127,-1.127,-1.1259,-1.1199,-1.1085,-1.1096,-1.1156,-1.1264,-1.1395,-1.1543,-1.2942,-1.4019,0.0,-1.628,-1.697,-1.7533,0.0,0.0,0.0,0.0,0.0,0.0,0.0,0.0,0.0,0.0,0.0,0.0,0.0,0.0,0.0,0.0,0.0,0.0,0.0,0.0,0.0,0.0,0.0,0.0,-1.9082,-1.9082,-1.9082,-1.9082,-1.9082,-1.9082,-1.9082,-1.9082,-1.9262,-1.9499,-1.9499,-1.9618,-1.9919,-1.9919,-1.9919,-1.993,-2.0016,-2.0199,-2.0654,-2.0813,-2.0996,-2.1103,-2.0716,-2.0511,-2.0425,-2.0274,-1.9643,-1.8917,-1.8367,-1.7139,-1.5663,-1.4219,-1.321,-1.255,-1.2149,-1.1956,-1.1842,-1.2008,-1.1899,-1.1721,-1.1543,-1.1543,-1.1543,-1.1543,-1.1543,-1.1543,-1.1543,-1.1543,-1.1543,-1.1543,-1.1357,-1.127,-1.127,-1.1177,-1.1101,-1.1101,-1.1101,-1.1074,-1.0998,-1.0949,-1.0889,-1.0813,-1.0764,-1.0737,-1.0737,-1.0737,-1.0753,-1.0802,-1.0878,-1.096,-1.1041,-1.1194,-1.127,-1.127,-1.127,-1.1215,-1.1101,-1.1177,-1.1232,-1.1275,-1.1395,-1.1543,-1.1938,-1.2822,-1.3726,0.0,0.0,-1.6247,0.0,0.0,0.0,0.0,0.0,0.0,0.0,0.0,0.0,0.0,0.0,0.0,0.0,0.0,0.0,0.0,0.0,0.0,0.0,0.0,0.0,0.0,0.0,0.0,-1.8835,-1.8835,-1.895,-1.9025,-1.9039,-1.9039,-1.9025,-1.9025,-1.9101,-1.9262,-1.9262,-1.9424,-1.9811,-1.9811,-1.9844,-1.9919,-1.9919,-2.0157,-2.0468,-2.0694,-2.0852,-2.0873,-2.04,-2.0085,-1.9897,-1.9429,-1.8601,-1.7731,-1.702,-1.5752,-1.4176,-1.2834,-1.1999,-1.1411,-1.1135,-1.1128,-1.1199,-1.14,-1.1543,-1.1543,-1.1543,-1.1543,-1.1543,-1.1543,-1.1543,-1.1543,-1.1543,-1.1543,-1.1543,-1.1543,-1.1324,-1.1215,-1.1215,-1.1085,-1.0982,-1.0982,-1.0982,-1.0949,-1.0867,-1.0857,-1.0829,-1.0742,-1.0737,-1.0737,-1.0737,-1.0737,-1.0737,-1.0737,-1.0813,-1.0878,-1.0916,-1.1069,-1.1194,-1.127,-1.127,-1.1253,-1.1221,-1.1253,-1.1291,-1.1335,-1.1239,-1.1188,0.0,0.0,0.0,0.0,0.0,0.0,0.0,0.0,0.0,0.0,0.0,0.0,0.0,0.0,0.0,0.0,0.0,0.0,0.0,0.0,0.0,0.0,0.0,0.0,0.0,0.0,0.0,0.0,0.0,-1.8433,-1.8433,-1.8433,-1.8541,-1.8767,-1.9004,-1.9015,-1.8789,-1.8778,-1.8778,-1.8799,-1.8789,-1.9036,-1.9499,-1.9499,-1.9628,-1.9919,-1.9919,-1.9984,-2.0221,-2.0468,-2.0469,-2.0172,-1.9539,-1.8986,-1.8543,-1.7635,-1.6797,-1.6033,-1.519,-1.4122,-1.2859,-1.1892,-1.1427,-1.12,-1.1083,-1.1183,-1.1297,-1.1422,-1.1543,-1.1543,-1.1543,-1.1543,-1.1543,-1.1543,-1.1543,-1.1543,-1.1543,-1.1543,-1.1449,-1.1449,-1.1264,-1.1101,-1.1096,-1.0895,-1.0737,-1.0737,-1.0737,-1.0737,-1.0737,-1.0737,-1.0737,-1.0737,-1.0654,-1.0654,-1.0737,-1.0654,-1.0654,-1.0737,-1.0654,-1.0708,-1.0911,-1.0832,-1.094,-1.1259,-1.127,-1.133,-1.1449,-1.1335,-1.134,-1.1455,-1.0921,-1.0471,-1.078,0.0,0.0,0.0,0.0,0.0,0.0,0.0,0.0,0.0,0.0,0.0,0.0,0.0,0.0,0.0,0.0,0.0,0.0,0.0,0.0,0.0,0.0,0.0,0.0,0.0,0.0,0.0,-1.8433,-1.8433,-1.8433,-1.8433,-1.8466,-1.853,-1.8524,-1.8681,-1.8789,-1.8616,-1.8702,-1.9047,-1.8864,-1.9036,-1.9499,-1.9499,-1.9628,-1.9919,-1.9919,-1.9735,-1.9527,-2.0315,-2.0311,-1.9693,-1.8818,-1.7942,-1.7187,-1.6009,-1.5097,-1.426,-1.3491,-1.2572,-1.1713,-1.1045,-1.0852,-1.0804,-1.1176,-1.1248,-1.1297,-1.1422,-1.1543,-1.1543,-1.1543,-1.1543,-1.1543,-1.1543,-1.1543,-1.1543,-1.1543,-1.1384,-1.1324,-1.1324,-1.1204,-1.1074,-1.0987,-1.084,-1.0737,-1.0737,-1.0737,-1.0737,-1.0737,-1.0737,-1.0737,-1.0737,-1.0404,-1.0404,-1.0654,-1.0404,-1.0404,-1.0654,-1.0404,-1.0252,-1.0283,-1.0113,-1.0018,-1.0078,-1.0232,-1.0327,-1.0356,-1.1113,-1.1245,-1.0921,-1.0387,-1.0076,-1.1079,-1.1359,-1.1639,-1.1639,0.0,0.0,0.0,0.0,0.0,0.0,0.0,0.0,0.0,0.0,0.0,0.0,0.0,0.0,0.0,0.0,0.0,0.0,0.0,0.0,0.0,0.0,0.0,0.0,-1.8433,-1.8433,-1.8433,-1.853,-1.8584,-1.8584,-1.8681,-1.8745,-1.8789,-1.8756,-1.8706,-1.8781,-1.8799,-1.8928,-1.9208,-1.9305,-1.9478,-1.9704,-1.9876,-1.9542,-1.8967,-1.9341,-1.9134,-1.8519,-1.7435,-1.6519,-1.5614,-1.4384,-1.3491,-1.2881,-1.2185,-1.1566,-1.0921,-1.0564,-1.0509,-1.0693,-1.1025,-1.1232,-1.1362,-1.1522,-1.1543,-1.1543,-1.1543,-1.1543,-1.1543,-1.1543,-1.1543,-1.1438,-1.1389,-1.1324,-1.127,-1.127,-1.1139,-1.1003,-1.0933,-1.0819,-1.0737,-1.0737,-1.0737,-1.0737,-1.0737,-1.0737,-1.0654,-1.0487,-1.0237,-1.0153,-1.0153,-1.0153,-1.0153,-1.0153,-1.0153,-0.9986,-0.982,-0.9632,-0.9521,-0.9564,-0.9683,-0.9788,-0.9873,-1.0598,-1.0654,-1.0119,-0.9852,-0.953,-1.1822,-1.1951,-1.2127,-1.2073,-1.2178,0.0,-1.2613,-1.333,0.0,0.0,0.0,0.0,0.0,0.0,0.0,0.0,0.0,0.0,0.0,0.0,0.0,0.0,0.0,0.0,0.0,0.0,-1.8433,-1.8433,-1.8433,-1.8433,-1.8433,-1.8638,-1.8745,-1.8745,-1.8961,-1.891,-1.8717,-1.8827,-1.8659,-1.8265,-1.8446,-1.8542,-1.8574,-1.8746,-1.898,-1.9287,-1.9521,-1.9153,-1.8273,-1.7851,-1.739,-1.7003,-1.5814,-1.4779,-1.3873,-1.2688,-1.2037,-1.165,-1.1262,-1.0874,-1.0508,-1.0256,-1.0438,-1.0726,-1.0889,-1.1161,-1.1422,-1.1449,-1.1543,-1.1543,-1.1543,-1.1543,-1.1543,-1.1543,-1.1533,-1.1494,-1.1297,-1.1253,-1.1232,-1.1232,-1.1063,-1.0916,-1.09,-1.0808,-1.0737,-1.0737,-1.0654,-1.0654,-1.0654,-1.057,-1.0404,-1.007,-0.9986,-0.982,-0.9407,-0.9736,-0.982,-0.9407,-0.9736,-0.9741,-0.9323,-0.924,-0.9282,-0.946,-0.9484,-0.9597,-0.9717,-0.9899,-0.9674,-0.9322,-0.9232,-0.8994,-1.2602,-1.2447,-1.2253,-1.1865,0.0,0.0,-1.1616,-1.2174,0.0,0.0,0.0,0.0,0.0,0.0,0.0,0.0,0.0,0.0,0.0,0.0,0.0,0.0,0.0,0.0,0.0,0.0,-1.8433,-1.8433,-1.8433,-1.8433,-1.8433,-1.8476,-1.8498,-1.8498,-1.8552,-1.8507,-1.8288,-1.7867,-1.7562,-1.7367,-1.6942,-1.6829,-1.6995,-1.7127,-1.735,-1.7563,-1.7767,-1.7407,-1.6595,-1.6128,-1.5806,-1.5647,-1.4127,-1.2935,-1.2109,-1.089,-1.0408,-1.033,-1.0253,-1.0175,-1.0135,-1.028,-1.04,-1.053,-1.0944,-1.1118,-1.121,-1.14,-1.1543,-1.1543,-1.1543,-1.1543,-1.1543,-1.1543,-1.1378,-1.1302,-1.1275,-1.1123,-1.0987,-1.0987,-1.0949,-1.0889,-1.0791,-1.0753,-1.0737,-1.0737,-1.0404,-1.0237,-1.0237,-0.9903,-0.9657,-0.9574,-0.924,-0.9072,-0.9407,-0.9156,-0.9072,-0.9407,-0.9156,-0.8905,-0.8822,-0.8566,-0.8407,-0.8424,-0.8492,-0.866,-0.8846,-0.9219,-0.9411,-0.9322,-0.8875,-0.8606,-1.348,-1.3297,-1.2996,-1.2522,0.0,0.0,0.0,0.0,0.0,0.0,0.0,0.0,0.0,0.0,0.0,0.0,0.0,0.0,0.0,0.0,0.0,0.0,0.0,0.0,0.0,0.0,-1.8433,-1.8433,-1.8433,-1.8433,-1.8433,-1.8433,-1.8433,-1.8433,-1.8433,-1.8206,-1.7765,-1.7176,-1.6606,-1.6044,-1.5462,-1.5167,-1.5175,-1.5465,-1.565,-1.5764,-1.6045,-1.5718,-1.4899,-1.4309,-1.3895,-1.3422,-1.2615,-1.198,-1.1228,-1.0342,-1.0019,-1.0019,-1.0019,-1.0019,-1.0041,-1.0166,-1.0286,-1.0443,-1.0737,-1.0998,-1.1226,-1.1406,-1.1543,-1.1543,-1.1543,-1.1543,-1.1543,-1.1543,-1.1362,-1.1259,-1.1199,-1.0875,-1.0562,-1.0504,-1.0325,-1.0304,-1.0664,-1.0737,-1.0654,-1.0404,-1.0237,-0.9986,-0.9824,-0.9574,-0.9323,-0.9072,-0.8822,-0.8738,-0.8733,-0.8738,-0.8738,-0.8733,-0.8738,-0.8571,-0.8399,-0.8232,-0.8085,-0.813,-0.8309,-0.8448,-0.8538,-0.885,-0.8964,-0.8964,-0.8697,-0.8534,0.0,0.0,0.0,0.0,0.0,-1.2361,0.0,0.0,0.0,-1.2651,0.0,0.0,0.0,0.0,0.0,0.0,0.0,0.0,0.0,0.0,0.0,0.0,0.0,0.0,0.0,0.0,-1.8229,-1.8229,-1.8229,-1.8202,-1.8218,-1.8148,-1.81,-1.8082,-1.8012,-1.759,-1.6875,-1.632,-1.5534,-1.4608,-1.3954,-1.3602,-1.3515,-1.383,-1.3987,-1.396,-1.4273,-1.403,-1.3281,-1.2773,-1.2109,-1.1511,-1.1424,-1.1183,-1.0838,-1.019,-1.0019,-1.0019,-1.0019,-1.0019,-1.0019,-1.0019,-1.0199,-1.0438,-1.0607,-1.0889,-1.1291,-1.1389,-1.1438,-1.1543,-1.1543,-1.1543,-1.1543,-1.1543,-1.1346,-1.1215,-1.1031,-1.056,-1.0182,-1.0007,-0.9653,-0.9657,-1.032,-1.0487,-1.032,-0.9986,-0.9903,-0.9657,-0.9323,-0.924,-0.8984,-0.8654,-0.8571,-0.8483,-0.8148,-0.8399,-0.8483,-0.8144,-0.8399,-0.8399,-0.8144,-0.806,-0.8113,-0.8223,-0.837,-0.846,-0.8497,-0.857,-0.8599,-0.8583,-0.8599,-0.855,0.0,0.0,0.0,0.0,-1.3233,0.0,0.0,0.0,-1.2202,-1.2404,0.0,0.0,0.0,0.0,0.0,0.0,0.0,0.0,0.0,0.0,0.0,0.0,0.0,0.0,0.0,0.0,0.0,-1.7496,-1.7496,-1.7545,-1.7606,-1.7282,-1.7016,-1.6866,-1.6603,-1.6108,-1.5239,-1.4546,-1.3833,-1.3039,-1.2266,-1.1976,-1.2029,-1.2275,-1.2428,-1.2478,-1.265,-1.2501,-1.205,-1.1735,-1.1402,-1.1028,-1.0706,-1.0545,-1.0437,-1.0112,-1.0019,-1.0019,-1.0019,-1.0019,-1.0019,-1.0019,-1.0253,-1.0623,-1.0634,-1.0889,-1.1275,-1.1291,-1.1373,-1.1543,-1.1543,-1.1543,-1.1543,-1.1543,-1.1286,-1.1031,-1.0579,-1.0323,-1.0007,-0.9574,-0.9407,-0.9407,-0.9574,-0.9574,-0.9574,-0.949,-0.9156,-0.8822,-0.8822,-0.8483,-0.8232,-0.8148,-0.8148,-0.8148,-0.8144,-0.8148,-0.8148,-0.806,-0.8148,-0.8148,-0.806,-0.806,-0.8142,-0.8317,-0.8338,-0.8432,-0.8591,-0.8603,-0.8566,-0.8489,-0.857,-0.8513,0.0,0.0,0.0,0.0,0.0,0.0,-1.2371,0.0,-1.2328,0.0,0.0,0.0,0.0,0.0,0.0,0.0,0.0,0.0,0.0,0.0,0.0,0.0,0.0,0.0,0.0,0.0,0.0,0.0,0.0,-1.6764,-1.6763,-1.6471,-1.6072,-1.5735,-1.5168,-1.4457,-1.3666,-1.2945,-1.2166,-1.1462,-1.0671,-1.0311,-1.0443,-1.0655,-1.0706,-1.0832,-1.0969,-1.0952,-1.0808,-1.0701,-1.0673,-1.062,-1.0387,-1.0324,-1.0356,-1.0112,-1.0019,-1.0019,-1.0019,-1.0019,-1.003,-1.0101,-1.0275,-1.0481,-1.0617,-1.09,-1.1188,-1.1253,-1.1362,-1.1543,-1.1543,-1.1277,-1.101,-1.101,-1.0657,-1.0234,-1.0056,-0.9682,-0.9305,-0.9082,-0.8866,-0.8716,-0.8659,-0.9068,-0.9323,-0.9072,-0.8822,-0.8654,-0.8399,-0.8232,-0.806,-0.806,-0.806,-0.806,-0.806,-0.806,-0.806,-0.806,-0.806,-0.806,-0.806,-0.8113,-0.8179,-0.8252,-0.8358,-0.8452,-0.853,-0.8583,-0.8562,-0.8473,-0.8566,-0.8566,-1.6958,0.0,0.0,0.0,0.0,0.0,0.0,0.0,0.0,0.0,0.0,0.0,0.0,0.0,0.0,0.0,0.0,0.0,0.0,0.0,0.0,0.0,0.0,0.0,0.0,0.0,0.0,0.0,0.0,0.0,-1.5979,-1.5604,-1.5084,-1.4514,-1.3713,-1.2952,-1.2237,-1.1586,-1.0946,-1.0311,-0.9663,-0.9383,-0.9541,-0.9628,-0.9748,-0.9894,-0.9981,-1.0019,-1.0025,-1.0117,-1.0248,-1.0373,-1.0215,-1.0248,-1.0356,-1.0112,-1.0019,-1.0025,-1.0057,-1.009,-1.0134,-1.0226,-1.0335,-1.0465,-1.0634,-1.0884,-1.1118,-1.1204,-1.1335,-1.1455,-1.1277,-1.101,-1.0654,-1.0565,-1.0132,-0.9635,-0.9576,-0.9221,-0.8862,-0.8657,-0.834,-0.8179,-0.8113,-0.8667,-0.8901,-0.8571,-0.8571,-0.8399,-0.8148,-0.806,-0.806,-0.806,-0.806,-0.806,-0.806,-0.806,-0.806,-0.806,-0.806,-0.806,-0.806,-0.8125,-0.8174,-0.8199,-0.833,-0.8419,-0.8473,-0.8538,-0.855,-0.8509,-0.8579,-0.8579,0.0,0.0,0.0,-1.5052,0.0,0.0,0.0,0.0,-1.3157,0.0,0.0,0.0,0.0,0.0,-1.3649,-1.3175,-1.291,0.0,0.0,0.0,0.0,0.0,0.0,0.0,0.0,0.0,0.0,0.0,0.0,0.0,-1.5424,-1.4724,-1.3992,-1.3208,-1.2166,-1.1456,-1.1025,-1.0743,-1.0311,-0.9879,-0.9518,-0.9432,-0.9666,-0.9666,-0.9796,-1.0014,-1.0019,-1.0019,-1.0019,-1.0025,-1.0166,-1.0362,-1.0123,-1.0172,-1.0356,-1.0112,-1.0019,-1.0036,-1.0155,-1.0275,-1.0373,-1.0378,-1.0454,-1.0552,-1.0558,-1.0813,-1.1107,-1.1107,-1.1275,-1.1366,-1.0832,-1.0743,-1.0565,-1.0119,-0.9869,-0.9567,-0.932,-0.9012,-0.8816,-0.8395,-0.8256,-0.8199,-0.8195,-0.8206,-0.8148,-0.8144,-0.8144,-0.8144,-0.806,-0.806,-0.806,-0.806,-0.806,-0.806,-0.806,-0.806,-0.806,-0.806,-0.806,-0.806,-0.806,-0.8064,-0.8109,-0.8195,-0.8203,-0.8293,-0.8473,-0.8477,-0.8522,-0.8603,-0.8607,-0.8513,0.0,0.0,-1.6428,-1.6118,0.0,0.0,0.0,0.0,0.0,0.0,0.0,0.0,0.0,-1.3645,-1.3426,-1.2945,-1.2769,-1.2558,0.0,0.0,0.0,0.0,0.0,0.0,0.0,0.0,0.0,0.0,0.0,0.0,0.0,-1.3765,-1.2893,-1.1938,-1.0739,-1.0023,-0.9879,-0.9735,-0.9663,-0.9518,-0.9374,-0.9432,-0.9671,-0.9671,-0.9796,-1.0019,-1.0019,-1.0019,-1.0019,-1.0019,-1.0166,-1.0362,-1.0117,-1.0172,-1.0356,-1.0112,-1.0019,-1.0036,-1.0161,-1.0231,-1.0291,-1.0449,-1.0525,-1.0585,-1.0748,-1.0938,-1.1118,-1.1194,-1.1066,-1.0921,-1.0743,-1.0209,-0.9763,-0.9585,-0.922,-0.8869,-0.8728,-0.8686,-0.8544,-0.8342,-0.8309,-0.8268,-0.8207,-0.8121,-0.806,-0.806,-0.806,-0.806,-0.806,-0.806,-0.806,-0.806,-0.806,-0.806,-0.806,-0.806,-0.806,-0.806,-0.806,-0.806,-0.806,-0.806,-0.8076,-0.8105,-0.8166,-0.8228,-0.8289,-0.835,-0.8395,-0.8428,-0.8428,-0.8428,-1.8789,-1.7992,0.0,-1.6958,-1.6151,0.0,-1.4697,0.0,0.0,0.0,0.0,0.0,0.0,0.0,-1.2916,-1.2654,-1.242,-1.2168,0.0,0.0,0.0,0.0,0.0,0.0,0.0,0.0,-1.3835,-1.3902,0.0,0.0,0.0,0.0,-1.1902,-1.0942,-0.9906,-0.9302,-0.9302,-0.9302,-0.9302,-0.9302,-0.9302,-0.9432,-0.9671,-0.9671,-0.9796,-1.0019,-1.0019,-1.0019,-1.0019,-1.0019,-1.0139,-1.0302,-1.0101,-1.0144,-1.0297,-1.0095,-1.0047,-1.0095,-1.0177,-1.0259,-1.0356,-1.0509,-1.0612,-1.0715,-1.0873,-1.1036,-1.1177,-1.1079,-1.0916,-1.0654,-1.0298,-0.9763,-0.9232,-0.9054,-0.8804,-0.8481,-0.8513,-0.8493,-0.8464,-0.8436,-0.8379,-0.8317,-0.8256,-0.8142,-0.806,-0.806,-0.806,-0.806,-0.806,-0.806,-0.806,-0.806,-0.806,-0.806,-0.806,-0.806,-0.8076,-0.8109,-0.8081,-0.8076,-0.8109,-0.8081,-0.806,-0.806,-0.8121,-0.8166,-0.8199,-0.8256,-0.8301,-0.8334,-0.8301,-0.8317]}]]